[[{"header":{"parameterUnit":"m.s-1","parameterCategory":1,"la1":30.6,"la2":29.2853,"lo1":-89.7004,"lo2":-87.6739,"dy":0.0162,"dx":0.0183,"nx":112,"ny":82,"refTime":"2024-07-30T18:00:00:Z","depth":0,"parameterNumber":2,"parameterNumberName":"U-component_of_WINDS"},"data":[0.0,0.0,0.0,0.0,0.0,0.0,0.0,0.0,0.0,0.0,0.0,0.0,0.0,0.0,0.0,0.0,0.0,0.0,0.0,0.0,0.0,0.0,0.0,0.0,0.0,0.0,0.0,0.0,0.0,0.0,0.0,0.0,0.0,0.0,0.0,0.0,0.0,0.0,0.0,0.0,0.0,0.0,0.0,0.0,0.0,0.0,0.0,0.0,0.0,0.0,0.0,0.0,0.0,0.0,0.0,0.0,0.0,0.0,0.0,0.0,0.0,0.0,0.0,0.0,0.0,0.0,0.0,0.0,0.0,0.0,0.0,0.0,0.0,0.0,0.0,0.0,0.0,0.0,0.0,0.0,0.0,0.0,0.0,0.0,0.0,0.0,0.0,0.0,0.0,0.0,0.0,-1.3786,-1.6238,-1.8307,-1.9545,-1.8408,-1.6424,-1.3583,0.0,0.0,0.0,0.0,0.0,0.0,0.0,0.0,0.0,0.0,0.0,0.0,0.0,0.0,0.0,0.0,0.0,0.0,0.0,0.0,0.0,0.0,0.0,0.0,0.0,0.0,0.0,0.0,0.0,0.0,0.0,0.0,0.0,0.0,0.0,0.0,0.0,0.0,0.0,0.0,0.0,0.0,0.0,0.0,0.0,0.0,0.0,0.0,0.0,0.0,0.0,0.0,0.0,0.0,0.0,0.0,0.0,0.0,0.0,0.0,0.0,0.0,0.0,0.0,0.0,0.0,0.0,0.0,0.0,0.0,0.0,0.0,0.0,0.0,0.0,0.0,0.0,0.0,0.0,0.0,0.0,0.0,0.0,0.0,0.0,0.0,0.0,0.0,0.0,0.0,0.0,0.0,0.0,0.0,0.0,0.0,0.0,0.0,0.0,0.0,0.0,0.0,0.0,0.0,-1.3303,-1.592,-1.7151,-1.7884,-1.8121,-1.7365,-1.5886,-1.3549,0.0,0.0,0.0,0.0,0.0,0.0,0.0,0.0,0.0,0.0,0.0,0.0,0.0,0.0,0.0,0.0,0.0,0.0,0.0,0.0,0.0,0.0,0.0,0.0,0.0,0.0,0.0,0.0,0.0,0.0,0.0,0.0,0.0,0.0,0.0,0.0,0.0,0.0,0.0,0.0,0.0,0.0,0.0,0.0,0.0,0.0,0.0,0.0,0.0,0.0,0.0,0.0,0.0,0.0,0.0,0.0,0.0,0.0,0.0,0.0,0.0,0.0,0.0,0.0,0.0,0.0,0.0,0.0,0.0,0.0,0.0,0.0,0.0,0.0,0.0,0.0,0.0,0.0,0.0,0.0,0.0,0.0,0.0,0.0,0.0,0.0,0.0,0.0,0.0,0.0,0.0,0.0,0.0,0.0,0.0,0.0,0.0,0.0,0.0,0.0,0.0,0.0,0.0,-1.2233,-1.4183,-1.7534,-1.7845,-1.7952,-1.8369,-1.7726,-1.618,-1.3566,-1.3015,0.0,0.0,0.0,0.0,0.0,0.0,0.0,0.0,0.0,0.0,0.0,0.0,0.0,0.0,0.0,0.0,0.0,0.0,0.0,0.0,0.0,0.0,0.0,0.0,0.0,0.0,0.0,0.0,0.0,0.0,0.0,0.0,0.0,0.0,0.0,0.0,0.0,0.0,0.0,0.0,0.0,0.0,0.0,0.0,0.0,0.0,0.0,0.0,0.0,0.0,0.0,0.0,0.0,0.0,0.0,0.0,0.0,0.0,0.0,0.0,0.0,0.0,0.0,0.0,0.0,0.0,0.0,0.0,0.0,0.0,0.0,0.0,0.0,0.0,0.0,0.0,0.0,0.0,0.0,0.0,0.0,0.0,0.0,0.0,0.0,0.0,0.0,0.0,0.0,0.0,0.0,0.0,0.0,0.0,0.0,0.0,0.0,0.0,0.0,0.0,0.0,0.0,-1.4021,-1.5131,-1.8302,-1.8149,-1.8031,-1.8589,-1.7811,-1.617,-1.3566,-1.2203,0.0,0.0,0.0,0.0,0.0,0.0,0.0,0.0,0.0,0.0,0.0,0.0,0.0,0.0,0.0,0.0,0.0,0.0,0.0,0.0,0.0,0.0,0.0,0.0,0.0,0.0,0.0,0.0,0.0,0.0,0.0,0.0,0.0,0.0,0.0,0.0,0.0,0.0,0.0,0.0,0.0,0.0,0.0,0.0,0.0,0.0,0.0,0.0,0.0,0.0,0.0,0.0,0.0,0.0,0.0,0.0,0.0,0.0,0.0,0.0,0.0,0.0,0.0,0.0,0.0,0.0,0.0,0.0,0.0,0.0,0.0,0.0,0.0,0.0,0.0,0.0,0.0,0.0,0.0,0.0,0.0,0.0,0.0,0.0,0.0,0.0,0.0,0.0,0.0,0.0,0.0,0.0,0.0,0.0,0.0,0.0,0.0,0.0,0.0,0.0,0.0,0.0,-1.4504,-1.6069,-1.7698,-1.7834,-1.7817,-1.7867,-1.6576,-1.508,-1.3498,-1.072,0.0,0.0,0.0,0.0,0.0,0.0,0.0,0.0,0.0,0.0,0.0,0.0,0.0,0.0,0.0,0.0,0.0,0.0,0.0,0.0,0.0,0.0,0.0,0.0,0.0,0.0,0.0,0.0,0.0,0.0,0.0,0.0,0.0,0.0,0.0,0.0,0.0,0.0,0.0,0.0,0.0,0.0,0.0,0.0,0.0,0.0,0.0,0.0,0.0,0.0,0.0,0.0,0.0,0.0,0.0,0.0,0.0,0.0,0.0,0.0,0.0,0.0,0.0,0.0,0.0,0.0,0.0,0.0,0.0,0.0,0.0,0.0,0.0,0.0,0.0,0.0,0.0,0.0,0.0,0.0,0.0,0.0,0.0,0.0,0.0,0.0,0.0,0.0,0.0,0.0,0.0,0.0,0.0,0.0,0.0,0.0,0.0,0.0,0.0,0.0,0.0,0.0,-1.4159,-1.5653,0.0,-1.78,-1.78,-1.78,-1.6864,-1.5453,-1.3515,0.0,0.0,0.0,0.0,0.0,0.0,0.0,0.0,0.0,0.0,0.0,0.0,0.0,0.0,0.0,0.0,0.0,0.0,0.0,0.0,0.0,0.0,0.0,0.0,0.0,0.0,0.0,0.0,0.0,0.0,0.0,0.0,0.0,0.0,0.0,0.0,0.0,0.0,0.0,0.0,0.0,0.0,0.0,0.0,0.0,0.0,0.0,0.0,0.0,0.0,0.0,0.0,0.0,0.0,0.0,0.0,0.0,0.0,0.0,0.0,0.0,0.0,0.0,0.0,0.0,0.0,0.0,0.0,0.0,0.0,0.0,0.0,0.0,0.0,0.0,0.0,0.0,0.0,0.0,0.0,0.0,0.0,0.0,0.0,0.0,0.0,0.0,0.0,0.0,0.0,0.0,0.0,0.0,0.0,0.0,0.0,0.0,0.0,0.0,0.0,0.0,0.0,-1.2673,-1.4126,-1.5602,0.0,-1.78,-1.78,-1.78,-1.6695,-1.5266,-1.3515,0.0,0.0,0.0,0.0,0.0,0.0,0.0,0.0,0.0,0.0,0.0,0.0,0.0,0.0,0.0,0.0,0.0,0.0,0.0,0.0,0.0,0.0,0.0,0.0,0.0,0.0,0.0,0.0,0.0,0.0,0.0,0.0,0.0,0.0,0.0,0.0,0.0,0.0,0.0,0.0,0.0,0.0,0.0,0.0,0.0,0.0,0.0,0.0,0.0,0.0,0.0,0.0,0.0,0.0,0.0,0.0,0.0,0.0,0.0,0.0,0.0,0.0,0.0,0.0,0.0,0.0,0.0,0.0,0.0,0.0,0.0,0.0,0.0,0.0,0.0,0.0,0.0,0.0,0.0,0.0,0.0,0.0,0.0,0.0,0.0,0.0,0.0,0.0,0.0,0.0,0.0,0.0,0.0,0.0,0.0,0.0,0.0,0.0,0.0,0.0,0.0,0.0,-1.2731,-1.4572,-1.617,-1.7648,-1.78,-1.78,-1.78,-1.5788,-1.4182,0.0,0.0,0.0,0.0,0.0,0.0,0.0,0.0,0.0,0.0,0.0,0.0,0.0,0.0,0.0,0.0,0.0,0.0,0.0,0.0,0.0,0.0,0.0,0.0,0.0,0.0,0.0,0.0,0.0,0.0,0.0,0.0,0.0,0.0,0.0,0.0,0.0,0.0,0.0,0.0,0.0,0.0,0.0,0.0,0.0,0.0,0.0,0.0,0.0,0.0,0.0,0.0,0.0,0.0,0.0,0.0,0.0,0.0,0.0,0.0,0.0,0.0,0.0,0.0,0.0,0.0,0.0,0.0,0.0,0.0,0.0,0.0,0.0,0.0,0.0,0.0,0.0,0.0,0.0,0.0,0.0,0.0,0.0,0.0,0.0,0.0,0.0,0.0,0.0,0.0,0.0,0.0,0.0,0.0,0.0,0.0,0.0,0.0,0.0,0.0,0.0,0.0,0.0,-1.2739,-1.4572,-1.617,-1.7648,-1.78,-1.78,-1.78,-1.6255,-1.4733,-1.3481,0.0,0.0,0.0,0.0,0.0,0.0,0.0,0.0,0.0,0.0,0.0,0.0,0.0,0.0,0.0,0.0,0.0,0.0,0.0,0.0,0.0,0.0,0.0,0.0,0.0,0.0,0.0,0.0,0.0,0.0,0.0,0.0,0.0,0.0,0.0,0.0,0.0,0.0,0.0,0.0,0.0,0.0,0.0,0.0,0.0,0.0,0.0,0.0,0.0,0.0,0.0,0.0,0.0,0.0,0.0,0.0,0.0,0.0,0.0,0.0,0.0,0.0,0.0,0.0,0.0,0.0,0.0,0.0,0.0,0.0,0.0,0.0,0.0,0.0,0.0,0.0,0.0,0.0,0.0,0.0,0.0,0.0,0.0,0.0,0.0,0.0,0.0,0.0,0.0,0.0,0.0,0.0,0.0,0.0,0.0,0.0,0.0,0.0,0.0,0.0,0.0,0.0,-1.2849,-1.4609,-1.617,-1.7648,-1.78,-1.78,-1.78,-1.6458,-1.4979,-1.3498,0.0,0.0,0.0,0.0,0.0,0.0,0.0,0.0,0.0,0.0,0.0,0.0,0.0,0.0,0.0,0.0,0.0,0.0,0.0,0.0,0.0,0.0,0.0,0.0,0.0,0.0,0.0,0.0,0.0,0.0,0.0,0.0,0.0,0.0,0.0,0.0,0.0,0.0,0.0,0.0,0.0,0.0,0.0,0.0,0.0,0.0,0.0,0.0,0.0,0.0,0.0,0.0,0.0,0.0,0.0,0.0,0.0,0.0,0.0,0.0,0.0,0.0,0.0,0.0,0.0,0.0,0.0,0.0,0.0,0.0,0.0,0.0,0.0,0.0,0.0,0.0,0.0,0.0,0.0,0.0,0.0,0.0,0.0,0.0,0.0,0.0,0.0,0.0,0.0,0.0,0.0,0.0,0.0,0.0,0.0,0.0,0.0,0.0,0.0,0.0,0.0,0.0,-1.3024,-1.4691,-1.617,-1.7648,-1.78,-1.78,-1.78,-1.6458,-1.4996,-1.3591,0.0,0.0,0.0,0.0,0.0,0.0,0.0,0.0,0.0,0.0,0.0,0.0,0.0,0.0,0.0,0.0,0.0,0.0,0.0,0.0,0.0,0.0,0.0,0.0,0.0,0.0,0.0,0.0,0.0,0.0,0.0,0.0,0.0,0.0,0.0,0.0,0.0,0.0,0.0,0.0,0.0,0.0,0.0,0.0,0.0,0.0,0.0,0.0,0.0,0.0,0.0,0.0,0.0,0.0,0.0,0.0,0.0,0.0,0.0,0.0,-1.3043,0.0,0.0,0.0,0.0,0.0,0.0,0.0,0.0,0.0,0.0,0.0,0.0,0.0,0.0,0.0,0.0,0.0,0.0,0.0,0.0,0.0,0.0,0.0,0.0,0.0,0.0,0.0,0.0,0.0,0.0,0.0,0.0,0.0,0.0,0.0,0.0,0.0,0.0,0.0,0.0,0.0,-1.3091,-1.4691,-1.617,-1.7648,-1.78,-1.78,-1.78,-1.6458,-1.5223,-1.4318,-1.1579,0.0,0.0,0.0,0.0,0.0,0.0,0.0,0.0,0.0,0.0,0.0,0.0,0.0,0.0,0.0,0.0,0.0,0.0,0.0,0.0,0.0,0.0,0.0,0.0,0.0,0.0,0.0,0.0,0.0,0.0,0.0,0.0,0.0,0.0,0.0,0.0,0.0,0.0,0.0,0.0,0.0,0.0,0.0,0.0,0.0,0.0,0.0,0.0,0.0,0.0,0.0,0.0,0.0,0.0,0.0,0.0,0.0,0.0,0.0,0.0,-1.4126,0.0,0.0,0.0,0.0,0.0,0.0,0.0,0.0,0.0,0.0,0.0,0.0,0.0,0.0,0.0,0.0,0.0,0.0,0.0,0.0,0.0,0.0,0.0,0.0,0.0,0.0,0.0,0.0,0.0,0.0,0.0,0.0,0.0,0.0,0.0,0.0,0.0,0.0,0.0,0.0,-1.3159,-1.4996,-1.657,-1.7681,-1.78,-1.78,-1.78,-1.6458,-1.5291,-1.4554,-1.2357,0.0,0.0,0.0,0.0,0.0,0.0,0.0,0.0,0.0,0.0,0.0,0.0,0.0,0.0,0.0,0.0,0.0,0.0,0.0,0.0,0.0,0.0,0.0,0.0,0.0,0.0,0.0,0.0,0.0,0.0,0.0,0.0,0.0,0.0,0.0,0.0,0.0,0.0,0.0,0.0,0.0,0.0,0.0,0.0,0.0,0.0,0.0,0.0,0.0,0.0,0.0,0.0,0.0,-1.7128,-1.7591,-1.8758,-1.8161,-1.8465,-1.9384,-1.7557,-1.6891,-1.6925,-1.4962,0.0,0.0,0.0,0.0,0.0,0.0,0.0,0.0,0.0,0.0,0.0,0.0,0.0,0.0,0.0,0.0,0.0,0.0,0.0,0.0,0.0,0.0,0.0,0.0,-1.6306,-1.657,-1.4005,0.0,0.0,0.0,0.0,0.0,0.0,0.0,0.0,0.0,0.0,0.0,-1.3405,-1.5412,-1.6976,-1.7715,-1.78,-1.78,-1.78,-1.6576,-1.5477,-1.474,-1.3312,-1.1594,0.0,0.0,0.0,0.0,0.0,0.0,0.0,0.0,0.0,0.0,0.0,0.0,0.0,0.0,0.0,0.0,0.0,0.0,0.0,0.0,0.0,0.0,0.0,0.0,0.0,0.0,0.0,0.0,0.0,0.0,0.0,0.0,-0.999,-1.1519,0.0,0.0,0.0,0.0,0.0,0.0,0.0,0.0,0.0,0.0,0.0,0.0,0.0,-1.657,-1.7495,-1.878,-1.9811,-2.0615,-2.1817,-2.2462,-2.2665,-2.2547,-2.2276,-2.184,-2.1536,0.0,-1.855,-1.7608,0.0,0.0,0.0,0.0,0.0,0.0,0.0,0.0,0.0,0.0,0.0,0.0,0.0,0.0,0.0,0.0,0.0,0.0,0.0,0.0,0.0,0.0,-1.9106,-1.8471,-1.8961,-1.9287,0.0,-1.6086,-1.4233,-1.3844,-1.2246,0.0,0.0,0.0,0.0,0.0,0.0,0.0,-1.425,-1.574,-1.6976,-1.7715,-1.78,-1.78,-1.78,-1.7033,-1.6231,-1.5494,-1.4065,-1.2829,-1.1891,-1.0037,0.0,0.0,0.0,0.0,0.0,0.0,0.0,0.0,0.0,0.0,0.0,0.0,0.0,0.0,0.0,0.0,0.0,0.0,0.0,0.0,0.0,0.0,0.0,0.0,0.0,0.0,0.0,0.0,0.0,-1.002,-1.2009,-1.2263,-1.3092,-1.3303,0.0,0.0,0.0,0.0,0.0,0.0,0.0,0.0,0.0,-1.8493,-1.899,-1.9786,-2.094,-2.2006,-2.2714,-2.3052,-2.3712,-2.4017,-2.4017,-2.4017,-2.3848,-2.3543,-2.3543,-2.2967,-2.1884,-1.9862,-1.8172,-1.6762,0.0,0.0,0.0,0.0,-1.6346,-1.6583,-1.8183,-1.8454,-1.8003,-1.7591,0.0,0.0,0.0,0.0,0.0,0.0,0.0,0.0,0.0,0.0,-2.0018,-2.0162,-2.0754,-2.1197,-2.0889,-1.9469,-1.776,0.0,-1.4928,-1.3845,-1.2609,0.0,0.0,0.0,0.0,0.0,-1.5088,-1.6407,-1.7439,-1.7766,-1.78,-1.78,-1.78,-1.7128,-1.6384,-1.5646,-1.4597,-1.3498,-1.2348,-1.134,-1.0212,0.0,0.0,0.0,0.0,0.0,0.0,0.0,0.0,0.0,0.0,0.0,0.0,0.0,0.0,0.0,0.0,0.0,0.0,0.0,0.0,0.0,0.0,0.0,0.0,0.0,0.0,0.0,0.0,-1.1898,-1.3625,-1.3456,-1.5054,-1.5663,0.0,0.0,0.0,0.0,0.0,0.0,-1.7754,-1.8025,-1.9063,-2.1079,-2.1732,-2.2578,-2.3663,-2.422,-2.4592,-2.4778,-2.4778,-2.4778,-2.4778,-2.4778,-2.4677,-2.4491,-2.4491,-2.4491,-2.4321,-2.2073,-2.0386,-1.9164,-1.8432,-1.8008,-1.7924,-1.8471,-1.8674,-1.8944,-2.0835,-2.1092,-2.0504,-1.9959,-1.9502,-1.8877,-1.7236,0.0,0.0,0.0,0.0,-1.8144,-1.9435,-2.0183,-2.0741,-2.1329,-2.1904,-2.2296,-2.2296,-2.187,-2.0767,0.0,-1.7534,-1.6739,-1.508,0.0,0.0,0.0,0.0,-1.6373,-1.6187,-1.7287,-1.8014,-1.7817,-1.78,-1.78,-1.78,-1.7304,-1.6587,-1.5663,-1.5078,-1.4115,-1.2635,-1.2398,-1.1514,-0.9851,0.0,0.0,0.0,0.0,0.0,0.0,0.0,0.0,0.0,0.0,0.0,0.0,0.0,0.0,0.0,0.0,0.0,0.0,0.0,0.0,0.0,0.0,0.0,0.0,0.0,0.0,0.0,0.0,0.0,-1.6326,-1.7202,0.0,0.0,0.0,0.0,-1.6519,-1.7236,-1.8606,-2.0852,-2.1634,-2.2716,-2.422,-2.4305,-2.4372,-2.444,-2.4474,-2.4846,-2.5541,-2.5541,-2.5541,-2.5541,-2.5541,-2.5152,-2.4491,-2.4491,-2.4491,-2.4491,-2.4338,-2.3814,-2.3054,-2.231,-2.1583,-2.097,-2.1021,-2.1021,-2.1156,-2.1972,-2.2212,-2.2178,-2.2144,-2.1147,-1.9917,-1.9816,-1.9287,0.0,0.0,-2.0382,-2.1156,-2.1938,-2.2161,-2.2195,-2.2229,-2.2262,-2.2296,-2.2296,-2.2262,-2.1989,0.0,-1.9786,-1.8753,-1.864,0.0,-1.7563,-1.7529,-1.8217,-1.8488,-1.7783,-1.8369,-1.8572,-1.7867,-1.78,-1.78,-1.78,-1.7766,-1.7124,-1.568,-1.5561,-1.4877,-1.3413,-1.2677,-1.2304,-1.2328,-1.0063,0.0,0.0,0.0,0.0,0.0,0.0,0.0,0.0,0.0,0.0,0.0,0.0,0.0,0.0,0.0,0.0,0.0,0.0,0.0,0.0,0.0,0.0,0.0,0.0,0.0,0.0,0.0,0.0,-1.8008,-1.9227,0.0,-1.8899,-1.9046,-1.9515,-2.0247,-2.0991,-2.1972,-2.3238,-2.3577,-2.3966,-2.4474,-2.4965,-2.5203,-2.5203,-2.5676,-2.6065,-2.6302,-2.6302,-2.6302,-2.6302,-2.6302,-2.615,-2.5929,-2.5929,-2.5929,-2.5929,-2.5929,-2.5202,-2.4085,-2.3831,-2.356,-2.3323,-2.3323,-2.3323,-2.3289,-2.3071,-2.3004,-2.2936,-2.2448,-2.1924,-2.1485,-2.1485,-2.1299,-2.1143,-2.1417,-2.1688,-2.1972,-2.2229,-2.2296,-2.2296,-2.2296,-2.2296,-2.2296,-2.2296,-2.2296,-2.2212,-2.1955,-2.1075,-2.0226,-1.9693,-1.9389,-1.9051,-1.8589,-1.9135,-1.9507,-1.9241,-1.9456,-1.9321,-1.8589,-1.8504,-1.8318,-1.7834,-1.78,-1.7157,-1.5697,-1.5595,-1.4945,-1.3464,-1.323,-1.266,-1.1616,-1.1047,-0.9975,0.0,0.0,0.0,0.0,0.0,0.0,0.0,0.0,0.0,0.0,0.0,0.0,0.0,0.0,0.0,0.0,0.0,0.0,0.0,0.0,0.0,0.0,0.0,0.0,0.0,0.0,-1.8442,-1.9169,-2.0839,-2.1634,-2.0859,-2.1701,-2.2527,-2.3004,-2.3477,-2.4101,-2.4829,-2.488,-2.4998,-2.5235,-2.571,-2.5981,-2.5981,-2.6454,-2.6691,-2.6691,-2.6691,-2.6691,-2.6691,-2.6691,-2.6691,-2.6691,-2.6691,-2.6691,-2.6691,-2.6691,-2.6132,-2.5218,-2.4982,-2.488,-2.4846,-2.4592,-2.4491,-2.4423,-2.3949,-2.378,-2.3695,-2.319,-2.2868,-2.2682,-2.2682,-2.2499,-2.2296,-2.2296,-2.2296,-2.2296,-2.2296,-2.2296,-2.2296,-2.2296,-2.2296,-2.2296,-2.2296,-2.2296,-2.2296,-2.2296,-2.1904,-2.1397,-2.0876,-2.0792,-2.0606,-2.0128,-2.0454,-2.069,-2.0437,-2.0403,-2.0027,-1.9007,-1.8894,-1.8606,-1.785,-1.7574,-1.7016,-1.6028,-1.5571,-1.4858,-1.3811,-1.3413,-1.271,-1.1592,-1.1748,-1.0786,-0.8653,0.0,0.0,0.0,0.0,0.0,0.0,0.0,0.0,0.0,0.0,0.0,0.0,0.0,0.0,0.0,0.0,0.0,0.0,0.0,0.0,0.0,0.0,0.0,-1.6783,-1.8059,-1.9283,-2.0031,-2.209,-2.3156,-2.2431,-2.368,-2.4525,-2.4525,-2.4558,-2.488,-2.5609,-2.5659,-2.5998,-2.6708,-2.6776,-2.6759,-2.6759,-2.6759,-2.6759,-2.6759,-2.6742,-2.6725,-2.6725,-2.6708,-2.6691,-2.6691,-2.6691,-2.6691,-2.6691,-2.6691,-2.6691,-2.6623,-2.5913,-2.5626,-2.5558,-2.4829,-2.4541,-2.4525,-2.4525,-2.4508,-2.4491,-2.4491,-2.4017,-2.3427,-2.3427,-2.2919,-2.233,-2.233,-2.2313,-2.2296,-2.2296,-2.2296,-2.2296,-2.2296,-2.2296,-2.2296,-2.2296,-2.2296,-2.2296,-2.2296,-2.2296,-2.2296,-2.2296,-2.2296,-2.2296,-2.2296,-2.2296,0.0,-2.1326,-2.1224,-2.0649,-1.9142,-1.8944,-1.864,-1.7901,-1.7162,-1.6716,-1.6665,-1.5499,-1.4745,-1.4522,-1.3259,-1.2574,-1.2547,-1.2115,-1.135,-1.0313,0.0,0.0,0.0,0.0,0.0,0.0,0.0,0.0,0.0,0.0,0.0,0.0,0.0,0.0,0.0,0.0,0.0,0.0,0.0,0.0,0.0,0.0,-1.9565,-1.8448,-2.0078,-2.1637,-2.2378,-2.3492,-2.4118,-2.3915,-2.4746,-2.5304,-2.5304,-2.5778,-2.6167,-2.6387,-2.6894,-2.7283,-2.7486,-2.8061,-2.8367,-2.8367,-2.8367,-2.8367,-2.8367,-2.7791,-2.7503,-2.7486,-2.6945,-2.6691,-2.6691,-2.6691,-2.6691,-2.6691,-2.6691,-2.6691,-2.6674,-2.6471,-2.6404,-2.637,-2.6183,-2.5761,-2.5304,-2.5304,-2.4948,-2.4491,-2.4491,-2.4355,-2.4203,-2.4203,-2.3678,-2.3105,-2.3105,-2.2716,-2.2296,-2.2296,-2.2296,-2.2296,-2.2296,-2.2296,-2.2296,-2.2296,-2.2296,-2.2296,-2.2296,-2.2296,-2.2296,-2.2296,-2.2296,-2.2296,-2.2296,-2.2296,0.0,-2.2023,-2.2006,-2.1634,-2.0666,-2.0044,-1.9389,-1.8657,-1.7929,-1.7033,-1.5977,-1.5713,-1.5349,-1.4813,-1.449,-1.411,-1.3674,-1.2266,-1.1182,0.0,0.0,0.0,0.0,0.0,0.0,0.0,0.0,0.0,0.0,0.0,0.0,0.0,0.0,0.0,0.0,0.0,0.0,0.0,0.0,0.0,0.0,-2.0107,-2.1563,-2.1292,-2.2392,-2.3376,-2.3814,-2.4525,-2.4965,-2.4965,-2.5625,-2.6201,-2.6488,-2.6928,-2.7317,-2.7656,-2.8061,-2.8298,-2.8298,-2.8773,-2.8993,-2.8993,-2.8993,-2.8993,-2.8993,-2.8518,-2.8298,-2.8298,-2.7858,-2.7673,-2.7638,-2.7317,-2.7165,-2.7148,-2.6826,-2.6691,0.0,0.0,0.0,0.0,0.0,-2.642,-2.6065,-2.6065,-2.5778,-2.5422,-2.5422,-2.5218,-2.4965,-2.4965,-2.4457,-2.3814,-2.3477,-2.3088,-2.2699,-2.2381,-2.2296,-2.2296,-2.2296,-2.2296,-2.2296,-2.2296,-2.2296,-2.2296,-2.2296,-2.2296,0.0,-2.2296,-2.2296,-2.2296,-2.2296,-2.2296,-2.2296,-2.2296,-2.2296,-2.2023,-2.1275,-2.0771,-2.0078,-1.899,-1.8217,0.0,0.0,0.0,-1.5791,-1.5188,-1.5027,0.0,0.0,0.0,0.0,0.0,0.0,0.0,0.0,-1.1288,-1.1145,0.0,0.0,0.0,0.0,0.0,0.0,0.0,0.0,0.0,0.0,0.0,0.0,0.0,0.0,0.0,0.0,-2.162,-2.3139,-2.444,-2.4694,-2.4711,-2.4626,-2.527,-2.5711,-2.5711,-2.6387,-2.7097,-2.7756,-2.7874,-2.8247,-2.8959,0.0,0.0,0.0,0.0,-2.9247,-2.9247,-2.9247,-2.9247,-2.9247,-2.9162,-2.9128,-2.9128,-2.9044,-2.8993,-2.8959,-2.8247,-2.7942,-2.7874,-2.7131,-2.6776,-2.6691,-2.6691,-2.6691,-2.6691,-2.6691,-2.6691,-2.6691,-2.6691,0.0,0.0,-2.6691,-2.6251,-2.5711,-2.5711,-2.5203,-2.4491,-2.3833,-2.3528,-2.3241,-2.2584,-2.2347,-2.2296,-2.2296,-2.2296,-2.2296,-2.2296,-2.2321,-2.2349,-2.2349,-2.2349,-2.2349,-2.2349,-2.2307,-2.2296,-2.2296,-2.2296,-2.2296,-2.2296,-2.2296,-2.2057,-2.1393,0.0,0.0,-1.9278,-1.8438,-1.8051,-1.8177,-1.7108,-1.6243,-1.5764,-1.5424,-1.5401,-1.5735,-1.5239,-1.54,-1.6303,-1.6019,-1.5822,-1.5663,-1.3633,-1.3371,0.0,0.0,0.0,0.0,0.0,0.0,0.0,0.0,0.0,0.0,0.0,0.0,0.0,0.0,0.0,-2.1688,-2.3598,-2.5052,-2.5355,-2.5896,-2.6048,-2.5456,-2.6031,-2.6488,-2.6488,-2.7148,-2.7655,-2.779,-2.8399,-2.884,-2.8993,-2.955,-2.9888,-2.9888,-3.0463,-3.0768,-3.0768,-3.0768,-3.0768,-3.0787,0.0,0.0,-2.9871,-2.9281,-2.8993,-2.8993,-2.884,-2.8773,-2.8722,-2.7908,-2.7249,-2.6691,-2.6691,-2.6691,-2.6691,-2.6691,-2.6691,-2.6691,-2.6691,-2.6691,-2.6691,-2.6691,-2.659,-2.6488,-2.6488,-2.5964,0.0,-2.522,-2.4323,-2.3359,-2.3224,-2.275,-2.2296,-2.2296,-2.2296,-2.2296,-2.2296,-2.2477,-2.2621,-2.2621,-2.2621,-2.2621,-2.2621,-2.2436,-2.2296,-2.2296,-2.2296,-2.2296,-2.2296,-2.2296,-2.2245,-2.2107,-2.1549,-2.1072,-2.0784,-1.9668,-1.8773,-1.8232,-1.7773,-1.7441,-1.7287,-1.7412,-1.742,-1.7276,-1.6448,-1.612,-1.6303,-1.5873,-1.5949,-1.6451,-1.5436,-1.5105,0.0,0.0,0.0,0.0,0.0,0.0,0.0,0.0,0.0,0.0,0.0,-1.8707,-1.9845,0.0,-2.2649,-2.3782,-2.4881,-2.5744,-2.6099,-2.6471,-2.6556,-2.6184,-2.6471,-2.6691,-2.6691,-2.7385,-2.7959,-2.8383,-2.911,-2.9702,-3.0093,-3.0446,-3.0649,-3.0649,-3.1004,-3.119,-3.119,-3.119,-3.119,-3.119,-3.0835,-3.0649,-3.0632,-3.026,-3.011,-3.0093,-2.9702,-2.955,-2.9482,-2.8721,-2.796,-2.7249,-2.7249,-2.7029,-2.6691,-2.6691,-2.6691,-2.6691,-2.6691,-2.6691,-2.6691,-2.6691,-2.6691,-2.6691,-2.6691,-2.6437,-2.6065,-2.5694,-2.5084,-2.4323,-2.3579,-2.3122,-2.2767,-2.2381,-2.2296,-2.2335,-2.2477,-2.2612,-2.2759,-2.2923,-2.296,-2.296,-2.296,-2.2845,-2.2664,-2.2349,-2.2296,-2.2296,-2.2296,-2.2412,-2.245,-2.2307,-2.2228,-2.1969,-2.146,-2.0381,-1.9588,-1.9225,-1.8793,-1.8536,-1.8494,-1.8523,-1.8523,-1.8494,-1.7675,-1.7318,-1.7445,-1.6944,-1.6898,-1.7236,-1.6864,-1.6898,0.0,0.0,0.0,0.0,0.0,0.0,0.0,0.0,-1.7856,-1.8894,-2.0048,-2.1248,-2.2496,-2.3325,-2.4222,-2.5406,-2.5711,-2.6031,-2.6607,-2.6691,-2.6691,-2.6691,-2.6691,-2.6691,-2.6691,-2.752,-2.8298,-2.8959,-2.982,-3.0581,-3.1157,-3.119,-3.119,-3.119,-3.119,-3.119,-3.119,-3.119,-3.119,-3.119,-3.119,-3.119,-3.119,-3.119,-3.119,-3.1157,-3.0581,-3.0243,-3.0057,-2.9448,-2.8738,-2.801,-2.7858,-2.7435,-2.6894,-2.6742,-2.6691,-2.6691,-2.6691,-2.6691,-2.6691,-2.6691,-2.6691,-2.6691,-2.6691,-2.6691,-2.6589,-2.6078,-2.5839,-2.5429,-2.414,-2.3693,-2.3403,-2.2655,-2.2467,-2.2531,-2.2764,-2.286,-2.2972,-2.3236,-2.33,-2.33,-2.33,-2.3236,-2.3014,-2.2453,-2.2429,-2.2457,-2.2388,-2.2612,-2.2712,-2.2494,-2.2908,-2.28,-2.1873,-2.108,-2.0608,-2.0517,-2.0044,-1.9719,-1.9536,-1.9378,-1.9289,-1.9297,-1.8689,-1.846,-1.8688,-1.8187,-1.8045,-1.8193,-1.8126,-1.8393,-1.4986,-1.5274,0.0,-1.7107,-1.6999,-1.7602,0.0,0.0,-2.1275,-2.3323,-2.3881,-2.4051,-2.422,-2.4847,-2.5406,-2.5575,-2.615,-2.6607,-2.6691,-2.6691,-2.6691,-2.6691,-2.6691,-2.6691,-2.6691,-2.8011,-2.8908,-2.8993,-3.0277,-3.1106,-3.119,-3.119,-3.119,-3.119,-3.119,-3.119,-3.119,-3.119,-3.119,-3.119,-3.119,-3.119,-3.119,-3.119,-3.119,-3.119,-3.1106,-3.0717,-3.0089,-3.0023,-2.9533,-2.8807,-2.8077,-2.7756,-2.7604,-2.6945,-2.6691,-2.6691,-2.6691,-2.6691,-2.6691,-2.6691,-2.6691,-2.6691,-2.6691,-2.6691,-2.6758,-2.7027,-2.6636,-2.5999,-2.5415,-2.4768,-2.4093,-2.3287,-2.3111,-2.3111,-2.3129,-2.338,-2.3599,-2.3649,-2.3631,-2.3631,-2.3631,-2.3392,-2.3069,-2.2712,-2.2915,-2.2984,-2.2699,-2.2935,-2.3129,-2.3111,-2.3153,-2.298,-2.2439,-2.2296,-2.2066,-2.165,-2.1565,-2.117,-2.0401,-2.034,-2.001,-1.9315,-1.9042,-1.8923,-1.8949,-1.8669,-1.888,-1.9563,-1.9271,-1.9047,-1.8403,0.0,0.0,0.0,-2.0517,-2.1089,-2.297,-2.3255,-2.3492,-2.4847,-2.5135,-2.527,-2.5709,-2.6031,-2.6234,0.0,-2.686,-2.7199,-2.6759,-2.708,-2.7182,-2.6742,-2.6691,-2.6691,-2.6691,-2.8096,-2.8993,-2.8993,-3.0381,-3.119,-3.119,-3.119,-3.119,-3.119,-3.119,-3.119,-3.119,-3.119,-3.119,-3.119,-3.119,-3.119,-3.119,-3.119,-3.119,-3.119,-3.119,-3.1021,-3.0734,-3.0734,-3.0311,-2.955,-2.8789,-2.8196,-2.7705,-2.6962,-2.6691,-2.6691,-2.6691,-2.6691,-2.6691,-2.6691,-2.6857,-2.7051,-2.7051,-2.7208,-2.7424,-2.7589,-2.7438,-2.6936,-2.5787,-2.526,-2.4741,-2.349,-2.32,-2.3247,-2.3448,-2.3599,-2.3764,-2.3947,-2.3996,-2.3996,-2.3996,-2.3858,-2.3671,-2.3335,-2.3242,-2.3153,-2.3009,-2.3271,-2.3566,-2.3764,-2.3599,-2.3484,-2.3492,-2.3065,-2.2711,-2.2511,-2.2069,-2.1647,-2.1272,-2.1253,-2.1088,-2.0766,-2.0516,-2.04,-2.04,-2.0128,-2.018,-2.0492,-2.034,-2.0458,-2.0416,0.0,0.0,-2.2127,-2.3156,-2.3763,-2.3951,-2.4423,-2.5015,-2.5744,-2.5728,-2.5761,-2.6302,-2.6387,0.0,-2.6387,-2.7181,-2.7536,-2.6793,-2.7317,-2.7536,-2.6793,-2.6691,-2.6691,-2.6691,-2.7892,-2.8773,-2.8976,-3.0194,-3.0987,-3.119,-3.119,-3.119,-3.119,-3.119,-3.119,-3.119,-3.119,-3.119,-3.119,-3.119,-3.119,-3.119,-3.119,-3.119,-3.119,-3.119,-3.119,-3.119,-3.119,-3.0886,-3.0328,-2.9583,-2.8958,-2.8314,-2.7368,-2.686,-2.6691,-2.6691,-2.6691,-2.6725,-2.6824,-2.7067,-2.7334,-2.7424,-2.7663,-2.7926,-2.8006,-2.8034,-2.774,-2.6471,-2.5965,-2.5464,-2.4133,-2.3632,-2.3544,-2.3785,-2.3837,-2.3907,-2.4161,-2.419,-2.419,-2.419,-2.419,-2.4113,-2.3858,-2.3621,-2.3437,-2.3357,-2.3639,-2.3927,-2.417,-2.3986,-2.3927,-2.418,-2.3676,-2.3318,-2.3318,-2.2776,-2.2363,-2.2143,-2.2125,-2.2033,-2.1794,-2.1616,-2.1516,-2.1516,-2.1319,-2.1321,-2.1554,-2.1455,-2.1814,0.0,0.0,-2.2395,-2.3173,-2.3915,-2.466,-2.5372,-2.5542,-2.5778,-2.6505,-2.6099,-2.5609,-2.5626,-2.5626,-2.5626,-2.5626,-2.6843,-2.7536,-2.6793,-2.7317,-2.7536,-2.6793,-2.6691,-2.6691,0.0,-2.7384,-2.8145,-2.8942,-2.9702,-3.0446,-3.1157,-3.119,-3.119,-3.119,-3.119,-3.119,-3.119,-3.119,-3.119,-3.119,-3.119,-3.119,-3.119,-3.119,-3.119,-3.119,-3.119,-3.119,-3.119,-3.119,-3.119,-3.1089,-3.0362,-3.0057,-2.9835,-2.8331,-2.73,-2.6691,-2.6691,-2.6691,-2.6758,-2.7162,-2.7303,-2.7363,-2.7751,-2.7897,-2.7968,-2.8303,-2.8376,-2.829,-2.7851,-2.716,-2.6361,-2.5538,-2.4749,-2.417,-2.418,-2.418,-2.418,-2.419,-2.419,-2.419,-2.419,-2.419,-2.4208,-2.418,-2.417,-2.4046,-2.3724,-2.3986,-2.418,-2.419,-2.419,-2.418,-2.419,-2.4171,-2.4153,-2.4153,-2.4135,-2.3786,-2.3006,-2.2951,-2.2593,-2.1812,-2.1794,-2.1785,-2.1785,-2.1777,-2.2172,-2.2923,-2.261,-2.2878,0.0,0.0,-2.3325,-2.456,-2.505,-2.5423,-2.6167,-2.6336,-2.6251,-2.6031,-2.5778,-2.5456,-2.4965,-2.488,-2.5033,-2.5524,-2.6843,-2.7705,-2.7452,-2.8517,-2.8838,-2.757,-2.7418,0.0,0.0,0.0,0.0,-2.8942,-2.9685,-3.0429,-3.1157,-3.119,-3.119,-3.119,-3.119,-3.119,-3.119,-3.119,-3.119,-3.119,-3.119,-3.119,-3.119,-3.119,-3.119,-3.119,-3.119,-3.119,-3.119,-3.119,-3.119,-3.1123,-3.0395,-3.0263,-3.0314,-2.8767,-2.8241,-2.8181,-2.7382,-2.7099,-2.7162,-2.7577,-2.7848,-2.8057,-2.8197,-2.8412,-2.8651,-2.8761,-2.8797,-2.8638,-2.7967,-2.7603,-2.7053,-2.5723,-2.5191,-2.4842,-2.4318,-2.419,-2.419,-2.419,-2.419,-2.419,-2.419,-2.419,-2.419,-2.419,-2.419,-2.4161,-2.4054,-2.4141,-2.419,-2.419,-2.419,-2.419,-2.419,-2.419,-2.419,-2.419,-2.419,-2.408,-2.3804,-2.3804,-2.3676,-2.341,-2.3391,-2.3391,-2.3391,-2.3391,-2.3529,-2.3786,-2.3681,-2.377,0.0,-2.3594,-2.4152,-2.5625,-2.5998,-2.6116,-2.659,-2.6488,-2.6167,-2.571,-2.4967,-2.4357,-2.4152,-2.3898,-2.4051,-2.5033,-2.6657,-2.7807,-2.7807,-2.9125,-2.9616,-2.8383,-2.823,-2.823,0.0,0.0,0.0,-2.933,-2.9837,-3.0429,-3.1157,-3.119,-3.119,-3.119,-3.119,-3.119,-3.119,-3.119,-3.119,-3.119,-3.119,-3.119,-3.119,-3.119,-3.119,-3.119,-3.119,-3.119,-3.119,-3.119,-3.1291,-3.1359,-3.0899,-3.0971,-3.1148,-2.9596,-2.9226,-2.9296,-2.7972,-2.7515,-2.7574,-2.7964,-2.8224,-2.8433,-2.8565,-2.8785,-2.9005,-2.9005,-2.9005,-2.8877,-2.8356,-2.8026,-2.7541,-2.6494,-2.5815,-2.5264,-2.475,-2.4392,-2.419,-2.419,-2.419,-2.419,-2.419,-2.419,-2.419,-2.419,-2.419,-2.419,-2.419,-2.419,-2.419,-2.419,-2.419,-2.419,-2.419,-2.419,-2.419,-2.419,-2.419,-2.419,-2.419,-2.419,-2.419,-2.419,-2.419,-2.419,-2.419,-2.419,-2.419,-2.419,-2.419,-2.419,-2.3291,-2.4051,-2.4948,-2.6352,-2.6691,-2.6691,-2.664,-2.6099,-2.5575,-2.544,-2.375,-2.2482,0.0,0.0,-2.2716,-2.4152,-2.6285,-2.7773,-2.7858,-2.9176,-2.9888,0.0,0.0,0.0,0.0,0.0,0.0,-3.0108,0.0,-3.0429,-3.1157,-3.119,-3.119,-3.119,-3.119,-3.119,-3.119,-3.119,-3.119,-3.119,-3.119,-3.119,-3.119,-3.119,-3.119,-3.119,-3.119,-3.121,-3.123,-3.123,-3.1468,-3.1843,-3.1843,-3.2109,-3.2357,-3.0849,-3.0264,-3.0047,-2.8539,-2.7975,-2.7982,-2.8329,-2.8433,-2.8496,-2.8875,-2.9005,-2.9005,-2.9005,-2.9005,-2.9005,-2.9005,-2.8429,-2.7842,-2.7816,-2.6605,-2.5448,-2.5411,-2.4768,-2.419,-2.419,-2.419,-2.419,-2.419,-2.419,-2.419,-2.419,-2.419,-2.419,-2.419,-2.419,-2.419,-2.419,-2.419,-2.419,-2.419,-2.419,-2.419,-2.419,-2.419,-2.419,-2.419,-2.419,-2.419,-2.419,-2.419,-2.419,-2.419,-2.419,-2.419,-2.419,-2.419,-2.419,-2.4695,-2.5575,-2.6234,-2.6623,-2.6691,-2.6556,-2.6015,-2.5744,-2.5119,-2.3479,-2.2685,-2.184,-2.0331,0.0,0.0,-2.2716,-2.5186,0.0,-2.8518,-2.9973,0.0,0.0,0.0,-2.982,-2.982,-2.982,0.0,0.0,-3.0412,-3.0429,-3.1157,-3.119,-3.119,-3.119,-3.119,-3.119,-3.119,-3.119,-3.119,-3.119,-3.119,-3.119,-3.119,-3.119,-3.119,-3.119,-3.119,-3.137,-3.1641,-3.1641,-3.1915,-3.2333,-3.2333,-3.2616,-3.2888,-3.1903,-3.1353,-3.0946,-2.9963,-2.9016,-2.8342,-2.8725,-2.8851,-2.8863,-2.8964,-2.9005,-2.9005,-2.9005,-2.9005,-2.9005,-2.9005,-2.8858,-2.8528,-2.7934,-2.7034,-2.6135,-2.5521,-2.4768,-2.419,-2.419,-2.419,-2.419,-2.419,-2.419,-2.419,-2.419,-2.419,-2.419,-2.419,-2.419,-2.419,-2.419,-2.419,-2.419,-2.419,-2.419,-2.419,-2.419,-2.419,-2.419,-2.419,-2.419,-2.419,-2.419,-2.419,-2.419,-2.419,-2.419,-2.419,-2.419,-2.419,-2.419,-2.5389,-2.6133,-2.6691,-2.6691,-2.6454,-2.6015,-2.5287,-2.4374,-2.3224,-2.162,-2.0517,0.0,0.0,0.0,0.0,0.0,0.0,0.0,-2.8264,-2.977,-3.0683,0.0,-3.0581,0.0,-3.0581,-3.0869,-3.1106,0.0,-3.0818,-3.0768,-3.1173,-3.119,-3.119,-3.119,-3.119,-3.119,-3.119,-3.119,-3.119,-3.119,-3.119,-3.119,-3.119,-3.119,-3.1291,-3.1451,0.0,-3.1714,-3.2109,-3.2109,-3.2383,-3.2809,-3.2809,-3.3075,-3.332,-3.216,-3.1584,-3.1231,-3.0081,-2.9217,-2.8694,-2.8929,-2.9005,-2.9005,-2.9005,-2.9005,-2.9005,-2.9005,-2.9005,-2.9005,-2.9005,-2.9005,-2.8895,-2.8429,-2.7714,-2.6906,-2.6098,-2.5301,-2.4622,-2.4263,-2.419,-2.419,-2.419,-2.419,-2.419,-2.419,-2.419,-2.419,-2.419,-2.419,-2.419,-2.419,-2.419,-2.419,-2.419,-2.419,-2.419,-2.419,-2.419,-2.419,-2.419,-2.419,-2.419,-2.419,-2.419,-2.419,-2.419,-2.419,-2.419,-2.419,-2.419,-2.419,-2.5711,-2.6201,-2.6691,-2.6691,-2.615,-2.5389,-2.4541,-2.2714,-2.0919,-1.9913,0.0,0.0,-1.7276,0.0,-1.9215,-2.0666,0.0,-2.588,-2.757,-2.9041,-3.026,-3.1089,-3.119,-3.119,-3.119,-3.1785,-3.1907,-3.1322,-3.1291,-3.1269,-3.121,-3.119,-3.119,-3.119,-3.119,-3.119,-3.119,-3.119,-3.119,-3.119,-3.119,-3.123,-3.1291,-3.1291,-3.1507,-3.188,-3.188,-3.2161,-3.2599,-3.2599,-3.2856,-3.3273,-3.3273,-3.3421,-3.3476,-3.2063,-3.1421,-3.1035,-2.9629,-2.9097,-2.9005,-2.9005,-2.9005,-2.9005,-2.9005,-2.9005,-2.9005,-2.9005,-2.9005,-2.9005,-2.9005,-2.9005,-2.9005,-2.9005,-2.8393,-2.7603,-2.6906,-2.6043,-2.5154,-2.4355,-2.419,-2.419,-2.419,-2.419,-2.419,-2.419,-2.419,-2.419,-2.419,-2.419,-2.419,-2.419,-2.419,-2.419,-2.419,-2.419,-2.419,-2.419,-2.419,-2.419,-2.419,-2.419,-2.419,-2.419,-2.419,-2.419,-2.419,-2.419,-2.419,-2.419,-2.419,-2.419,-2.6336,-2.659,-2.6691,-2.6691,-2.615,-2.5253,-2.39,-2.2358,0.0,0.0,0.0,-1.6367,-1.5264,-1.6667,0.0,-1.9147,0.0,0.0,0.0,0.0,-2.9687,0.0,0.0,0.0,0.0,0.0,0.0,0.0,0.0,-3.1547,-3.121,-3.119,-3.119,-3.119,-3.119,-3.119,-3.119,-3.119,-3.119,-3.119,-3.119,-3.1372,-3.1696,-3.1696,-3.195,-3.2384,-3.2384,0.0,-3.3075,-3.3075,-3.3317,-3.3694,-3.3694,-3.3331,-3.2766,-3.2491,-3.1549,-3.0375,-3.0099,-2.9555,-2.9005,-2.9005,-2.9005,-2.9005,-2.9005,-2.9005,-2.9005,-2.9005,-2.9005,-2.9005,-2.9005,-2.9005,-2.9005,-2.9005,-2.8393,-2.775,-2.7622,-2.6439,-2.5154,-2.4355,-2.419,-2.419,-2.419,-2.419,-2.419,-2.419,-2.419,-2.419,-2.419,-2.419,-2.419,-2.419,-2.419,-2.419,-2.419,-2.419,-2.419,-2.419,-2.419,-2.419,-2.419,-2.419,-2.419,-2.419,-2.419,-2.419,-2.419,-2.419,-2.419,-2.419,-2.419,-2.419,-2.6488,-2.6691,-2.6691,-2.6691,-2.5862,-2.4541,-2.268,0.0,0.0,0.0,0.0,-1.4768,-1.4065,0.0,0.0,0.0,0.0,0.0,0.0,0.0,0.0,0.0,0.0,0.0,0.0,0.0,0.0,0.0,0.0,-3.2476,-3.1913,-3.164,-3.1411,-3.121,-3.119,-3.119,-3.119,-3.1411,-3.1411,-3.121,-3.1657,-3.1842,-3.1825,-3.2039,-3.2416,-3.2856,-3.2856,-3.3105,-3.3508,-3.3508,-3.3638,-3.3807,-3.3807,-3.3568,-3.3183,-3.2748,-3.1861,-3.076,-3.0356,-2.9666,-2.9005,-2.9005,-2.9005,-2.9005,-2.9005,-2.9005,-2.9005,-2.9005,-2.9005,-2.9005,-2.9005,-2.9005,-2.9005,-2.9005,-2.8393,-2.7798,-2.7798,-2.6531,-2.5283,-2.4897,-2.4493,-2.419,-2.419,-2.419,-2.419,-2.419,-2.419,-2.419,-2.419,-2.4294,-2.4321,-2.4209,-2.419,-2.419,-2.419,-2.419,-2.419,-2.419,-2.419,-2.419,-2.419,-2.4303,-2.4312,-2.4199,-2.4303,-2.4303,-2.419,-2.419,-2.419,-2.419,-2.419,-2.419,-2.6302,-2.6573,-2.6691,-2.6691,-2.5591,-2.3915,-2.1698,-1.9435,0.0,0.0,0.0,-1.3396,-1.3396,0.0,0.0,0.0,0.0,0.0,0.0,0.0,0.0,0.0,0.0,0.0,0.0,0.0,0.0,0.0,0.0,0.0,-3.2384,-3.1986,-3.166,-3.1332,-3.1332,-3.137,-3.1485,-3.1788,-3.1788,-3.1504,-3.2161,-3.2349,-3.2109,-3.2483,-3.2905,-3.3332,-3.3332,-3.3508,-3.3807,-3.3807,-3.3807,-3.3807,-3.3807,-3.3697,-3.3458,-3.2651,-3.1825,-3.1017,-3.0228,-2.9537,-2.9005,-2.9005,-2.9005,-2.9005,-2.9005,-2.9005,-2.9005,-2.9005,-2.9005,-2.9005,-2.9005,-2.9005,-2.9005,-2.9005,-2.851,-2.8007,-2.7842,-2.6806,-2.5815,-2.5466,-2.4897,-2.4411,-2.4284,-2.4257,-2.4275,-2.433,-2.4339,-2.4339,-2.4339,-2.4461,-2.4503,-2.4358,-2.4284,-2.4256,-2.4199,-2.4247,-2.4257,-2.4257,-2.4303,-2.4339,-2.4339,-2.4478,-2.4486,-2.4321,-2.4435,-2.4409,-2.4257,-2.4218,-2.419,-2.419,-2.419,-2.419,-2.5677,-2.6184,-2.6691,-2.6691,-2.5591,-2.3915,-2.1698,0.0,0.0,0.0,-1.3904,-1.3396,-1.3396,0.0,0.0,0.0,0.0,0.0,0.0,0.0,0.0,0.0,0.0,0.0,0.0,0.0,0.0,0.0,0.0,0.0,-3.1933,-3.1808,-3.1789,-3.1734,-3.1734,-3.195,-3.2367,-3.2417,-3.2417,-3.2384,-3.2467,-3.2697,-3.3075,-3.3124,-3.3361,-3.3734,-3.3734,-3.378,0.0,-3.3807,-3.3807,-3.3807,-3.3807,-3.3348,-3.2601,-3.1806,-3.0999,-3.021,-2.939,-2.906,-2.9005,-2.9005,-2.9005,-2.9005,-2.9005,-2.9005,-2.9005,-2.9005,-2.9005,-2.9005,-2.9005,-2.9005,-2.9005,-2.9005,-2.895,-2.8693,-2.7952,-2.7677,-2.7155,-2.5668,-2.5338,-2.5122,-2.4565,-2.4469,-2.4518,-2.4716,-2.4746,-2.4746,-2.4746,-2.476,-2.4768,-2.4746,-2.4575,-2.4401,-2.4209,-2.4366,-2.4469,-2.4469,-2.4639,-2.4746,-2.4746,-2.476,-2.4768,-2.4746,-2.4575,-2.4495,-2.4469,-2.4284,-2.419,-2.419,-2.419,-2.419,-2.5575,-2.6297,-2.6643,-2.6399,-2.5725,-2.4259,-2.1039,0.0,0.0,-1.453,-1.3658,-1.3396,-1.3396,-1.3642,-1.4319,0.0,-1.6536,0.0,0.0,0.0,0.0,0.0,0.0,0.0,0.0,0.0,0.0,0.0,0.0,0.0,-3.2679,-3.2647,-3.2516,-3.223,-3.2213,-3.2316,-3.2501,-3.2777,-3.2777,-3.2501,-3.3027,-3.324,-3.3214,-3.3447,-3.3652,-3.3807,-3.3807,-3.3807,0.0,-3.3807,-3.3807,-3.3807,-3.3807,-3.3605,-3.322,-3.243,-3.1604,-3.0797,-3.0008,-2.9409,-2.9005,-2.9005,-2.9005,-2.9005,-2.9005,-2.9005,-2.9005,-2.9005,-2.9005,-2.9005,-2.9005,-2.9005,-2.9005,-2.9005,-2.9005,-2.8913,-2.8583,-2.8136,-2.7511,-2.6503,-2.5921,-2.5383,-2.477,-2.4678,-2.4708,-2.479,-2.4804,-2.4804,-2.4804,-2.4864,-2.4884,-2.4811,-2.4731,-2.4647,-2.4578,-2.4631,-2.4678,-2.4678,-2.476,-2.4804,-2.4804,-2.4871,-2.4877,-2.4804,-2.4802,-2.47,-2.4503,-2.4545,-2.4503,-2.4384,-2.4503,-2.4551,-2.476,-2.5768,-2.6274,-2.5993,-2.5343,-2.3908,0.0,0.0,-1.7198,-1.4205,-1.3564,-1.3527,-1.3462,-1.3453,-1.3897,0.0,-1.5709,-1.7,0.0,0.0,0.0,0.0,0.0,0.0,0.0,0.0,0.0,0.0,0.0,0.0,-3.339,-3.3394,-3.3166,-3.2713,-3.2697,-3.2761,-3.2887,-3.3211,-3.3211,-3.2887,-3.3504,-3.3652,-3.3375,-3.368,-3.3807,-3.3807,-3.3807,-3.3807,0.0,-3.3807,-3.3807,-3.3807,-3.3807,-3.3807,-3.3697,-3.2894,-3.21,-3.1286,-3.0485,-2.9666,-2.9005,-2.9005,-2.9005,-2.9005,-2.9005,-2.9005,-2.9005,-2.9005,-2.9005,-2.9005,-2.9005,-2.9005,-2.9005,-2.9005,-2.9055,-2.9123,-2.9123,-2.8719,-2.8093,-2.7177,-2.654,-2.5868,-2.5017,-2.4862,-2.4883,-2.4929,-2.4955,-2.4955,-2.4955,-2.5024,-2.5047,-2.4949,-2.4955,-2.4915,-2.4811,-2.4835,-2.4862,-2.4862,-2.491,-2.4955,-2.4955,-2.503,-2.5041,-2.4942,-2.4974,-2.4891,-2.4659,-2.4741,-2.4731,-2.4583,-2.4738,-2.4804,-2.2905,-2.4305,-2.5517,-2.5504,-2.4305,-2.2523,0.0,-1.8513,-1.6677,-1.4125,-1.3768,-1.3824,-1.3623,-1.3609,-1.3914,-1.4845,-1.596,-1.7654,0.0,0.0,0.0,0.0,0.0,0.0,0.0,0.0,0.0,0.0,0.0,0.0,-3.3788,-3.3788,-3.3606,-3.3214,-3.3199,-3.3375,-3.3775,-3.3775,-3.3775,-3.3793,-3.3807,-3.3807,-3.3788,-3.3807,-3.3807,-3.3807,-3.3807,-3.3807,0.0,-3.3807,-3.3807,-3.3807,-3.3807,-3.3807,-3.3697,-3.2894,-3.21,-3.1286,-3.0485,-2.9666,-2.9005,-2.9005,-2.9005,-2.9005,-2.9005,-2.9005,-2.9005,-2.9005,-2.9005,-2.9005,-2.9005,-2.9005,-2.9005,-2.9005,-2.9192,-2.9402,-2.9402,-2.9542,-2.9187,-2.7517,-2.7196,-2.6711,-2.526,-2.5004,-2.5071,-2.5264,-2.5284,-2.5284,-2.5284,-2.5303,-2.5303,-2.5284,-2.5284,-2.5154,-2.4832,-2.493,-2.5004,-2.5004,-2.5173,-2.5284,-2.5284,-2.5303,-2.5303,-2.5284,-2.5099,-2.5004,-2.4985,-2.485,-2.4797,-2.4797,-2.4797,-2.4804,-2.0817,-2.197,-2.2777,-2.1943,-2.197,-2.1433,-1.8461,-1.7738,-1.6984,-1.4513,-1.3955,-1.3885,-1.3827,-1.3813,-1.4448,-1.639,-1.7011,0.0,0.0,0.0,0.0,0.0,0.0,0.0,0.0,0.0,0.0,0.0,0.0,0.0,-3.3807,-3.3807,-3.3734,-3.3606,-3.3606,-3.368,-3.3807,-3.3807,-3.3807,-3.3807,-3.3807,-3.3807,-3.3807,-3.3807,-3.3807,-3.3807,-3.3807,-3.3807,-3.3807,-3.3807,-3.3807,-3.3807,-3.3807,-3.3807,-3.3642,-3.2284,-3.1623,-3.1213,-2.9861,-2.9207,-2.9005,-2.9005,-2.9005,-2.9005,-2.9005,-2.9005,-2.9005,-2.9005,-2.9005,-2.9033,-2.9243,-2.9267,-2.9301,-2.9446,-2.9533,-2.9607,-2.9607,-2.9652,-2.9427,-2.848,-2.8281,-2.7825,-2.6356,-2.6096,-2.5915,-2.538,-2.5308,-2.5308,-2.5308,-2.5308,-2.5308,-2.5308,-2.5308,-2.5253,-2.5149,-2.5182,-2.5208,-2.5208,-2.5264,-2.5308,-2.5308,-2.5308,-2.5308,-2.5308,-2.5248,-2.5146,-2.501,-2.5096,-2.5138,-2.5138,-2.5138,-2.5138,0.0,-1.9822,-2.0688,-1.9928,-2.0067,-1.9711,-1.7043,-1.673,-1.6391,-1.4196,-1.3946,-1.4092,-1.4024,-1.4011,-1.4538,-1.6104,0.0,0.0,0.0,0.0,0.0,0.0,0.0,0.0,0.0,0.0,0.0,0.0,0.0,0.0,-3.3807,-3.3807,-3.3807,-3.3807,-3.3807,-3.3807,-3.3807,-3.3807,-3.3807,-3.3807,-3.3807,-3.3807,-3.3807,-3.3807,-3.3807,-3.3807,-3.3807,-3.3807,0.0,-3.3807,-3.3807,-3.3807,-3.3807,-3.3807,-3.3678,-3.2669,-3.21,-3.1659,-3.0356,-2.9766,-2.9544,-2.9248,-2.9195,-2.9262,-2.9262,-2.9206,-2.9156,-2.9156,-2.9214,-2.9304,-2.9474,-2.9513,-2.9533,-2.967,-2.9765,-2.9813,-2.9813,-2.9896,-2.976,-2.9046,-2.8664,-2.8178,-2.7259,-2.6544,-2.6038,-2.5827,-2.5519,-2.5308,-2.5308,-2.5308,-2.5308,-2.5308,-2.5308,-2.5308,-2.5308,-2.5308,-2.5308,-2.5308,-2.5308,-2.5308,-2.5308,-2.5308,-2.5308,-2.5308,-2.5308,-2.5248,-2.5111,-2.5248,-2.5308,-2.5308,-2.5308,-2.5308,0.0,-1.7649,-1.8856,-1.8801,-1.8262,-1.7344,-1.5808,-1.5496,0.0,-1.3292,-1.3719,-1.4392,-1.4318,-1.4304,-1.4446,-1.4855,0.0,0.0,0.0,0.0,0.0,0.0,0.0,0.0,0.0,0.0,0.0,0.0,0.0,0.0,-3.3807,-3.3807,-3.3807,-3.3807,-3.3807,-3.3807,-3.3807,-3.3807,-3.3807,-3.3807,-3.3807,-3.3807,-3.3807,-3.3807,-3.3807,0.0,-3.3807,-3.3807,-3.3807,-3.3807,-3.3807,-3.3807,-3.3807,-3.3807,-3.3788,-3.3733,-3.3214,-3.2438,-3.1624,-3.0997,-3.041,-2.9656,-2.9561,-2.9705,-2.9705,-2.957,-2.9414,-2.9414,-2.957,-2.9705,-2.9722,-2.9731,-2.9731,-2.9748,-2.9885,-3.0021,-3.0021,-3.0215,-3.0154,-2.9357,-2.8588,-2.8068,-2.8011,-2.6601,-2.5731,-2.6486,-2.5865,-2.5308,-2.5308,-2.5308,-2.5308,-2.5308,-2.5308,-2.5308,-2.5308,-2.5308,-2.5308,-2.5308,-2.5308,-2.5308,-2.5308,-2.5308,-2.5308,-2.5308,-2.5308,-2.5308,-2.5308,-2.5308,-2.5308,-2.5308,-2.5308,-2.5308,-1.2159,0.0,-1.4566,-1.3954,-1.4101,-1.4174,0.0,-1.3422,-1.3563,0.0,0.0,-1.3943,-1.5136,-1.5349,-1.616,0.0,0.0,0.0,0.0,0.0,0.0,0.0,0.0,0.0,0.0,0.0,0.0,0.0,0.0,-3.3807,-3.3807,-3.3807,-3.3807,-3.3807,-3.3807,-3.3807,-3.3807,-3.3807,-3.3807,-3.3807,-3.3807,-3.3807,-3.3807,-3.3807,-3.3807,-3.3807,-3.3807,-3.3807,-3.3807,-3.3807,-3.3807,-3.3807,-3.3807,-3.3807,-3.3733,-3.3109,-3.2496,-3.1878,-3.1062,-3.0387,-2.9879,-2.9691,-2.9661,-2.9705,-2.9705,-2.9661,-2.9635,-2.9635,-2.9661,-2.9748,-2.9893,-2.9931,-2.9969,-3.0195,-3.028,-3.0305,-3.0305,-3.0355,-3.0346,-3.0135,-2.9942,-2.9602,-2.8934,-2.7972,-2.7121,-2.6678,-2.5865,-2.5308,-2.5308,-2.5308,-2.5308,-2.5308,-2.5308,-2.5308,-2.5308,-2.5308,-2.5308,-2.5308,-2.5308,-2.5308,-2.5308,-2.5308,-2.5308,-2.5308,-2.5308,-2.5308,-2.5308,-2.5308,-2.5308,-2.5308,-2.5308,-2.5308,-1.0351,-1.2338,-1.4309,-1.3862,-1.4352,-1.4738,-1.3936,0.0,0.0,0.0,0.0,0.0,-1.5478,0.0,0.0,0.0,0.0,0.0,0.0,0.0,0.0,0.0,0.0,0.0,0.0,0.0,0.0,0.0,0.0,-3.3807,-3.3807,-3.3807,-3.3807,-3.3807,-3.3807,-3.3807,-3.3807,-3.3807,-3.3807,-3.3807,-3.3807,-3.3807,-3.3807,-3.3807,-3.3807,-3.3807,-3.3807,-3.3807,-3.3802,-3.3923,-3.3986,-3.3999,-3.416,-3.422,-3.4164,-3.3718,-3.3374,-3.2962,-3.1744,-3.0687,-2.9853,-2.9992,-3.0022,-3.0022,-3.0022,-3.0022,-3.0,-2.9869,-2.9927,-3.0044,-3.0162,-3.0189,-3.0215,-3.0361,-3.0404,-3.0404,-3.0404,-3.0404,-3.0404,-3.0404,-3.0077,-2.9775,-2.9717,-2.8698,-2.7741,-2.7274,-2.6447,-2.5904,-2.5904,-2.5558,-2.5442,-2.5846,-2.5904,-2.5731,-2.5327,-2.5673,-2.5731,-2.5327,-2.5308,-2.5308,-2.5308,-2.5308,-2.5308,-2.5308,-2.5308,-2.5308,-2.5308,-2.5308,-2.5308,-2.5308,-2.5308,-2.5308,-0.9992,-1.2908,-1.5729,-1.5123,-1.5851,-1.6475,-1.5551,0.0,0.0,0.0,0.0,0.0,0.0,0.0,0.0,0.0,0.0,0.0,0.0,0.0,0.0,0.0,0.0,0.0,0.0,0.0,0.0,0.0,0.0,-3.3807,-3.3807,-3.3807,-3.3807,-3.3807,-3.3807,-3.3807,-3.3807,-3.3807,-3.3807,-3.3807,-3.3807,-3.3807,-3.3807,-3.3807,-3.3815,-3.385,0.0,0.0,-3.3954,-3.4183,-3.4288,-3.4292,-3.4582,-3.4694,-3.4694,-3.4694,-3.4563,-3.413,-3.2485,-3.1181,-3.0287,-3.0375,-3.0404,-3.0404,-3.0404,-3.0404,-3.0355,-3.0129,-3.0215,-3.0404,-3.0404,-3.0404,-3.0404,-3.0404,-3.0404,-3.0404,-3.0404,-3.0404,-3.0404,-3.0404,-2.9794,-2.9525,-3.0269,-2.9102,-2.8088,-2.8088,-2.7351,-2.6794,-2.6794,-2.6154,-2.5981,-2.6717,-2.6794,-2.6505,-2.5769,-2.6365,-2.6486,-2.5731,-2.5442,-2.5308,-2.5308,-2.5308,-2.5308,-2.5308,-2.5308,-2.5365,-2.55,-2.5365,-2.5442,-2.5692,-2.5558,-2.5577,-1.1365,-1.4163,-1.59,-1.2489,-1.3778,-1.5496,0.0,0.0,0.0,0.0,0.0,0.0,0.0,0.0,0.0,0.0,0.0,0.0,0.0,0.0,0.0,0.0,0.0,0.0,0.0,0.0,0.0,0.0,0.0,-3.3807,-3.3807,-3.3807,-3.3807,-3.3807,-3.3807,-3.3807,-3.3807,-3.3807,-3.3807,-3.3807,-3.3807,-3.3807,-3.3807,-3.3807,-3.391,-3.4147,0.0,-3.4288,-3.4569,-3.4612,-3.4614,-3.4632,-3.4674,-3.4694,-3.4694,-3.4694,-3.3913,-3.2635,-3.1191,-3.1015,-3.1315,-3.0629,-3.0404,-3.0404,-3.0404,-3.0404,-3.0398,-3.0355,-3.0367,-3.0404,-3.0404,-3.0404,-3.0404,-3.0404,-3.0404,-3.0404,-3.0404,-3.0404,-3.0404,-3.0404,-3.0288,-3.0231,-3.0385,-2.9563,-2.8915,-2.8915,-2.8222,-2.7698,-2.7698,-2.7582,-2.7544,-2.7678,-2.7698,-2.764,-2.7505,-2.7621,-2.764,-2.7505,-2.6115,-2.5308,-2.5308,-2.5308,-2.5308,-2.5308,-2.5308,-2.5654,-2.6409,-2.5654,-2.6058,-2.7486,-2.6736,-2.6794,-1.0598,-1.3154,-1.5166,-1.3314,-1.5949,-1.8673,0.0,0.0,0.0,0.0,0.0,0.0,0.0,0.0,0.0,0.0,0.0,0.0,0.0,0.0,0.0,0.0,0.0,0.0,0.0,0.0,0.0,0.0,0.0,0.0,-3.3807,-3.3807,-3.3807,-3.3807,-3.3807,-3.3863,-3.4006,-3.4006,-3.4006,-3.4006,-3.4006,-3.4105,-3.4291,-3.4291,-3.4353,-3.4456,0.0,-3.4551,-3.4704,-3.486,-3.4917,-3.4935,-3.5079,-3.513,-3.5073,-3.4596,-3.3697,-3.256,-3.1475,-3.1058,-3.0923,-3.0538,-3.0404,-3.0404,-3.0404,-3.0404,-3.0404,-3.0404,-3.0404,-3.0404,-3.0404,-3.0404,-3.0404,-3.0404,-3.0404,-3.0404,-3.0404,-3.0404,-3.0404,-3.0404,-3.0404,-3.0404,-3.0404,-3.0077,-2.964,-2.9165,-2.88,-2.8549,-2.8549,-2.8165,-2.8068,-2.8492,-2.8549,-2.8376,-2.7934,-2.8299,-2.8357,-2.7934,-2.714,-2.6697,-2.6697,-2.6697,-2.6697,-2.6697,-2.6697,-2.6909,-2.7294,-2.6909,-2.7121,-2.7895,-2.7486,-2.7525,-1.0157,-1.2333,-1.4548,-1.4732,0.0,0.0,0.0,0.0,0.0,0.0,0.0,0.0,0.0,0.0,0.0,0.0,0.0,0.0,0.0,0.0,0.0,0.0,0.0,0.0,0.0,0.0,0.0,0.0,0.0,0.0,-3.3788,-3.3623,-3.3626,-3.3889,-3.3889,-3.4037,-3.4304,-3.4323,-3.4323,-3.4323,-3.4323,-3.4445,-3.4694,-3.4694,-3.4724,-3.4784,-3.4784,-3.4841,-3.4908,-3.5105,-3.5198,-3.5215,-3.5424,-3.55,-3.5365,-3.4295,-3.3603,-3.3026,-3.1814,-3.1096,-3.0673,-3.0462,-3.0404,-3.0404,-3.0404,-3.0404,-3.0404,-3.0404,-3.0404,-3.0404,-3.0404,-3.0404,-3.0404,-3.0404,-3.0404,-3.0404,-3.0404,-3.0404,-3.0404,-3.0404,-3.0404,-3.0404,-3.0404,-3.0404,-3.0173,-2.9506,-2.939,-2.939,-2.939,-2.8871,-2.8717,-2.9333,-2.939,-2.914,-2.8544,-2.9044,-2.9157,-2.8559,-2.8296,-2.8107,-2.7915,-2.7895,-2.7895,-2.7895,-2.7895,-2.7992,-2.8184,-2.7992,-2.8102,-2.8486,-2.828,-2.8299,-1.153,-1.3196,-1.4677,-1.5435,0.0,0.0,0.0,0.0,0.0,0.0,0.0,0.0,0.0,0.0,0.0,0.0,0.0,0.0,0.0,0.0,0.0,0.0,0.0,0.0,0.0,0.0,0.0,0.0,0.0,0.0,-3.3752,-3.3091,-3.3141,-3.4134,-3.4183,-3.4334,-3.4663,-3.4663,-3.4663,-3.4663,-3.4663,-3.4674,-3.4694,-3.4694,-3.4841,-3.5079,-3.5079,-3.5215,-3.5439,-3.5453,-3.546,-3.546,-3.5493,-3.55,-3.5308,-3.3603,-3.3468,-3.3763,-3.1327,-3.0981,-3.1468,-3.0654,-3.0404,-3.0404,-3.0404,-3.0404,-3.0404,-3.0404,-3.0404,-3.0404,-3.0404,-3.0404,-3.0404,-3.0404,-3.0404,-3.0404,-3.0404,-3.0404,-3.0404,-3.0404,-3.0404,-3.0404,-3.0404,-3.0404,-3.0385,-3.0327,-3.0308,-3.0308,-3.0308,-3.0269,-3.0231,-3.0308,-3.0308,-3.0288,-3.0231,-3.0269,-3.0312,-3.0306,-2.951,-2.8684,-2.7934,-2.7895,-2.7895,-2.7895,-2.7895,-2.828,-2.9011,-2.8261,-2.8698,-3.0192,-2.939,-2.9448,-1.0513,-1.2572,-1.475,-1.5509,0.0,0.0,0.0,0.0,0.0,0.0,0.0,0.0,0.0,0.0,0.0,0.0,0.0,0.0,0.0,0.0,0.0,0.0,0.0,0.0,0.0,0.0,0.0,0.0,0.0,0.0,-3.2717,-3.2448,-3.2465,-3.287,-3.3417,-3.3843,-3.4147,-3.4688,-3.5025,-3.5198,-3.5016,-3.5044,-3.5198,-3.5198,-3.5246,-3.5354,-3.5354,-3.5417,-3.55,-3.55,-3.55,-3.55,-3.55,-3.5173,-3.4545,-3.3333,-3.2795,-3.2429,-3.0923,-3.0615,-3.0846,-3.0519,-3.0404,-3.0404,-3.0404,-3.0404,-3.0404,-3.0404,-3.0404,-3.0404,-3.0404,-3.0404,-3.0404,-3.0404,-3.0404,-3.0404,-3.0404,-3.0404,-3.0404,-3.0404,-3.0404,-3.0404,-3.0404,-3.0404,-3.0404,-3.0404,-3.0404,-3.0404,-3.0404,-3.0404,-3.0404,-3.0404,-3.043,-3.0467,-3.0467,-3.0494,-3.0533,-3.0554,-3.0189,-2.9848,-2.959,-2.9575,-2.9575,-2.9575,-2.9575,-2.973,-3.0036,-2.973,-2.9901,-3.0513,-3.0138,-3.0162,-1.0567,-1.2408,-1.4568,0.0,0.0,0.0,0.0,0.0,0.0,0.0,0.0,0.0,0.0,0.0,0.0,0.0,0.0,0.0,0.0,0.0,0.0,0.0,0.0,0.0,0.0,0.0,0.0,0.0,0.0,0.0,0.0,-3.1855,-3.1874,-3.2221,-3.2798,-3.3245,-3.3502,-3.4114,-3.4507,-3.4673,-3.4488,-3.4795,-3.55,-3.55,-3.5346,-3.5084,-3.5084,-3.4923,-3.4673,-3.4673,-3.4846,-3.5064,-3.4788,-3.4487,-3.4071,-3.2929,-3.2179,-3.1583,-3.0692,-3.0404,-3.0404,-3.0404,-3.0404,-3.0404,-3.0404,-3.0404,-3.0404,-3.0404,-3.0404,-3.0404,-3.0404,-3.0404,-3.0404,-3.0404,-3.0404,-3.0404,-3.0404,-3.0404,-3.0416,-3.0428,-3.0439,-3.0436,-3.0457,-3.0462,-3.0462,-3.0462,-3.0462,-3.0462,-3.0462,-3.0462,-3.0462,-3.0462,-3.0503,-3.0533,-3.0533,-3.0571,-3.0614,-3.0638,-3.0594,-3.0575,-3.0603,-3.0603,-3.0603,-3.0603,-3.0603,-3.0603,-3.0603,-3.0603,-3.0603,-3.0603,-3.0544,-3.0567,-1.216,-1.2956,0.0,0.0,0.0,0.0,0.0,0.0,0.0,0.0,0.0,0.0,0.0,0.0,0.0,0.0,0.0,0.0,0.0,0.0,0.0,0.0,0.0,0.0,0.0,0.0,0.0,0.0,0.0,0.0,0.0,-3.1327,-3.1388,-3.2449,-3.2496,-3.2615,-3.2891,-3.2891,-3.2891,-3.2891,-3.2891,-3.3795,-3.5481,-3.5481,-3.5007,-3.4186,-3.4186,-3.3705,-3.2891,-3.2891,-3.341,-3.4109,-3.3237,-3.341,-3.3975,-3.2314,-3.1698,-3.1564,-3.0692,-3.0404,-3.0404,-3.0404,-3.0404,-3.0404,-3.0404,-3.0404,-3.0404,-3.0404,-3.0404,-3.0404,-3.0404,-3.0404,-3.041,-3.0404,-3.0404,-3.0404,-3.041,-3.041,-3.0417,-3.0495,-3.0503,-3.0517,-3.0591,-3.0603,-3.0603,-3.0603,-3.0603,-3.0603,-3.0603,-3.0603,-3.0603,-3.0603,-3.0606,-3.0606,-3.0606,-3.0606,-3.0638,-3.0693,-3.0696,-3.0675,-3.0609,-3.0606,-3.0606,-3.0606,-3.0606,-3.0606,-3.0606,-3.0606,-3.0606,-3.0606,-3.0606,-3.0606,-1.1577,0.0,0.0,0.0,0.0,0.0,0.0,0.0,0.0,0.0,0.0,0.0,0.0,0.0,0.0,0.0,0.0,0.0,0.0,0.0,0.0,0.0,0.0,0.0,0.0,0.0,0.0,0.0,0.0,0.0,0.0,-3.0679,-3.0694,-3.1015,-3.1616,-3.1988,-3.2064,-3.2622,-3.2891,-3.2891,-3.2891,-3.3179,-3.368,-3.368,-3.3526,-3.3295,-3.3295,-3.3141,-3.2891,-3.2891,-3.3045,-3.3256,-3.3006,-3.2718,-3.2372,-3.1891,-3.1308,-3.075,-3.05,-3.0404,-3.0404,-3.0404,-3.0404,-3.0404,-3.0404,-3.0404,-3.0404,-3.0404,-3.0425,-3.0463,-3.0463,-3.0507,-3.0525,-3.0482,-3.0463,-3.0486,-3.0525,-3.0541,-3.0552,-3.0561,-3.0568,-3.0575,-3.06,-3.0603,-3.0603,-3.0603,-3.0603,-3.0603,-3.0603,-3.0603,-3.0603,-3.0603,-3.0631,-3.0675,-3.0675,-3.076,-3.0813,-3.0837,-3.0838,-3.0836,-3.0811,-3.081,-3.081,-3.081,-3.081,-3.081,-3.081,-3.081,-3.081,-3.081,-3.0708,-3.0711,-1.3103,0.0,0.0,0.0,0.0,0.0,0.0,0.0,0.0,0.0,0.0,0.0,0.0,0.0,0.0,0.0,0.0,0.0,0.0,0.0,0.0,0.0,0.0,0.0,0.0,0.0,0.0,0.0,0.0,0.0,0.0,-3.0404,-3.0404,-3.0404,-3.0904,-3.1173,-3.1173,-3.1654,-3.191,-3.191,-3.191,-3.191,-3.1929,-3.2602,-3.2737,-3.241,-3.2064,-3.191,-3.191,-3.191,-3.2102,-3.2391,-3.2045,-3.1814,-3.166,-3.1308,-3.0846,-3.0404,-3.0404,-3.0404,-3.0404,-3.0404,-3.0404,-3.0396,-3.0439,-3.0436,-3.0446,-3.0463,-3.0511,-3.0545,-3.0545,-3.0568,-3.0591,-3.0559,-3.0545,-3.054,-3.0594,-3.0603,-3.0614,-3.0624,-3.0648,-3.0655,-3.0716,-3.0718,-3.0718,-3.0718,-3.0718,-3.0718,-3.0718,-3.0718,-3.0718,-3.0718,-3.0761,-3.0771,-3.0771,-3.0858,-3.0898,-3.0898,-3.0898,-3.0898,-3.0898,-3.0898,-3.0898,-3.0898,-3.0898,-3.0898,-3.0898,-3.0898,-3.0898,-3.0898,-3.0816,-3.0816,0.0,0.0,0.0,0.0,0.0,0.0,0.0,0.0,0.0,0.0,0.0,0.0,0.0,0.0,0.0,0.0,0.0,0.0,0.0,0.0,0.0,0.0,0.0,0.0,0.0,0.0,0.0,0.0,0.0,0.0,0.0,-3.0404,-3.0404,-3.0404,-3.0404,-3.0404,-3.0404,-3.0404,-3.0404,-3.0404,-3.0404,-3.0404,-3.0442,-3.1987,-3.2275,-3.1545,-3.0731,-3.0404,-3.0404,-3.0404,-3.0865,-3.1506,-3.0712,-3.0885,-3.1487,-3.0692,-3.0404,-3.0404,-3.0402,-3.0408,-3.0408,-3.0419,-3.0425,-3.0433,-3.0481,-3.0516,-3.0517,-3.0584,-3.0609,-3.0614,-3.0614,-3.062,-3.0625,-3.0625,-3.062,-3.0617,-3.0623,-3.0625,-3.0643,-3.0713,-3.072,-3.0767,-3.0879,-3.0898,-3.0898,-3.0898,-3.0898,-3.0898,-3.0898,-3.0898,-3.0898,-3.0898,-3.0898,-3.0898,-3.0898,-3.0898,-3.0898,-3.0898,-3.0898,-3.0898,-3.0898,-3.0898,-3.0898,-3.0898,-3.0898,-3.0898,-3.0898,-3.0898,-3.0898,-3.0898,-3.0898,-3.0898,0.0,0.0,0.0,0.0,0.0,0.0,0.0,0.0,0.0,0.0,0.0,0.0,0.0,0.0,0.0,0.0,0.0,0.0,0.0,0.0,0.0,0.0,0.0,0.0,0.0,0.0,0.0,0.0,0.0,0.0,-3.0404,-3.0404,-3.0404,-3.0404,-3.0404,-3.0404,-3.0404,-3.0404,-3.0404,-3.0404,-3.0404,-3.0404,-3.0404,-3.0769,-3.0846,-3.0673,-3.0481,-3.0404,-3.0404,-3.0404,-3.0519,-3.0654,-3.0462,-3.0519,-3.0654,-3.0462,-3.0404,-3.0402,-3.0462,-3.0477,-3.0495,-3.0541,-3.0567,-3.0551,-3.0571,-3.0578,-3.0581,-3.06,-3.0645,-3.068,-3.068,-3.0761,-3.0834,-3.0834,-3.0761,-3.071,-3.0811,-3.0834,-3.0836,-3.0858,-3.0858,-3.0878,-3.0898,-3.0898,-3.0898,-3.0898,-3.0898,-3.0898,-3.0898,-3.0898,-3.0898,-3.0898,-3.0898,-3.0898,-3.0898,-3.0898,-3.0898,-3.0898,-3.0898,-3.0898,-3.0898,-3.0898,-3.0898,-3.0898,-3.0898,-3.0898,-3.0898,-3.0898,-3.0898,-3.0898,-3.0898,-3.0898,0.0,0.0,0.0,0.0,0.0,0.0,0.0,0.0,0.0,0.0,0.0,0.0,0.0,0.0,0.0,0.0,0.0,0.0,0.0,0.0,0.0,0.0,0.0,0.0,0.0,0.0,0.0,0.0,0.0,-3.0404,-3.0404,-3.0404,-3.0404,-3.0404,-3.0404,-3.0404,-3.0404,-3.0404,-3.0404,-3.0404,-3.0404,-3.0404,-3.0404,-3.0404,-3.0404,-3.0404,-3.0404,-3.0404,-3.0404,-3.0404,-3.0404,-3.039,-3.0449,-3.0456,-3.0442,-3.0486,-3.0505,-3.0494,-3.0537,-3.0556,-3.0544,-3.0591,-3.0603,-3.0611,-3.0645,-3.0655,-3.0661,-3.0725,-3.0764,-3.0793,-3.0793,-3.0857,-3.0898,-3.0898,-3.0857,-3.0816,-3.0879,-3.0898,-3.0898,-3.0898,-3.0898,-3.0898,-3.0898,-3.0898,-3.0898,-3.0898,-3.0898,-3.0898,-3.0898,-3.0898,-3.0898,-3.0898,-3.0898,-3.0898,-3.0898,-3.0898,-3.0898,-3.0898,-3.0898,-3.0898,-3.0898,-3.0898,-3.0898,-3.0898,-3.0898,-3.0898,-3.0898,-3.0898,-3.0898,-3.0898,-3.0898,-3.0898,0.0,0.0,0.0,0.0,0.0,0.0,0.0,0.0,0.0,0.0,0.0,0.0,0.0,0.0,0.0,0.0,0.0,0.0,0.0,0.0,0.0,0.0,0.0,0.0,0.0,0.0,0.0,0.0,0.0,-3.0404,-3.0404,-3.0404,-3.0404,-3.0404,-3.0404,-3.0404,-3.0404,-3.0404,-3.0404,-3.0404,-3.0414,-3.0417,-3.0425,-3.0425,-3.0417,-3.0404,-3.0404,-3.0421,-3.0425,-3.0425,-3.0422,-3.0436,-3.0509,-3.0528,-3.0521,-3.0578,-3.0603,-3.0606,-3.062,-3.0625,-3.0625,-3.0638,-3.0641,-3.0652,-3.0714,-3.0723,-3.0767,-3.0878,-3.0898,-3.0898,-3.0898,-3.0898,-3.0898,-3.0898,-3.0898,-3.0898,-3.0898,-3.0898,-3.0898,-3.0898,-3.0898,-3.0898,-3.0898,-3.0898,-3.0898,-3.0898,-3.0898,-3.0898,-3.0898,-3.0898,-3.0898,-3.0898,-3.0898,-3.0898,-3.0898,-3.0898,-3.0898,-3.0898,-3.0898,-3.0898,-3.0898,-3.0898,-3.0898,-3.0898,-3.0898,-3.0898,-3.0898,-3.0898,-3.0898,-3.0898,-3.0898,-3.0898,0.0,0.0,0.0,0.0,0.0,0.0,0.0,0.0,0.0,0.0,0.0,0.0,0.0,0.0,0.0,0.0,0.0,0.0,0.0,0.0,0.0,0.0,0.0,0.0,0.0,0.0,0.0,0.0,-3.0404,-3.0404,-3.0404,-3.0404,-3.0404,-3.0404,-3.0404,-3.0404,-3.0404,-3.0404,-3.0404,-3.0404,-3.0457,-3.0528,-3.0571,-3.0571,-3.0511,-3.0404,-3.0404,-3.0419,-3.0495,-3.0495,-3.0513,-3.0571,-3.0584,-3.0587,-3.0591,-3.06,-3.0603,-3.0614,-3.0671,-3.0687,-3.0711,-3.0814,-3.0857,-3.0857,-3.0878,-3.0878,-3.0879,-3.0898,-3.0898,-3.0898,-3.0898,-3.0898,-3.0898,-3.0898,-3.0898,-3.0898,-3.0898,-3.0898,-3.0898,-3.0898,-3.0898,-3.0898,-3.0898,-3.0898,-3.0898,-3.0898,-3.0898,-3.0898,-3.0898,-3.0898,-3.0898,-3.0898,-3.0898,-3.0898,-3.0898,-3.0898,-3.0898,-3.0898,-3.0898,-3.0898,-3.0898,-3.0898,-3.0898,-3.0898,-3.0898,-3.0898,-3.0898,-3.0898,-3.0898,-3.0898,-3.0898,-3.0898,0.0,0.0,0.0,0.0,0.0,0.0,0.0,0.0,0.0,0.0,0.0,0.0,0.0,0.0,0.0,0.0,0.0,0.0,0.0,0.0,0.0,0.0,0.0,0.0,0.0,0.0,0.0,0.0,-3.0404,-3.0404,-3.0404,-3.0449,-3.0452,-3.0452,-3.0481,-3.0516,-3.0516,-3.0516,-3.0516,-3.0516,-3.0545,-3.0568,-3.0603,-3.0603,-3.0561,-3.0516,-3.0516,-3.0525,-3.0567,-3.0567,-3.0571,-3.0609,-3.065,-3.0663,-3.0667,-3.0731,-3.0778,-3.076,-3.0793,-3.0815,-3.0816,-3.0879,-3.0898,-3.0898,-3.0898,-3.0898,-3.0898,-3.0898,-3.0898,-3.0898,-3.0898,-3.0898,-3.0898,-3.0898,-3.0898,-3.0898,-3.0898,-3.0898,-3.0898,-3.0898,-3.0898,-3.0898,-3.0898,-3.0898,-3.0898,-3.0898,-3.0898,-3.0898,-3.0898,-3.0898,-3.0898,-3.0898,-3.0898,-3.0898,-3.0898,-3.0898,-3.0898,-3.0898,-3.0898,-3.0898,-3.0898,-3.0898,-3.0898,-3.0898,-3.0898,-3.0898,-3.0898,-3.0898,-3.0898,-3.0898,-3.0898,-3.0898,0.0,0.0,0.0,0.0,0.0,0.0,0.0,0.0,0.0,0.0,0.0,0.0,0.0,0.0,0.0,0.0,0.0,0.0,0.0,0.0,0.0,0.0,0.0,0.0,0.0,0.0,0.0,0.0,-2.9823,-2.9906,-3.0104,-3.018,-3.0308,-3.0521,-3.0571,-3.0603,-3.0603,-3.0603,-3.0614,-3.0633,-3.0633,-3.0641,-3.0676,-3.0676,-3.0676,-3.0674,-3.062,-3.0614,-3.0633,-3.0633,-3.0643,-3.0681,-3.0737,-3.0746,-3.0768,-3.0858,-3.0898,-3.0898,-3.0898,-3.0898,-3.0898,-3.0898,-3.0898,-3.0898,-3.0898,-3.0898,-3.0898,-3.0898,-3.0898,-3.0898,-3.0898,-3.0898,-3.0898,-3.0898,-3.0898,-3.0898,-3.0898,-3.0898,-3.0898,-3.0898,-3.0898,-3.0898,-3.0898,-3.0898,-3.0898,-3.0898,-3.0898,-3.0898,-3.0898,-3.0878,-3.0857,-3.0857,-3.0835,-3.0834,-3.0857,-3.0857,-3.0858,-3.0898,-3.0898,-3.0898,-3.0898,-3.0898,-3.0898,-3.0898,-3.0898,-3.0898,-3.0898,-3.0898,-3.0898,-3.0898,-3.0898,-3.0898,0.0,0.0,0.0,0.0,0.0,0.0,0.0,0.0,0.0,0.0,0.0,0.0,0.0,0.0,0.0,0.0,0.0,0.0,0.0,0.0,0.0,0.0,0.0,0.0,0.0,0.0,0.0,0.0,-2.8217,-2.855,-2.9314,-2.9359,-2.9735,-3.0577,-3.0603,-3.0603,-3.0603,-3.0603,-3.0621,-3.0692,-3.0692,-3.0767,-3.0879,-3.0879,-3.0879,-3.0878,-3.0681,-3.0643,-3.0692,-3.0692,-3.0769,-3.0879,-3.0898,-3.0898,-3.0898,-3.0898,-3.0898,-3.0898,-3.0898,-3.0898,-3.0898,-3.0898,-3.0898,-3.0898,-3.0898,-3.0898,-3.0898,-3.0898,-3.0898,-3.0898,-3.0898,-3.0898,-3.0898,-3.0898,-3.0898,-3.0898,-3.0898,-3.0898,-3.0898,-3.0898,-3.0898,-3.0898,-3.0898,-3.0898,-3.0898,-3.0898,-3.0898,-3.0898,-3.0898,-3.0793,-3.0717,-3.0717,-3.0655,-3.0643,-3.0695,-3.0717,-3.0769,-3.0898,-3.0898,-3.0898,-3.0898,-3.0898,-3.0898,-3.0898,-3.0898,-3.0898,-3.0898,-3.0898,-3.0898,-3.0898,-3.0898,-3.0898,0.0,0.0,0.0,0.0,0.0,0.0,0.0,0.0,0.0,0.0,0.0,0.0,0.0,0.0,0.0,0.0,0.0,0.0,0.0,0.0,0.0,0.0,0.0,0.0,0.0,0.0,0.0,0.0,0.0,-2.8232,-2.8504,-2.8573,-2.8733,-2.9045,-2.9641,-3.0239,-3.0785,-3.0785,-3.079,-3.0836,-3.0836,-3.0858,-3.0898,-3.0898,-3.0898,-3.0898,-3.0813,-3.0811,-3.0836,-3.0836,-3.0858,-3.0898,-3.0898,-3.0898,-3.0898,-3.0898,-3.0898,-3.0898,-3.0898,-3.0898,-3.0898,-3.0898,-3.0898,-3.0898,-3.0898,-3.0898,-3.0898,-3.0898,-3.0898,-3.0898,-3.0898,-3.0898,-3.0898,-3.0898,-3.0898,-3.0898,-3.0898,-3.0898,-3.0898,-3.0898,-3.0898,-3.0898,-3.0898,-3.0836,-3.0794,-3.0898,-3.0785,-3.0725,-3.0768,-3.0698,-3.0643,-3.0643,-3.06,-3.0614,-3.0621,-3.0643,-3.0652,-3.0693,-3.0712,-3.0712,-3.0712,-3.0712,-3.0712,-3.0712,-3.0712,-3.0778,-3.0898,-3.0898,-3.0898,-3.0898,-3.0898,-3.0898,0.0,0.0,0.0,0.0,0.0,0.0,0.0,0.0,0.0,0.0,0.0,0.0,0.0,0.0,0.0,0.0,0.0,0.0,0.0,0.0,0.0,0.0,0.0,0.0,0.0,0.0,0.0,0.0,0.0,0.0,-2.7716,-2.7766,-2.7936,-2.8229,-2.9119,-2.9883,-3.0469,-3.0742,-3.0898,-3.0898,-3.0898,-3.0898,-3.0898,-3.0898,-3.0898,-3.0898,-3.0898,-3.0898,-3.0898,-3.0898,-3.0898,-3.0898,-3.0898,-3.0898,-3.0898,-3.0898,-3.0898,-3.0898,-3.0898,-3.0898,-3.0898,-3.0898,-3.0898,-3.0898,-3.0898,-3.0898,-3.0898,-3.0898,-3.0898,-3.0898,-3.0898,-3.0878,-3.0836,-3.0809,-3.0807,-3.0807,-3.0807,-3.0813,-3.0837,-3.0837,-3.0812,-3.0885,-3.1196,-3.1157,-3.1129,-3.1213,-3.1127,-3.1048,-3.1094,-3.104,-3.1102,-3.137,-3.115,-3.0991,-3.1005,-3.0736,-3.0575,-3.0603,-3.0603,-3.0603,-3.0603,-3.0603,-3.0603,-3.0603,-3.0603,-3.067,-3.0807,-3.0807,-3.0807,-3.0807,-3.0807,-3.0807,0.0,0.0,0.0,0.0,0.0,0.0,0.0,0.0,0.0,0.0,0.0,0.0,0.0,0.0,0.0,0.0,0.0,0.0,0.0,0.0,0.0,0.0,0.0,0.0,0.0,0.0,0.0,0.0,-2.5703,-2.6074,-2.6914,-2.6953,-2.7363,-2.8223,-2.9082,-2.9531,-2.9551,-3.0391,-3.084,-3.0859,-3.0859,-3.0879,-3.0898,-3.0898,-3.0898,-3.0898,-3.0898,-3.0898,-3.0898,-3.0898,-3.0898,-3.0898,-3.0898,-3.0898,-3.0898,-3.0898,-3.0898,-3.0898,-3.0898,-3.0898,-3.0898,-3.0898,-3.0898,-3.0898,-3.0898,-3.0898,-3.0898,-3.0898,-3.0898,-3.0898,-3.0898,-3.0793,-3.0682,-3.0623,-3.0622,-3.0642,-3.0642,-3.0715,-3.075,-3.0713,-3.0691,-3.0933,-3.1764,-3.1916,-3.1936,-3.1939,-3.1936,-3.1932,-3.1936,-3.1875,-3.213,-3.2914,-3.2243,-3.1758,-3.1797,-3.1017,-3.054,-3.0591,-3.0597,-3.0597,-3.0597,-3.0597,-3.0597,-3.0597,-3.0597,-3.0597,-3.0597,-3.0603,-3.0603,-3.0603,-3.0603,-3.0603,-1.0469,0.0,0.0,0.0,0.0,0.0,0.0,0.0,0.0,0.0,0.0,0.0,0.0,0.0,0.0,0.0,0.0,0.0,0.0,0.0,0.0,0.0,0.0,0.0,0.0,0.0,0.0,0.0,-2.5703,-2.5801,-2.6055,-2.6055,-2.6465,-2.7324,-2.7598,-2.8027,-2.8652,-2.8906,-2.9336,-2.9961,-2.9961,-3.0293,-3.0898,-3.0898,-3.0898,-3.0898,-3.0898,-3.0898,-3.0898,-3.0898,-3.0898,-3.0898,-3.0898,-3.0898,-3.0898,-3.0898,-3.0898,-3.0898,-3.0898,-3.0898,-3.0879,-3.0792,-3.0767,-3.0743,-3.0693,-3.0681,-3.0681,-3.0681,-3.0681,-3.0681,-3.0681,-3.0667,-3.0611,-3.0609,-3.1086,-3.1534,-3.1534,-3.1964,-3.2011,-3.0856,-3.1626,-3.2364,-3.1978,-3.2346,-3.2725,-3.2836,-3.2724,-3.2642,-3.269,-3.2636,-3.2682,-3.2894,-3.2704,-3.2332,-3.1777,-3.1513,-3.1105,-3.0486,-3.0467,-3.0467,-3.0467,-3.0467,-3.0467,-3.0467,-3.0467,-3.0467,-3.0467,-3.054,-3.0603,-3.0603,-3.0603,-3.0603,0.0,0.0,0.0,0.0,0.0,0.0,0.0,0.0,0.0,0.0,0.0,0.0,0.0,0.0,0.0,0.0,0.0,0.0,0.0,0.0,0.0,0.0,0.0,0.0,0.0,-2.5703,-2.5703,-2.5703,-2.5703,-2.5703,-2.5703,-2.5703,-2.5937,-2.6445,-2.6816,-2.7246,-2.7754,-2.8125,-2.8555,-2.9062,-2.9062,-2.9512,-3.0351,-3.0351,-3.0566,-3.0898,-3.0898,-3.0898,-3.0898,-3.0898,-3.0898,-3.0898,-3.0898,-3.0898,-3.0898,-3.0837,-3.0816,-3.0814,-3.0785,-3.076,-3.0757,-3.0675,-3.0665,-3.0659,-3.0617,-3.0603,-3.0603,-3.0603,-3.0603,-3.0597,-3.0561,-3.0551,-3.054,-3.0513,-3.0907,-3.1373,-3.1741,-3.2416,-3.2685,-3.1782,-3.2406,-3.3034,-3.2879,-3.3223,-3.3525,-3.3602,-3.3525,-3.3461,-3.3506,-3.3467,-3.3583,-3.3949,-3.366,-3.3103,-3.2275,-3.1891,-3.1327,-3.0462,-3.0404,-3.0404,-3.0404,-3.0404,-3.0404,-3.0404,-3.0404,-3.0404,-3.0404,-3.0472,-3.0524,-3.0524,-3.0524,-3.0524,0.0,0.0,0.0,0.0,0.0,0.0,-1.5547,-1.5078,0.0,0.0,0.0,0.0,0.0,0.0,0.0,0.0,0.0,0.0,0.0,0.0,0.0,0.0,0.0,0.0,-2.5703,-2.5703,-2.5703,-2.5703,-2.5703,-2.5703,-2.5703,-2.5703,-2.5703,-2.5703,-2.6445,-2.6855,-2.6855,-2.7617,-2.8066,-2.8164,-2.8164,-2.8613,-2.9453,-2.9551,-3.0019,-3.0762,-3.0859,-3.0898,-3.0879,-3.0879,-3.0898,-3.0898,-3.0879,-3.0879,-3.0858,-3.074,-3.0689,-3.0682,-3.0628,-3.0603,-3.0603,-3.0594,-3.0591,-3.0587,-3.0578,-3.0575,-3.0575,-3.0575,-3.0575,-3.0558,-3.0507,-3.05,-3.0511,-3.0535,-3.0615,-3.0923,-3.1795,-3.2622,-3.3217,-3.326,-3.3226,-3.3391,-3.409,-3.4282,-3.434,-3.434,-3.434,-3.434,-3.434,-3.434,-3.4641,-3.5423,-3.4814,-3.3987,-3.3122,-3.2295,-3.1462,-3.0596,-3.0442,-3.0404,-3.0404,-3.0404,-3.0404,-3.0404,-3.0404,-3.0404,-3.0404,-3.0404,-3.0404,-3.0404,-3.0404,-3.0442,-1.5332,-1.5937,-1.6582,0.0,0.0,0.0,0.0,-1.3379,0.0,0.0,0.0,0.0,0.0,0.0,0.0,0.0,0.0,0.0,0.0,0.0,0.0,0.0,0.0,0.0,-2.5703,-2.5703,-2.5703,-2.5703,-2.5703,-2.5703,-2.5703,-2.5703,-2.5703,-2.5703,-2.5859,-2.5957,-2.5957,-2.6113,-2.6562,-2.7246,-2.7246,-2.7715,-2.8574,-2.9277,-2.9687,-2.9883,-3.0605,-3.0837,-3.0744,-3.0744,-3.0794,-3.0898,-3.0771,-3.0744,-3.072,-3.0652,-3.0625,-3.0625,-3.0609,-3.0603,-3.0594,-3.0541,-3.0513,-3.0516,-3.0467,-3.043,-3.043,-3.043,-3.043,-3.0444,-3.0417,-3.0411,-3.0598,-3.1281,-3.1948,-3.2641,-3.3526,-3.4391,-3.4988,-3.5001,-3.5001,-3.4814,-3.4302,-3.4776,-3.525,-3.525,-3.525,-3.525,-3.525,-3.525,-3.5308,-3.5481,-3.5346,-3.4891,-3.4032,-3.316,-3.2314,-3.1506,-3.0788,-3.0404,-3.0404,-3.0404,-3.0404,-3.0404,-3.0404,-3.0404,-3.0404,-3.0404,-3.0404,-3.0404,-3.0404,-3.0788,0.0,0.0,-1.7793,-1.6914,0.0,0.0,0.0,0.0,0.0,0.0,0.0,0.0,0.0,0.0,0.0,0.0,0.0,0.0,0.0,0.0,0.0,0.0,0.0,0.0,-2.5059,-2.5449,-2.5703,-2.5703,-2.5703,-2.5703,-2.5703,-2.5703,-2.5703,-2.5703,-2.5703,-2.5703,-2.5703,-2.5661,-2.5873,-2.6303,-2.6273,-2.6715,-2.7575,-2.8451,-2.9095,-2.9543,-3.0381,-3.07,-3.0657,-3.0657,-3.0693,-3.0731,-3.0687,-3.0657,-3.0631,-3.0575,-3.0559,-3.0552,-3.0516,-3.0494,-3.0485,-3.0462,-3.0442,-3.0446,-3.0408,-3.0404,-3.0404,-3.0404,-3.0404,-3.0404,-3.0404,-3.0404,-3.0615,-3.1487,-3.2006,-3.2641,-3.3936,-3.4545,-3.4988,-3.5423,-3.55,-3.5365,-3.493,-3.5212,-3.55,-3.55,-3.55,-3.55,-3.55,-3.55,-3.55,-3.55,-3.55,-3.5154,-3.4263,-3.3801,-3.3179,-3.2352,-3.15,-3.1231,-3.1635,-3.125,-3.1231,-3.1635,-3.125,-3.1058,-3.1058,-3.0615,-3.0404,-3.0404,-3.0404,-3.0865,0.0,0.0,0.0,0.0,0.0,-1.693,0.0,0.0,0.0,-1.6822,0.0,0.0,0.0,0.0,0.0,0.0,0.0,0.0,0.0,0.0,0.0,0.0,0.0,0.0,-2.4138,-2.4627,-2.5155,-2.5643,-2.5233,-2.5155,-2.5641,-2.5661,-2.5661,-2.5661,-2.5661,-2.5661,-2.5661,-2.5605,-2.5572,-2.5572,-2.5533,-2.5863,-2.6588,-2.7456,-2.8329,-2.921,-3.0003,-3.0441,-3.0581,-3.0581,-3.0571,-3.0554,-3.0575,-3.0581,-3.0571,-3.0507,-3.0482,-3.0467,-3.0431,-3.0404,-3.0404,-3.0404,-3.0404,-3.0404,-3.0404,-3.0404,-3.0404,-3.0404,-3.0404,-3.0404,-3.0404,-3.0404,-3.0654,-3.1698,-3.1929,-3.2391,-3.4083,-3.4449,-3.4661,-3.5365,-3.55,-3.55,-3.55,-3.55,-3.55,-3.55,-3.55,-3.55,-3.55,-3.55,-3.55,-3.55,-3.55,-3.5212,-3.4507,-3.4302,-3.3898,-3.3179,-3.2372,-3.2218,-3.2872,-3.2275,-3.2237,-3.2891,-3.2256,-3.1929,-3.1929,-3.1212,-3.0808,-3.0654,-3.0654,-3.1192,0.0,0.0,0.0,0.0,-2.0641,0.0,0.0,0.0,-1.6892,-1.4863,0.0,0.0,0.0,0.0,0.0,0.0,0.0,0.0,0.0,0.0,0.0,0.0,0.0,0.0,0.0,-2.2604,-2.3182,-2.5431,-2.3515,-2.3208,-2.5416,-2.5511,-2.5511,-2.5511,-2.5511,-2.5511,-2.5511,-2.5524,-2.5503,-2.5503,-2.5496,-2.5549,-2.5688,-2.6547,-2.742,-2.8307,-2.9169,-2.9904,-3.052,-3.052,-3.0472,-3.0428,-3.0495,-3.052,-3.0503,-3.0449,-3.0414,-3.0408,-3.041,-3.0404,-3.0404,-3.0404,-3.0404,-3.0404,-3.0404,-3.0404,-3.0404,-3.0404,-3.0404,-3.0404,-3.0404,-3.0404,-3.0808,-3.2391,-3.2756,-3.3237,-3.4981,-3.5346,-3.5385,-3.5481,-3.55,-3.55,-3.55,-3.55,-3.55,-3.55,-3.55,-3.55,-3.55,-3.55,-3.55,-3.55,-3.55,-3.5462,-3.5365,-3.4641,-3.4167,-3.4071,-3.3237,-3.2795,-3.2891,-3.2814,-3.2814,-3.2891,-3.2814,-3.2756,-3.2756,-3.266,-3.2256,-3.1545,-3.1545,-3.2391,0.0,0.0,0.0,0.0,0.0,0.0,-1.6956,0.0,-1.7101,0.0,0.0,0.0,0.0,0.0,0.0,0.0,0.0,0.0,0.0,0.0,0.0,0.0,0.0,0.0,0.0,0.0,0.0,0.0,-2.2206,-2.2158,-2.4661,-2.4795,-2.5029,-2.5491,-2.5491,-2.5491,-2.5491,-2.5451,-2.5444,-2.5441,-2.5406,-2.5379,-2.5418,-2.6297,-2.7167,-2.803,-2.887,-2.9689,-3.0441,-3.0441,-3.0422,-3.039,-3.0439,-3.0441,-3.0436,-3.0408,-3.0404,-3.0404,-3.0404,-3.0404,-3.0404,-3.0404,-3.0404,-3.0404,-3.0404,-3.0404,-3.0404,-3.0404,-3.0404,-3.0404,-3.0404,-3.0788,-3.1442,-3.2622,-3.3295,-3.3987,-3.5231,-3.55,-3.55,-3.55,-3.55,-3.55,-3.55,-3.55,-3.55,-3.55,-3.55,-3.55,-3.55,-3.55,-3.55,-3.55,-3.55,-3.55,-3.55,-3.5154,-3.4949,-3.4949,-3.4622,-3.418,-3.368,-3.4141,-3.4404,-3.4404,-3.391,-3.3641,-3.3641,-3.3141,-3.2987,-3.3141,-3.2622,-3.3045,-2.3624,0.0,0.0,0.0,0.0,0.0,0.0,0.0,0.0,0.0,0.0,0.0,0.0,0.0,0.0,0.0,0.0,0.0,0.0,0.0,0.0,0.0,0.0,0.0,0.0,0.0,0.0,0.0,0.0,-2.0465,-2.3714,-2.3889,-2.4369,-2.5411,-2.5447,-2.5447,-2.5447,-2.5402,-2.5364,-2.5375,-2.5312,-2.5308,-2.5327,-2.5962,-2.6717,-2.7582,-2.8415,-2.9256,-3.0058,-3.0308,-3.0404,-3.0404,-3.0404,-3.0404,-3.0404,-3.0404,-3.0404,-3.0404,-3.0404,-3.0404,-3.0404,-3.0404,-3.0404,-3.0404,-3.0404,-3.0404,-3.0404,-3.0404,-3.0404,-3.0462,-3.0692,-3.1231,-3.1968,-3.3006,-3.3744,-3.443,-3.5308,-3.55,-3.55,-3.55,-3.55,-3.55,-3.55,-3.55,-3.55,-3.55,-3.55,-3.55,-3.55,-3.55,-3.55,-3.55,-3.55,-3.55,-3.55,-3.55,-3.55,-3.55,-3.55,-3.5212,-3.4584,-3.5154,-3.55,-3.55,-3.4872,-3.4564,-3.4545,-3.393,-3.3949,-3.4545,-3.366,-3.3718,0.0,0.0,0.0,-2.1166,0.0,0.0,0.0,0.0,-1.8691,0.0,0.0,0.0,0.0,0.0,0.0,0.0,0.0,0.0,0.0,0.0,0.0,0.0,0.0,0.0,0.0,0.0,0.0,0.0,-1.7312,-1.7569,-2.2579,-2.2849,-2.3595,-2.524,-2.5317,-2.5317,-2.5317,-2.5293,-2.5293,-2.5293,-2.5308,-2.5308,-2.5308,-2.5327,-2.5827,-2.6697,-2.7563,-2.8396,-2.9204,-3.0038,-3.0404,-3.0404,-3.0404,-3.0404,-3.0404,-3.0404,-3.0404,-3.0404,-3.0404,-3.0404,-3.0404,-3.0404,-3.0404,-3.0404,-3.0404,-3.0404,-3.0404,-3.0404,-3.0404,-3.0596,-3.1448,-3.1679,-3.2122,-3.3763,-3.4186,-3.443,-3.5308,-3.55,-3.55,-3.55,-3.55,-3.55,-3.55,-3.55,-3.55,-3.55,-3.55,-3.55,-3.55,-3.55,-3.55,-3.55,-3.55,-3.55,-3.55,-3.55,-3.55,-3.55,-3.55,-3.5481,-3.5462,-3.5481,-3.55,-3.55,-3.5462,-3.5462,-3.5462,-3.5423,-3.5423,-3.5442,-3.4564,-3.4622,0.0,0.0,-2.4769,-2.2504,0.0,0.0,0.0,0.0,0.0,0.0,0.0,0.0,0.0,0.0,0.0,0.0,0.0,0.0,0.0,0.0,0.0,0.0,0.0,0.0,0.0,0.0,0.0,0.0,-1.6736,0.0,-2.0966,-2.2197,-2.3317,-2.4471,-2.5019,-2.5308,-2.5308,-2.5308,-2.5308,-2.5308,-2.5308,-2.5308,-2.5308,-2.5308,-2.5788,-2.6659,-2.7525,-2.8357,-2.9165,-3.0038,-3.0404,-3.0404,-3.0404,-3.0404,-3.0404,-3.0404,-3.0404,-3.0404,-3.0404,-3.0404,-3.0404,-3.0404,-3.0404,-3.0404,-3.0404,-3.0404,-3.0519,-3.1096,-3.125,-3.1448,-3.2275,-3.291,-3.3494,-3.4071,-3.4641,-3.5135,-3.5442,-3.55,-3.55,-3.55,-3.5361,-3.5289,-3.5479,-3.5354,-3.5297,-3.546,-3.55,-3.55,-3.55,-3.55,-3.55,-3.55,-3.55,-3.55,-3.55,-3.55,-3.55,-3.55,-3.55,-3.5424,-3.5239,-3.5417,-3.5424,-3.5231,-3.525,-3.525,-3.5231,-3.5062,-3.4972,-3.4972,-3.4668,-3.4887,-2.5154,-2.5308,0.0,-2.3216,-2.1985,0.0,-1.8623,0.0,0.0,0.0,0.0,0.0,0.0,0.0,0.0,0.0,0.0,0.0,0.0,0.0,0.0,0.0,0.0,0.0,0.0,0.0,-1.4464,-1.5926,-1.5753,0.0,0.0,-2.1427,-2.2874,-2.4052,-2.4889,-2.5308,-2.5308,-2.5308,-2.5308,-2.5308,-2.5308,-2.5308,-2.5308,-2.5308,-2.5615,-2.6192,-2.7063,-2.7915,-2.8742,-2.9583,-3.0115,-3.0404,-3.0404,-3.0404,-3.0404,-3.0404,-3.0404,-3.0404,-3.0404,-3.0404,-3.0404,-3.0404,-3.0404,-3.0404,-3.0404,-3.0615,-3.0981,-3.1545,-3.191,-3.2314,-3.3141,-3.3782,-3.4243,-3.4462,-3.4939,-3.532,-3.5231,-3.5215,-3.5215,-3.5215,-3.5079,-3.5008,-3.519,-3.5079,-3.5088,-3.5446,-3.55,-3.55,-3.55,-3.55,-3.55,-3.55,-3.55,-3.55,-3.55,-3.5398,-3.5361,-3.5361,-3.5273,-3.513,-3.4963,-3.5122,-3.513,-3.4963,-3.4954,-3.4954,-3.4954,-3.4774,-3.4694,-3.4694,-3.4694,-3.4889]},{"header":{"parameterUnit":"m.s-1","parameterCategory":1,"la1":30.6,"la2":29.2853,"lo1":-89.7004,"lo2":-87.6739,"dy":0.0162,"dx":0.0183,"nx":112,"ny":82,"refTime":"2024-07-30T18:00:00:Z","depth":0,"parameterNumber":3,"parameterNumberName":"V-component_of_WINDS"},"data":[0.0,0.0,0.0,0.0,0.0,0.0,0.0,0.0,0.0,0.0,0.0,0.0,0.0,0.0,0.0,0.0,0.0,0.0,0.0,0.0,0.0,0.0,0.0,0.0,0.0,0.0,0.0,0.0,0.0,0.0,0.0,0.0,0.0,0.0,0.0,0.0,0.0,0.0,0.0,0.0,0.0,0.0,0.0,0.0,0.0,0.0,0.0,0.0,0.0,0.0,0.0,0.0,0.0,0.0,0.0,0.0,0.0,0.0,0.0,0.0,0.0,0.0,0.0,0.0,0.0,0.0,0.0,0.0,0.0,0.0,0.0,0.0,0.0,0.0,0.0,0.0,0.0,0.0,0.0,0.0,0.0,0.0,0.0,0.0,0.0,0.0,0.0,0.0,0.0,0.0,0.0,-0.7919,-0.9375,-1.0596,-1.1341,-1.0655,-0.9482,-0.7802,0.0,0.0,0.0,0.0,0.0,0.0,0.0,0.0,0.0,0.0,0.0,0.0,0.0,0.0,0.0,0.0,0.0,0.0,0.0,0.0,0.0,0.0,0.0,0.0,0.0,0.0,0.0,0.0,0.0,0.0,0.0,0.0,0.0,0.0,0.0,0.0,0.0,0.0,0.0,0.0,0.0,0.0,0.0,0.0,0.0,0.0,0.0,0.0,0.0,0.0,0.0,0.0,0.0,0.0,0.0,0.0,0.0,0.0,0.0,0.0,0.0,0.0,0.0,0.0,0.0,0.0,0.0,0.0,0.0,0.0,0.0,0.0,0.0,0.0,0.0,0.0,0.0,0.0,0.0,0.0,0.0,0.0,0.0,0.0,0.0,0.0,0.0,0.0,0.0,0.0,0.0,0.0,0.0,0.0,0.0,0.0,0.0,0.0,0.0,0.0,0.0,0.0,0.0,0.0,-0.7661,-0.9145,-0.9902,-1.0352,-1.0488,-1.0001,-0.9125,-0.7783,0.0,0.0,0.0,0.0,0.0,0.0,0.0,0.0,0.0,0.0,0.0,0.0,0.0,0.0,0.0,0.0,0.0,0.0,0.0,0.0,0.0,0.0,0.0,0.0,0.0,0.0,0.0,0.0,0.0,0.0,0.0,0.0,0.0,0.0,0.0,0.0,0.0,0.0,0.0,0.0,0.0,0.0,0.0,0.0,0.0,0.0,0.0,0.0,0.0,0.0,0.0,0.0,0.0,0.0,0.0,0.0,0.0,0.0,0.0,0.0,0.0,0.0,0.0,0.0,0.0,0.0,0.0,0.0,0.0,0.0,0.0,0.0,0.0,0.0,0.0,0.0,0.0,0.0,0.0,0.0,0.0,0.0,0.0,0.0,0.0,0.0,0.0,0.0,0.0,0.0,0.0,0.0,0.0,0.0,0.0,0.0,0.0,0.0,0.0,0.0,0.0,0.0,0.0,-0.717,-0.8168,-1.0098,-1.0303,-1.0391,-1.0605,-1.0234,-0.9318,-0.7793,-0.7496,0.0,0.0,0.0,0.0,0.0,0.0,0.0,0.0,0.0,0.0,0.0,0.0,0.0,0.0,0.0,0.0,0.0,0.0,0.0,0.0,0.0,0.0,0.0,0.0,0.0,0.0,0.0,0.0,0.0,0.0,0.0,0.0,0.0,0.0,0.0,0.0,0.0,0.0,0.0,0.0,0.0,0.0,0.0,0.0,0.0,0.0,0.0,0.0,0.0,0.0,0.0,0.0,0.0,0.0,0.0,0.0,0.0,0.0,0.0,0.0,0.0,0.0,0.0,0.0,0.0,0.0,0.0,0.0,0.0,0.0,0.0,0.0,0.0,0.0,0.0,0.0,0.0,0.0,0.0,0.0,0.0,0.0,0.0,0.0,0.0,0.0,0.0,0.0,0.0,0.0,0.0,0.0,0.0,0.0,0.0,0.0,0.0,0.0,0.0,0.0,0.0,0.0,-0.8136,-0.8714,-1.0566,-1.0478,-1.041,-1.0732,-1.0283,-0.9336,-0.7793,-0.7028,0.0,0.0,0.0,0.0,0.0,0.0,0.0,0.0,0.0,0.0,0.0,0.0,0.0,0.0,0.0,0.0,0.0,0.0,0.0,0.0,0.0,0.0,0.0,0.0,0.0,0.0,0.0,0.0,0.0,0.0,0.0,0.0,0.0,0.0,0.0,0.0,0.0,0.0,0.0,0.0,0.0,0.0,0.0,0.0,0.0,0.0,0.0,0.0,0.0,0.0,0.0,0.0,0.0,0.0,0.0,0.0,0.0,0.0,0.0,0.0,0.0,0.0,0.0,0.0,0.0,0.0,0.0,0.0,0.0,0.0,0.0,0.0,0.0,0.0,0.0,0.0,0.0,0.0,0.0,0.0,0.0,0.0,0.0,0.0,0.0,0.0,0.0,0.0,0.0,0.0,0.0,0.0,0.0,0.0,0.0,0.0,0.0,0.0,0.0,0.0,0.0,0.0,-0.8586,-0.9277,-1.0244,-1.0322,-1.0312,-1.0342,-0.957,-0.8685,-0.7754,-0.6158,0.0,0.0,0.0,0.0,0.0,0.0,0.0,0.0,0.0,0.0,0.0,0.0,0.0,0.0,0.0,0.0,0.0,0.0,0.0,0.0,0.0,0.0,0.0,0.0,0.0,0.0,0.0,0.0,0.0,0.0,0.0,0.0,0.0,0.0,0.0,0.0,0.0,0.0,0.0,0.0,0.0,0.0,0.0,0.0,0.0,0.0,0.0,0.0,0.0,0.0,0.0,0.0,0.0,0.0,0.0,0.0,0.0,0.0,0.0,0.0,0.0,0.0,0.0,0.0,0.0,0.0,0.0,0.0,0.0,0.0,0.0,0.0,0.0,0.0,0.0,0.0,0.0,0.0,0.0,0.0,0.0,0.0,0.0,0.0,0.0,0.0,0.0,0.0,0.0,0.0,0.0,0.0,0.0,0.0,0.0,0.0,0.0,0.0,0.0,0.0,0.0,0.0,-0.8403,-0.906,0.0,-1.0303,-1.0303,-1.0303,-0.9736,-0.8899,-0.7763,0.0,0.0,0.0,0.0,0.0,0.0,0.0,0.0,0.0,0.0,0.0,0.0,0.0,0.0,0.0,0.0,0.0,0.0,0.0,0.0,0.0,0.0,0.0,0.0,0.0,0.0,0.0,0.0,0.0,0.0,0.0,0.0,0.0,0.0,0.0,0.0,0.0,0.0,0.0,0.0,0.0,0.0,0.0,0.0,0.0,0.0,0.0,0.0,0.0,0.0,0.0,0.0,0.0,0.0,0.0,0.0,0.0,0.0,0.0,0.0,0.0,0.0,0.0,0.0,0.0,0.0,0.0,0.0,0.0,0.0,0.0,0.0,0.0,0.0,0.0,0.0,0.0,0.0,0.0,0.0,0.0,0.0,0.0,0.0,0.0,0.0,0.0,0.0,0.0,0.0,0.0,0.0,0.0,0.0,0.0,0.0,0.0,0.0,0.0,0.0,0.0,0.0,-0.7804,-0.8383,-0.9031,0.0,-1.0303,-1.0303,-1.0303,-0.9639,-0.8792,-0.7763,0.0,0.0,0.0,0.0,0.0,0.0,0.0,0.0,0.0,0.0,0.0,0.0,0.0,0.0,0.0,0.0,0.0,0.0,0.0,0.0,0.0,0.0,0.0,0.0,0.0,0.0,0.0,0.0,0.0,0.0,0.0,0.0,0.0,0.0,0.0,0.0,0.0,0.0,0.0,0.0,0.0,0.0,0.0,0.0,0.0,0.0,0.0,0.0,0.0,0.0,0.0,0.0,0.0,0.0,0.0,0.0,0.0,0.0,0.0,0.0,0.0,0.0,0.0,0.0,0.0,0.0,0.0,0.0,0.0,0.0,0.0,0.0,0.0,0.0,0.0,0.0,0.0,0.0,0.0,0.0,0.0,0.0,0.0,0.0,0.0,0.0,0.0,0.0,0.0,0.0,0.0,0.0,0.0,0.0,0.0,0.0,0.0,0.0,0.0,0.0,0.0,0.0,-0.7859,-0.8626,-0.9336,-1.0215,-1.0303,-1.0303,-1.0303,-0.9138,-0.8209,0.0,0.0,0.0,0.0,0.0,0.0,0.0,0.0,0.0,0.0,0.0,0.0,0.0,0.0,0.0,0.0,0.0,0.0,0.0,0.0,0.0,0.0,0.0,0.0,0.0,0.0,0.0,0.0,0.0,0.0,0.0,0.0,0.0,0.0,0.0,0.0,0.0,0.0,0.0,0.0,0.0,0.0,0.0,0.0,0.0,0.0,0.0,0.0,0.0,0.0,0.0,0.0,0.0,0.0,0.0,0.0,0.0,0.0,0.0,0.0,0.0,0.0,0.0,0.0,0.0,0.0,0.0,0.0,0.0,0.0,0.0,0.0,0.0,0.0,0.0,0.0,0.0,0.0,0.0,0.0,0.0,0.0,0.0,0.0,0.0,0.0,0.0,0.0,0.0,0.0,0.0,0.0,0.0,0.0,0.0,0.0,0.0,0.0,0.0,0.0,0.0,0.0,0.0,-0.7845,-0.8626,-0.9336,-1.0215,-1.0303,-1.0303,-1.0303,-0.9385,-0.8506,-0.7744,0.0,0.0,0.0,0.0,0.0,0.0,0.0,0.0,0.0,0.0,0.0,0.0,0.0,0.0,0.0,0.0,0.0,0.0,0.0,0.0,0.0,0.0,0.0,0.0,0.0,0.0,0.0,0.0,0.0,0.0,0.0,0.0,0.0,0.0,0.0,0.0,0.0,0.0,0.0,0.0,0.0,0.0,0.0,0.0,0.0,0.0,0.0,0.0,0.0,0.0,0.0,0.0,0.0,0.0,0.0,0.0,0.0,0.0,0.0,0.0,0.0,0.0,0.0,0.0,0.0,0.0,0.0,0.0,0.0,0.0,0.0,0.0,0.0,0.0,0.0,0.0,0.0,0.0,0.0,0.0,0.0,0.0,0.0,0.0,0.0,0.0,0.0,0.0,0.0,0.0,0.0,0.0,0.0,0.0,0.0,0.0,0.0,0.0,0.0,0.0,0.0,0.0,-0.7701,-0.8563,-0.9336,-1.0215,-1.0303,-1.0303,-1.0303,-0.9502,-0.8626,-0.7754,0.0,0.0,0.0,0.0,0.0,0.0,0.0,0.0,0.0,0.0,0.0,0.0,0.0,0.0,0.0,0.0,0.0,0.0,0.0,0.0,0.0,0.0,0.0,0.0,0.0,0.0,0.0,0.0,0.0,0.0,0.0,0.0,0.0,0.0,0.0,0.0,0.0,0.0,0.0,0.0,0.0,0.0,0.0,0.0,0.0,0.0,0.0,0.0,0.0,0.0,0.0,0.0,0.0,0.0,0.0,0.0,0.0,0.0,0.0,0.0,0.0,0.0,0.0,0.0,0.0,0.0,0.0,0.0,0.0,0.0,0.0,0.0,0.0,0.0,0.0,0.0,0.0,0.0,0.0,0.0,0.0,0.0,0.0,0.0,0.0,0.0,0.0,0.0,0.0,0.0,0.0,0.0,0.0,0.0,0.0,0.0,0.0,0.0,0.0,0.0,0.0,0.0,-0.7481,-0.8461,-0.9336,-1.0215,-1.0303,-1.0303,-1.0303,-0.9502,-0.8636,-0.7827,0.0,0.0,0.0,0.0,0.0,0.0,0.0,0.0,0.0,0.0,0.0,0.0,0.0,0.0,0.0,0.0,0.0,0.0,0.0,0.0,0.0,0.0,0.0,0.0,0.0,0.0,0.0,0.0,0.0,0.0,0.0,0.0,0.0,0.0,0.0,0.0,0.0,0.0,0.0,0.0,0.0,0.0,0.0,0.0,0.0,0.0,0.0,0.0,0.0,0.0,0.0,0.0,0.0,0.0,0.0,0.0,0.0,0.0,0.0,0.0,-0.7248,0.0,0.0,0.0,0.0,0.0,0.0,0.0,0.0,0.0,0.0,0.0,0.0,0.0,0.0,0.0,0.0,0.0,0.0,0.0,0.0,0.0,0.0,0.0,0.0,0.0,0.0,0.0,0.0,0.0,0.0,0.0,0.0,0.0,0.0,0.0,0.0,0.0,0.0,0.0,0.0,0.0,-0.752,-0.8461,-0.9336,-1.0215,-1.0303,-1.0303,-1.0303,-0.9502,-0.8789,-0.8287,-0.6702,0.0,0.0,0.0,0.0,0.0,0.0,0.0,0.0,0.0,0.0,0.0,0.0,0.0,0.0,0.0,0.0,0.0,0.0,0.0,0.0,0.0,0.0,0.0,0.0,0.0,0.0,0.0,0.0,0.0,0.0,0.0,0.0,0.0,0.0,0.0,0.0,0.0,0.0,0.0,0.0,0.0,0.0,0.0,0.0,0.0,0.0,0.0,0.0,0.0,0.0,0.0,0.0,0.0,0.0,0.0,0.0,0.0,0.0,0.0,0.0,-0.7992,0.0,0.0,0.0,0.0,0.0,0.0,0.0,0.0,0.0,0.0,0.0,0.0,0.0,0.0,0.0,0.0,0.0,0.0,0.0,0.0,0.0,0.0,0.0,0.0,0.0,0.0,0.0,0.0,0.0,0.0,0.0,0.0,0.0,0.0,0.0,0.0,0.0,0.0,0.0,0.0,-0.7559,-0.8636,-0.9542,-1.0234,-1.0303,-1.0303,-1.0303,-0.9502,-0.8828,-0.8424,-0.7152,0.0,0.0,0.0,0.0,0.0,0.0,0.0,0.0,0.0,0.0,0.0,0.0,0.0,0.0,0.0,0.0,0.0,0.0,0.0,0.0,0.0,0.0,0.0,0.0,0.0,0.0,0.0,0.0,0.0,0.0,0.0,0.0,0.0,0.0,0.0,0.0,0.0,0.0,0.0,0.0,0.0,0.0,0.0,0.0,0.0,0.0,0.0,0.0,0.0,0.0,0.0,0.0,0.0,-0.9864,-1.0156,-1.083,-1.0459,-1.0634,-1.1191,-1.0137,-0.9728,-0.9747,-0.8616,0.0,0.0,0.0,0.0,0.0,0.0,0.0,0.0,0.0,0.0,0.0,0.0,0.0,0.0,0.0,0.0,0.0,0.0,0.0,0.0,0.0,0.0,0.0,0.0,-0.9414,-0.9542,-0.8086,0.0,0.0,0.0,0.0,0.0,0.0,0.0,0.0,0.0,0.0,0.0,-0.772,-0.8853,-0.9776,-1.0254,-1.0303,-1.0303,-1.0303,-0.957,-0.8936,-0.8532,-0.7686,-0.6677,0.0,0.0,0.0,0.0,0.0,0.0,0.0,0.0,0.0,0.0,0.0,0.0,0.0,0.0,0.0,0.0,0.0,0.0,0.0,0.0,0.0,0.0,0.0,0.0,0.0,0.0,0.0,0.0,0.0,0.0,0.0,0.0,-0.5782,-0.665,0.0,0.0,0.0,0.0,0.0,0.0,0.0,0.0,0.0,0.0,0.0,0.0,0.0,-0.9542,-1.0126,-1.087,-1.1467,-1.1872,-1.2564,-1.2969,-1.3086,-1.3018,-1.2861,-1.2641,-1.2465,0.0,-1.0683,-1.0166,0.0,0.0,0.0,0.0,0.0,0.0,0.0,0.0,0.0,0.0,0.0,0.0,0.0,0.0,0.0,0.0,0.0,0.0,0.0,0.0,0.0,0.0,-1.1087,-1.0664,-1.0947,-1.1164,0.0,-0.9287,-0.8238,-0.8013,-0.707,0.0,0.0,0.0,0.0,0.0,0.0,0.0,-0.8248,-0.9065,-0.9776,-1.0254,-1.0303,-1.0303,-1.0303,-0.9834,-0.9348,-0.8945,-0.81,-0.7388,-0.6865,-0.578,0.0,0.0,0.0,0.0,0.0,0.0,0.0,0.0,0.0,0.0,0.0,0.0,0.0,0.0,0.0,0.0,0.0,0.0,0.0,0.0,0.0,0.0,0.0,0.0,0.0,0.0,0.0,0.0,0.0,-0.577,-0.6934,-0.708,-0.7559,-0.7661,0.0,0.0,0.0,0.0,0.0,0.0,0.0,0.0,0.0,-1.0704,-1.0936,-1.1394,-1.209,-1.2705,-1.3081,-1.3276,-1.3656,-1.3831,-1.3831,-1.3831,-1.3734,-1.3558,-1.3558,-1.3227,-1.2603,-1.1496,-1.0518,-0.9678,0.0,0.0,0.0,0.0,-0.9461,-0.9598,-1.0498,-1.0654,-1.042,-1.0156,0.0,0.0,0.0,0.0,0.0,0.0,0.0,0.0,0.0,0.0,-1.1616,-1.1641,-1.1982,-1.2269,-1.2061,-1.124,-1.0254,0.0,-0.8597,-0.7973,-0.7262,0.0,0.0,0.0,0.0,0.0,-0.8711,-0.9473,-1.0068,-1.0283,-1.0303,-1.0303,-1.0303,-0.9864,-0.9435,-0.9033,-0.8428,-0.7793,-0.7129,-0.6531,-0.5866,0.0,0.0,0.0,0.0,0.0,0.0,0.0,0.0,0.0,0.0,0.0,0.0,0.0,0.0,0.0,0.0,0.0,0.0,0.0,0.0,0.0,0.0,0.0,0.0,0.0,0.0,0.0,0.0,-0.6852,-0.7846,-0.7749,-0.8691,-0.9043,0.0,0.0,0.0,0.0,0.0,0.0,-1.0225,-1.0381,-1.1006,-1.2201,-1.2515,-1.3003,-1.3662,-1.3948,-1.4163,-1.427,-1.427,-1.427,-1.427,-1.427,-1.4211,-1.4104,-1.4104,-1.4104,-1.4007,-1.2744,-1.18,-1.1064,-1.0615,-1.0371,-1.0322,-1.0664,-1.0781,-1.0937,-1.1999,-1.2178,-1.1868,-1.1523,-1.126,-1.0898,-0.9951,0.0,0.0,0.0,0.0,-1.0449,-1.1221,-1.1682,-1.2005,-1.2314,-1.2646,-1.2905,-1.2905,-1.2627,-1.196,0.0,-1.0098,-0.964,-0.8685,0.0,0.0,0.0,0.0,-0.9453,-0.9346,-0.998,-1.04,-1.0312,-1.0303,-1.0303,-1.0303,-0.999,-0.9552,-0.9043,-0.8727,-0.817,-0.7295,-0.7158,-0.6581,-0.5474,0.0,0.0,0.0,0.0,0.0,0.0,0.0,0.0,0.0,0.0,0.0,0.0,0.0,0.0,0.0,0.0,0.0,0.0,0.0,0.0,0.0,0.0,0.0,0.0,0.0,0.0,0.0,0.0,0.0,-0.9378,-0.9932,0.0,0.0,0.0,0.0,-0.9513,-0.9951,-1.0742,-1.2008,-1.249,-1.3115,-1.3948,-1.3997,-1.4036,-1.4075,-1.4094,-1.4309,-1.4746,-1.4746,-1.4746,-1.4746,-1.4746,-1.4521,-1.4104,-1.4104,-1.4104,-1.4104,-1.4016,-1.3714,-1.3311,-1.2881,-1.2461,-1.2077,-1.2106,-1.2106,-1.2184,-1.2686,-1.2856,-1.2837,-1.2817,-1.224,-1.1557,-1.1498,-1.1164,0.0,0.0,-1.1768,-1.2184,-1.2666,-1.2827,-1.2846,-1.2866,-1.2886,-1.2905,-1.2905,-1.2886,-1.2695,0.0,-1.1394,-1.08,-1.0762,0.0,-1.0166,-1.0146,-1.0518,-1.0674,-1.0293,-1.0605,-1.0723,-1.0342,-1.0303,-1.0303,-1.0303,-1.0283,-0.9911,-0.9053,-0.8984,-0.8568,-0.7705,-0.7301,-0.689,-0.6435,-0.5535,0.0,0.0,0.0,0.0,0.0,0.0,0.0,0.0,0.0,0.0,0.0,0.0,0.0,0.0,0.0,0.0,0.0,0.0,0.0,0.0,0.0,0.0,0.0,0.0,0.0,0.0,0.0,0.0,-1.0371,-1.1073,0.0,-1.0939,-1.0996,-1.1238,-1.1689,-1.2119,-1.2686,-1.3383,-1.3578,-1.3802,-1.4094,-1.4377,-1.4551,-1.4551,-1.4824,-1.5011,-1.5186,-1.5186,-1.5186,-1.5186,-1.5186,-1.5098,-1.4933,-1.4933,-1.4933,-1.4933,-1.4933,-1.4513,-1.387,-1.3724,-1.3568,-1.3432,-1.3432,-1.3432,-1.3412,-1.332,-1.3281,-1.3242,-1.2993,-1.269,-1.2436,-1.2436,-1.2328,-1.2207,-1.2396,-1.2553,-1.2686,-1.2866,-1.2905,-1.2905,-1.2905,-1.2905,-1.2905,-1.2905,-1.2905,-1.2856,-1.2676,-1.2168,-1.1648,-1.1398,-1.1222,-1.1027,-1.0732,-1.1076,-1.1291,-1.1165,-1.1261,-1.1183,-1.0732,-1.0684,-1.0576,-1.0322,-1.0303,-0.9931,-0.9062,-0.9004,-0.8607,-0.7734,-0.7315,-0.6892,-0.6439,-0.5508,-0.4811,0.0,0.0,0.0,0.0,0.0,0.0,0.0,0.0,0.0,0.0,0.0,0.0,0.0,0.0,0.0,0.0,0.0,0.0,0.0,0.0,0.0,0.0,0.0,0.0,0.0,0.0,-1.0674,-1.1095,-1.2031,-1.249,-1.2074,-1.2529,-1.2973,-1.3281,-1.3555,-1.388,-1.4299,-1.4328,-1.4397,-1.4533,-1.4844,-1.5,-1.5,-1.5273,-1.541,-1.541,-1.541,-1.541,-1.541,-1.541,-1.541,-1.541,-1.541,-1.541,-1.541,-1.541,-1.505,-1.4523,-1.4387,-1.4328,-1.4309,-1.4163,-1.4104,-1.4065,-1.3792,-1.3695,-1.3646,-1.3389,-1.3203,-1.3096,-1.3096,-1.3023,-1.2905,-1.2905,-1.2905,-1.2905,-1.2905,-1.2905,-1.2905,-1.2905,-1.2905,-1.2905,-1.2905,-1.2905,-1.2905,-1.2905,-1.2646,-1.2353,-1.2083,-1.2034,-1.1927,-1.1621,-1.1839,-1.1976,-1.1829,-1.1809,-1.1562,-1.0946,-1.0908,-1.0742,-1.0332,-1.0146,-0.9824,-0.9231,-0.881,-0.8364,-0.7954,-0.7264,-0.6758,-0.6442,-0.5447,-0.4873,-0.4735,0.0,0.0,0.0,0.0,0.0,0.0,0.0,0.0,0.0,0.0,0.0,0.0,0.0,0.0,0.0,0.0,0.0,0.0,0.0,0.0,0.0,0.0,0.0,-0.9641,-1.04,-1.1133,-1.1594,-1.2754,-1.3369,-1.2983,-1.3672,-1.4124,-1.4124,-1.4143,-1.4328,-1.4785,-1.4814,-1.501,-1.542,-1.542,-1.5449,-1.5449,-1.5449,-1.5449,-1.5449,-1.5439,-1.543,-1.543,-1.542,-1.541,-1.541,-1.541,-1.541,-1.541,-1.541,-1.541,-1.5371,-1.4961,-1.4833,-1.4756,-1.4299,-1.4133,-1.4124,-1.4124,-1.4114,-1.4104,-1.4104,-1.3831,-1.3525,-1.3525,-1.3232,-1.2925,-1.2925,-1.2915,-1.2905,-1.2905,-1.2905,-1.2905,-1.2905,-1.2905,-1.2905,-1.2905,-1.2905,-1.2905,-1.2905,-1.2905,-1.2905,-1.2905,-1.2905,-1.2905,-1.2905,-1.2905,0.0,-1.2281,-1.2223,-1.1892,-1.1024,-1.0937,-1.0762,-1.0361,-0.9884,-0.9602,-0.9573,-0.8415,-0.7923,-0.8363,-0.718,-0.6511,-0.6479,-0.5394,-0.495,-0.5184,0.0,0.0,0.0,0.0,0.0,0.0,0.0,0.0,0.0,0.0,0.0,0.0,0.0,0.0,0.0,0.0,0.0,0.0,0.0,0.0,0.0,0.0,-1.1268,-1.0624,-1.1592,-1.2524,-1.292,-1.3529,-1.389,-1.3773,-1.4287,-1.4609,-1.4609,-1.4883,-1.5107,-1.5234,-1.5566,-1.5791,-1.5909,-1.6201,-1.6336,-1.6336,-1.6336,-1.6336,-1.6336,-1.6045,-1.5919,-1.5909,-1.5557,-1.541,-1.541,-1.541,-1.541,-1.541,-1.541,-1.541,-1.54,-1.5283,-1.5244,-1.5225,-1.5079,-1.4873,-1.4609,-1.4609,-1.4367,-1.4104,-1.4104,-1.4026,-1.3938,-1.3938,-1.3636,-1.334,-1.334,-1.3115,-1.2905,-1.2905,-1.2905,-1.2905,-1.2905,-1.2905,-1.2905,-1.2905,-1.2905,-1.2905,-1.2905,-1.2905,-1.2905,-1.2905,-1.2905,-1.2905,-1.2905,-1.2905,0.0,-1.2715,-1.2705,-1.249,-1.1901,-1.1572,-1.1222,-1.0771,-1.0352,-0.9834,-0.9201,-0.8554,-0.8075,-0.7752,-0.7225,-0.6711,-0.6214,-0.5769,-0.5319,0.0,0.0,0.0,0.0,0.0,0.0,0.0,0.0,0.0,0.0,0.0,0.0,0.0,0.0,0.0,0.0,0.0,0.0,0.0,0.0,0.0,0.0,-1.158,-1.2418,-1.2262,-1.2895,-1.3496,-1.3714,-1.4124,-1.4377,-1.4377,-1.4795,-1.5127,-1.5332,-1.5547,-1.5771,-1.5927,-1.6201,-1.6338,-1.6338,-1.657,-1.6697,-1.6697,-1.6697,-1.6697,-1.6697,-1.6465,-1.6338,-1.6338,-1.6084,-1.5937,-1.5957,-1.5771,-1.5684,-1.5674,-1.5488,-1.541,0.0,0.0,0.0,0.0,0.0,-1.5254,-1.5049,-1.5049,-1.4883,-1.464,-1.464,-1.4523,-1.4377,-1.4377,-1.4085,-1.3714,-1.3555,-1.333,-1.3105,-1.2954,-1.2905,-1.2905,-1.2905,-1.2905,-1.2905,-1.2905,-1.2905,-1.2905,-1.2905,-1.2905,0.0,-1.2905,-1.2905,-1.2905,-1.2905,-1.2905,-1.2905,-1.2905,-1.2905,-1.2715,-1.2252,-1.1992,-1.1592,-1.0936,-1.0518,0.0,0.0,0.0,-0.7723,-0.6942,-0.7148,0.0,0.0,0.0,0.0,0.0,0.0,0.0,0.0,-0.6305,-0.6241,0.0,0.0,0.0,0.0,0.0,0.0,0.0,0.0,0.0,0.0,0.0,0.0,0.0,0.0,0.0,0.0,-1.2514,-1.3359,-1.4075,-1.4221,-1.4231,-1.4182,-1.459,-1.4882,-1.4882,-1.5234,-1.5644,-1.6065,-1.6134,-1.6309,-1.6677,0.0,0.0,0.0,0.0,-1.6843,-1.6843,-1.6843,-1.6843,-1.6843,-1.6794,-1.6775,-1.6775,-1.6726,-1.6697,-1.6677,-1.6309,-1.6173,-1.6134,-1.5664,-1.5459,-1.541,-1.541,-1.541,-1.541,-1.541,-1.541,-1.541,-1.541,0.0,0.0,-1.541,-1.5156,-1.4882,-1.4882,-1.4551,-1.4104,-1.376,-1.3584,-1.3418,-1.3071,-1.2935,-1.2905,-1.2905,-1.2905,-1.2905,-1.2905,-1.2822,-1.2774,-1.2774,-1.2774,-1.2774,-1.2774,-1.2847,-1.2905,-1.2905,-1.2905,-1.2905,-1.2905,-1.2905,-1.2734,-1.232,0.0,0.0,-1.1102,-1.0565,-1.0058,-0.9538,-0.8275,-0.7168,-0.6289,-0.6989,-0.7039,-0.6258,-0.7248,-0.772,-0.7602,-0.8184,-0.868,-0.9043,-0.7871,-0.7739,0.0,0.0,0.0,0.0,0.0,0.0,0.0,0.0,0.0,0.0,0.0,0.0,0.0,0.0,0.0,-1.2553,-1.3659,-1.45,-1.4639,-1.4951,-1.5039,-1.4697,-1.5029,-1.5293,-1.5293,-1.5713,-1.6007,-1.6085,-1.6396,-1.6609,-1.6697,-1.7061,-1.7256,-1.7256,-1.7588,-1.7764,-1.7764,-1.7764,-1.7764,-1.773,0.0,0.0,-1.7246,-1.6863,-1.6697,-1.6697,-1.6609,-1.657,-1.6541,-1.6153,-1.5732,-1.541,-1.541,-1.541,-1.541,-1.541,-1.541,-1.541,-1.541,-1.541,-1.541,-1.541,-1.5352,-1.5293,-1.5293,-1.499,0.0,-1.4561,-1.4043,-1.3486,-1.3408,-1.3135,-1.2905,-1.2905,-1.2905,-1.2905,-1.2905,-1.2427,-1.1996,-1.1996,-1.1996,-1.1996,-1.1996,-1.2501,-1.2905,-1.2905,-1.2905,-1.2905,-1.2905,-1.2905,-1.2876,-1.2764,-1.2441,-1.2135,-1.1969,-1.0846,-0.9956,-0.9516,-0.8099,-0.7247,-0.716,-0.6903,-0.6884,-0.7134,-0.7474,-0.7624,-0.7602,-0.8462,-0.9093,-0.9474,-0.8889,-0.8721,0.0,0.0,0.0,0.0,0.0,0.0,0.0,0.0,0.0,0.0,0.0,-1.0801,-1.1486,0.0,-1.3076,-1.373,-1.4365,-1.4863,-1.5068,-1.5283,-1.5332,-1.5117,-1.5283,-1.541,-1.541,-1.5811,-1.6183,-1.6387,-1.6807,-1.7148,-1.733,-1.7578,-1.7695,-1.7695,-1.79,-1.8008,-1.8008,-1.8008,-1.8008,-1.8008,-1.7803,-1.7695,-1.7686,-1.7471,-1.734,-1.733,-1.7148,-1.7061,-1.7021,-1.6582,-1.6143,-1.5732,-1.5732,-1.5605,-1.541,-1.541,-1.541,-1.541,-1.541,-1.541,-1.541,-1.541,-1.541,-1.541,-1.541,-1.5264,-1.5049,-1.4872,-1.4482,-1.4043,-1.3613,-1.335,-1.3145,-1.2954,-1.2905,-1.2798,-1.2427,-1.2055,-1.169,-1.1366,-1.1291,-1.1291,-1.1291,-1.1609,-1.2082,-1.2774,-1.2905,-1.2905,-1.2905,-1.2584,-1.2476,-1.2847,-1.2069,-1.1558,-1.1682,-1.0161,-0.9108,-0.8914,-0.776,-0.7139,-0.7192,-0.7226,-0.7226,-0.7192,-0.8078,-0.8423,-0.8158,-0.9152,-0.9756,-0.9951,-0.9736,-0.9756,0.0,0.0,0.0,0.0,0.0,0.0,0.0,0.0,-1.0283,-1.0908,-1.1604,-1.2299,-1.2988,-1.3467,-1.3984,-1.4705,-1.4882,-1.5029,-1.5361,-1.541,-1.541,-1.541,-1.541,-1.541,-1.541,-1.5889,-1.6338,-1.6677,-1.7217,-1.7656,-1.7988,-1.8008,-1.8008,-1.8008,-1.8008,-1.8008,-1.8008,-1.8008,-1.8008,-1.8008,-1.8008,-1.8008,-1.8008,-1.8008,-1.8008,-1.7988,-1.7656,-1.7461,-1.7353,-1.7002,-1.6592,-1.6212,-1.6124,-1.588,-1.5527,-1.5439,-1.541,-1.541,-1.541,-1.541,-1.541,-1.541,-1.541,-1.541,-1.541,-1.541,-1.5313,-1.483,-1.4619,-1.4351,-1.3415,-1.3133,-1.2972,-1.259,-1.2486,-1.2329,-1.1724,-1.1491,-1.1266,-1.0712,-1.0618,-1.0618,-1.0618,-1.0712,-1.1225,-1.251,-1.2593,-1.2544,-1.2666,-1.2055,-1.1823,-1.2437,-1.1484,-1.0814,-1.0846,-0.9413,-0.8431,-0.8238,-0.7569,-0.7153,-0.7086,-0.756,-0.7574,-0.7,-0.8443,-0.8978,-0.8541,-0.9518,-1.0028,-1.0084,-1.0203,-1.0486,-0.8652,-0.8818,0.0,-0.9901,-0.9814,-1.0137,0.0,0.0,-1.2252,-1.3432,-1.3753,-1.3851,-1.3948,-1.4346,-1.4705,-1.4766,-1.5098,-1.5361,-1.5371,-1.541,-1.541,-1.541,-1.541,-1.541,-1.541,-1.6132,-1.6648,-1.6697,-1.748,-1.7959,-1.8008,-1.8008,-1.8008,-1.8008,-1.8008,-1.8008,-1.8008,-1.8008,-1.8008,-1.8008,-1.8008,-1.8008,-1.8008,-1.8008,-1.8008,-1.8008,-1.7959,-1.7734,-1.7416,-1.7334,-1.7051,-1.659,-1.6251,-1.6065,-1.5977,-1.5557,-1.541,-1.541,-1.541,-1.541,-1.541,-1.541,-1.541,-1.541,-1.541,-1.541,-1.5255,-1.4484,-1.4014,-1.3462,-1.2361,-1.1814,-1.146,-1.1107,-1.1023,-1.1023,-1.0939,-1.044,-0.9987,-0.9917,-0.9909,-0.9909,-0.9909,-1.0415,-1.1065,-1.1823,-1.1425,-1.1241,-1.1848,-1.1341,-1.0939,-1.1023,-1.0889,-1.0473,-0.9669,-0.9407,-0.8887,-0.8014,-0.7849,-0.7679,-0.745,-0.7504,-0.7382,-0.7006,-0.7718,-0.8057,-0.7995,-0.8582,-0.9005,-0.9253,-0.9846,-1.0396,-1.0625,0.0,0.0,0.0,-1.1846,-1.2145,-1.3262,-1.3393,-1.3529,-1.4346,-1.4512,-1.459,-1.4806,-1.5029,-1.5146,0.0,-1.5508,-1.5703,-1.5449,-1.5635,-1.5693,-1.5439,-1.541,-1.541,-1.541,-1.618,-1.6697,-1.6697,-1.7496,-1.8008,-1.8008,-1.8008,-1.8008,-1.8008,-1.8008,-1.8008,-1.8008,-1.8008,-1.8008,-1.8008,-1.8008,-1.8008,-1.8008,-1.8008,-1.8008,-1.8008,-1.8008,-1.791,-1.7744,-1.7744,-1.75,-1.7061,-1.6621,-1.632,-1.6036,-1.5566,-1.541,-1.541,-1.541,-1.541,-1.541,-1.541,-1.5079,-1.4688,-1.4688,-1.4353,-1.3936,-1.3606,-1.3382,-1.3029,-1.2127,-1.1779,-1.1504,-1.0953,-1.0788,-1.0686,-1.0287,-0.9987,-0.9692,-0.9283,-0.9211,-0.9211,-0.9211,-0.9458,-0.9865,-1.0542,-1.0745,-1.0889,-1.1191,-1.0636,-1.0064,-0.9692,-0.9987,-0.9908,-0.9106,-0.8912,-0.8633,-0.8221,-0.8005,-0.7852,-0.7742,-0.7736,-0.7675,-0.7533,-0.8082,-0.8372,-0.8372,-0.8909,-0.9223,-0.9339,-0.962,-1.0006,-1.1787,0.0,0.0,-1.2807,-1.3369,-1.3685,-1.3828,-1.4065,-1.4406,-1.4863,-1.4891,-1.4873,-1.5186,-1.5234,0.0,-1.5234,-1.5733,-1.5938,-1.5469,-1.5811,-1.5938,-1.5469,-1.541,-1.541,-1.541,-1.6103,-1.657,-1.6687,-1.7389,-1.7891,-1.8008,-1.8008,-1.8008,-1.8008,-1.8008,-1.8008,-1.8008,-1.8008,-1.8008,-1.8008,-1.8008,-1.8008,-1.8008,-1.8008,-1.8008,-1.8008,-1.8008,-1.8008,-1.8008,-1.8008,-1.7832,-1.751,-1.708,-1.6719,-1.6388,-1.5801,-1.5508,-1.541,-1.541,-1.541,-1.5352,-1.5138,-1.4658,-1.4154,-1.3936,-1.3455,-1.2948,-1.2726,-1.2665,-1.246,-1.1613,-1.1357,-1.1138,-1.0525,-1.0306,-1.0115,-0.964,-0.951,-0.9387,-0.8883,-0.8804,-0.8804,-0.8804,-0.8804,-0.8956,-0.9458,-0.9935,-1.0312,-1.0491,-0.9943,-0.9335,-0.8857,-0.9237,-0.9335,-0.8831,-0.8617,-0.8516,-0.8516,-0.829,-0.8112,-0.8032,-0.8025,-0.7992,-0.7905,-0.8271,-0.8475,-0.8475,-0.8858,-0.9105,-0.9205,-0.9385,-0.9684,0.0,0.0,-1.293,-1.3379,-1.3773,-1.4202,-1.4648,-1.4784,-1.4883,-1.5303,-1.5068,-1.4785,-1.4833,-1.4833,-1.4833,-1.4833,-1.5537,-1.5938,-1.5469,-1.5811,-1.5938,-1.5469,-1.541,-1.541,0.0,-1.585,-1.629,-1.6668,-1.7148,-1.7578,-1.7988,-1.8008,-1.8008,-1.8008,-1.8008,-1.8008,-1.8008,-1.8008,-1.8008,-1.8008,-1.8008,-1.8008,-1.8008,-1.8008,-1.8008,-1.8008,-1.8008,-1.8008,-1.8008,-1.8008,-1.8008,-1.7949,-1.7529,-1.7353,-1.7269,-1.6398,-1.5801,-1.541,-1.541,-1.541,-1.5255,-1.4481,-1.4213,-1.4055,-1.3274,-1.3009,-1.2856,-1.205,-1.1826,-1.1574,-1.0448,-0.9952,-0.9692,-0.9327,-0.9038,-0.8857,-0.8831,-0.8831,-0.8831,-0.8804,-0.8804,-0.8804,-0.8804,-0.8804,-0.8811,-0.8831,-0.8857,-0.908,-0.9736,-0.9237,-0.8831,-0.8804,-0.8804,-0.8831,-0.8804,-0.8798,-0.8791,-0.8791,-0.8784,-0.8657,-0.8402,-0.8382,-0.8223,-0.7912,-0.7905,-0.7929,-0.7929,-0.7953,-0.8125,-0.8457,-0.9106,-0.9535,0.0,0.0,-1.3467,-1.418,-1.4463,-1.4678,-1.5107,-1.5205,-1.5156,-1.5029,-1.4883,-1.4697,-1.4377,-1.4328,-1.4453,-1.4736,-1.5537,-1.6036,-1.5889,-1.6506,-1.6692,-1.5958,-1.587,0.0,0.0,0.0,0.0,-1.6668,-1.7139,-1.7568,-1.7988,-1.8008,-1.8008,-1.8008,-1.8008,-1.8008,-1.8008,-1.8008,-1.8008,-1.8008,-1.8008,-1.8008,-1.8008,-1.8008,-1.8008,-1.8008,-1.8008,-1.8008,-1.8008,-1.8008,-1.8008,-1.7969,-1.7549,-1.6992,-1.6331,-1.5579,-1.478,-1.4127,-1.4483,-1.4599,-1.4481,-1.3674,-1.3023,-1.2565,-1.2297,-1.1841,-1.1358,-1.1076,-1.0982,-1.085,-1.0248,-1.0047,-0.9846,-0.9331,-0.9138,-0.9011,-0.8851,-0.8804,-0.8804,-0.8804,-0.8804,-0.8804,-0.8804,-0.8804,-0.8804,-0.8804,-0.8804,-0.8883,-0.9113,-0.8936,-0.8804,-0.8804,-0.8804,-0.8804,-0.8804,-0.8804,-0.8804,-0.8804,-0.8804,-0.8764,-0.8664,-0.8664,-0.8617,-0.8492,-0.8485,-0.8485,-0.8485,-0.8485,-0.8564,-0.8657,-0.8884,-0.9035,0.0,-1.3588,-1.3909,-1.4795,-1.501,-1.5078,-1.5352,-1.5293,-1.5107,-1.4844,-1.4451,-1.4062,-1.3909,-1.3763,-1.3851,-1.4453,-1.5429,-1.6095,-1.6095,-1.6858,-1.7142,-1.6387,-1.6299,-1.6299,0.0,0.0,0.0,-1.6934,-1.7227,-1.7568,-1.7988,-1.8008,-1.8008,-1.8008,-1.8008,-1.8008,-1.8008,-1.8008,-1.8008,-1.8008,-1.8008,-1.8008,-1.8008,-1.8008,-1.8008,-1.8008,-1.8008,-1.8008,-1.8008,-1.8008,-1.7794,-1.7472,-1.7216,-1.6511,-1.5572,-1.4877,-1.4215,-1.3661,-1.3756,-1.3756,-1.3636,-1.2818,-1.2235,-1.1741,-1.1469,-1.1014,-1.0593,-1.0593,-1.0593,-1.0546,-1.0321,-1.02,-0.999,-0.961,-0.9364,-0.9164,-0.8978,-0.8878,-0.8804,-0.8804,-0.8804,-0.8804,-0.8804,-0.8804,-0.8804,-0.8804,-0.8804,-0.8804,-0.8804,-0.8804,-0.8804,-0.8804,-0.8804,-0.8804,-0.8804,-0.8804,-0.8804,-0.8804,-0.8804,-0.8804,-0.8804,-0.8804,-0.8804,-0.8804,-0.8804,-0.8804,-0.8804,-0.8804,-0.8804,-0.8804,-0.8804,-0.8804,-1.3447,-1.3851,-1.4367,-1.5176,-1.541,-1.5371,-1.5381,-1.5068,-1.4766,-1.4725,-1.3747,-1.3013,0.0,0.0,-1.3115,-1.3909,-1.5176,-1.6075,-1.6124,-1.6887,-1.7256,0.0,0.0,0.0,0.0,0.0,0.0,-1.7383,0.0,-1.7568,-1.7988,-1.8008,-1.8008,-1.8008,-1.8008,-1.8008,-1.8008,-1.8008,-1.8008,-1.8008,-1.8008,-1.8008,-1.8008,-1.8008,-1.8008,-1.8008,-1.8008,-1.7974,-1.794,-1.794,-1.7398,-1.6532,-1.6532,-1.5965,-1.5045,-1.4303,-1.4032,-1.3852,-1.3157,-1.2934,-1.2826,-1.1989,-1.1741,-1.1586,-1.0832,-1.0593,-1.0593,-1.0593,-1.0593,-1.0593,-1.0593,-1.0347,-1.0134,-1.009,-0.965,-0.9231,-0.9217,-0.8984,-0.8804,-0.8804,-0.8804,-0.8804,-0.8804,-0.8804,-0.8804,-0.8804,-0.8804,-0.8804,-0.8804,-0.8804,-0.8804,-0.8804,-0.8804,-0.8804,-0.8804,-0.8804,-0.8804,-0.8804,-0.8804,-0.8804,-0.8804,-0.8804,-0.8804,-0.8804,-0.8804,-0.8804,-0.8804,-0.8804,-0.8804,-0.8804,-0.8804,-0.8804,-1.4258,-1.4766,-1.5108,-1.5332,-1.541,-1.5332,-1.5019,-1.4863,-1.4539,-1.359,-1.313,-1.2641,-1.1738,0.0,0.0,-1.3115,-1.4541,0.0,-1.6465,-1.7305,0.0,0.0,0.0,-1.7217,-1.7217,-1.7217,0.0,0.0,-1.7559,-1.7568,-1.7988,-1.8008,-1.8008,-1.8008,-1.8008,-1.8008,-1.8008,-1.8008,-1.8008,-1.8008,-1.8008,-1.8008,-1.8008,-1.8008,-1.8008,-1.8008,-1.8008,-1.7613,-1.6957,-1.6957,-1.6393,-1.5552,-1.5552,-1.495,-1.4045,-1.3666,-1.2907,-1.2034,-1.1652,-1.176,-1.1958,-1.117,-1.0895,-1.0863,-1.0649,-1.0593,-1.0593,-1.0593,-1.0593,-1.0593,-1.0593,-1.0539,-1.0419,-1.0167,-0.984,-0.9512,-0.9257,-0.8984,-0.8804,-0.8804,-0.8804,-0.8804,-0.8804,-0.8804,-0.8804,-0.8804,-0.8804,-0.8804,-0.8804,-0.8804,-0.8804,-0.8804,-0.8804,-0.8804,-0.8804,-0.8804,-0.8804,-0.8804,-0.8804,-0.8804,-0.8804,-0.8804,-0.8804,-0.8804,-0.8804,-0.8804,-0.8804,-0.8804,-0.8804,-0.8804,-0.8804,-0.8804,-1.4658,-1.5088,-1.541,-1.541,-1.5273,-1.5019,-1.46,-1.4072,-1.3408,-1.2514,-1.1846,0.0,0.0,0.0,0.0,0.0,0.0,0.0,-1.6318,-1.7187,-1.7715,0.0,-1.7656,0.0,-1.7656,-1.7822,-1.7959,0.0,-1.7793,-1.7764,-1.7998,-1.8008,-1.8008,-1.8008,-1.8008,-1.8008,-1.8008,-1.8008,-1.8008,-1.8008,-1.8008,-1.8008,-1.8008,-1.8008,-1.7794,-1.7389,0.0,-1.6862,-1.6009,-1.6009,-1.5403,-1.4522,-1.4522,-1.3954,-1.3041,-1.2628,-1.2006,-1.1329,-1.0949,-1.1033,-1.1195,-1.0744,-1.0593,-1.0593,-1.0593,-1.0593,-1.0593,-1.0593,-1.0593,-1.0593,-1.0593,-1.0593,-1.0553,-1.0347,-1.0087,-0.9793,-0.9499,-0.9178,-0.8931,-0.8831,-0.8804,-0.8804,-0.8804,-0.8804,-0.8804,-0.8804,-0.8804,-0.8804,-0.8804,-0.8804,-0.8804,-0.8804,-0.8804,-0.8804,-0.8804,-0.8804,-0.8804,-0.8804,-0.8804,-0.8804,-0.8804,-0.8804,-0.8804,-0.8804,-0.8804,-0.8804,-0.8804,-0.8804,-0.8804,-0.8804,-0.8804,-0.8804,-1.4882,-1.5127,-1.541,-1.541,-1.5098,-1.4658,-1.4133,-1.3081,-1.2047,-1.1526,0.0,0.0,-0.9999,0.0,-1.1094,-1.1901,0.0,-1.4979,-1.5958,-1.6809,-1.7471,-1.7949,-1.8008,-1.8008,-1.8008,-1.8305,-1.8329,-1.7857,-1.7794,-1.7872,-1.7974,-1.8008,-1.8008,-1.8008,-1.8008,-1.8008,-1.8008,-1.8008,-1.8008,-1.8008,-1.8008,-1.794,-1.7794,-1.7794,-1.7285,-1.6419,-1.6419,-1.586,-1.4985,-1.4985,-1.4414,-1.3528,-1.3528,-1.2997,-1.2184,-1.167,-1.1436,-1.1296,-1.0821,-1.0626,-1.0593,-1.0593,-1.0593,-1.0593,-1.0593,-1.0593,-1.0593,-1.0593,-1.0593,-1.0593,-1.0593,-1.0593,-1.0593,-1.0593,-1.0334,-1.0047,-0.9793,-0.9479,-0.9124,-0.8864,-0.8804,-0.8804,-0.8804,-0.8804,-0.8804,-0.8804,-0.8804,-0.8804,-0.8804,-0.8804,-0.8804,-0.8804,-0.8804,-0.8804,-0.8804,-0.8804,-0.8804,-0.8804,-0.8804,-0.8804,-0.8804,-0.8804,-0.8804,-0.8804,-0.8804,-0.8804,-0.8804,-0.8804,-0.8804,-0.8804,-0.8804,-0.8804,-1.5205,-1.5352,-1.541,-1.541,-1.5098,-1.458,-1.3799,-1.2876,0.0,0.0,0.0,-0.9425,-0.8835,-0.9647,0.0,-1.1055,0.0,0.0,0.0,0.0,-1.7096,0.0,0.0,0.0,0.0,0.0,0.0,0.0,0.0,-1.7173,-1.7974,-1.8008,-1.8008,-1.8008,-1.8008,-1.8008,-1.8008,-1.8008,-1.8008,-1.8008,-1.8008,-1.7569,-1.6853,-1.6853,-1.6324,-1.5446,-1.5446,0.0,-1.3954,-1.3954,-1.3419,-1.2556,-1.2556,-1.2297,-1.1966,-1.1866,-1.1483,-1.1056,-1.0955,-1.0794,-1.0593,-1.0593,-1.0593,-1.0593,-1.0593,-1.0593,-1.0593,-1.0593,-1.0593,-1.0593,-1.0593,-1.0593,-1.0593,-1.0593,-1.0334,-1.01,-1.0053,-0.959,-0.9124,-0.8864,-0.8804,-0.8804,-0.8804,-0.8804,-0.8804,-0.8804,-0.8804,-0.8804,-0.8804,-0.8804,-0.8804,-0.8804,-0.8804,-0.8804,-0.8804,-0.8804,-0.8804,-0.8804,-0.8804,-0.8804,-0.8804,-0.8804,-0.8804,-0.8804,-0.8804,-0.8804,-0.8804,-0.8804,-0.8804,-0.8804,-0.8804,-0.8804,-1.5293,-1.541,-1.541,-1.541,-1.4894,-1.4133,-1.3061,0.0,0.0,0.0,0.0,-0.8483,-0.81,0.0,0.0,0.0,0.0,0.0,0.0,0.0,0.0,0.0,0.0,0.0,0.0,0.0,0.0,0.0,0.0,-1.628,-1.6524,-1.7001,-1.7501,-1.7974,-1.8008,-1.8008,-1.8008,-1.7501,-1.7501,-1.7974,-1.701,-1.6576,-1.6567,-1.6105,-1.5332,-1.4414,-1.4414,-1.3882,-1.2989,-1.2989,-1.2703,-1.2305,-1.2305,-1.2218,-1.2078,-1.196,-1.1597,-1.1196,-1.1049,-1.0834,-1.0593,-1.0593,-1.0593,-1.0593,-1.0593,-1.0593,-1.0593,-1.0593,-1.0593,-1.0593,-1.0593,-1.0593,-1.0593,-1.0593,-1.0334,-1.0083,-1.0083,-0.9624,-0.9171,-0.9031,-0.8884,-0.8804,-0.8804,-0.8804,-0.8804,-0.8804,-0.8804,-0.8804,-0.8804,-0.8454,-0.8374,-0.8752,-0.8804,-0.8804,-0.8804,-0.8804,-0.8804,-0.8804,-0.8804,-0.8804,-0.8804,-0.8427,-0.8401,-0.8778,-0.8427,-0.8427,-0.8804,-0.8804,-0.8804,-0.8804,-0.8804,-0.8804,-1.5186,-1.5342,-1.541,-1.541,-1.4738,-1.3773,-1.2496,-1.1221,0.0,0.0,0.0,-0.7695,-0.7695,0.0,0.0,0.0,0.0,0.0,0.0,0.0,0.0,0.0,0.0,0.0,0.0,0.0,0.0,0.0,0.0,0.0,-1.549,-1.621,-1.6922,-1.7681,-1.7681,-1.7613,-1.7407,-1.668,-1.668,-1.7373,-1.5904,-1.5473,-1.5965,-1.519,-1.435,-1.3382,-1.3382,-1.2989,-1.2305,-1.2305,-1.2305,-1.2305,-1.2305,-1.2265,-1.2178,-1.1884,-1.1583,-1.1289,-1.1002,-1.0787,-1.0593,-1.0593,-1.0593,-1.0593,-1.0593,-1.0593,-1.0593,-1.0593,-1.0593,-1.0593,-1.0593,-1.0593,-1.0593,-1.0593,-1.0412,-1.0194,-1.0134,-0.9724,-0.9364,-0.9237,-0.9031,-0.8825,-0.8599,-0.856,-0.8507,-0.8348,-0.8321,-0.8321,-0.8321,-0.783,-0.7696,-0.8268,-0.848,-0.8619,-0.8778,-0.8646,-0.856,-0.856,-0.8427,-0.8321,-0.8321,-0.7777,-0.775,-0.8315,-0.791,-0.799,-0.856,-0.8725,-0.8804,-0.8804,-0.8804,-0.8804,-1.4862,-1.5117,-1.541,-1.541,-1.4738,-1.3773,-1.2496,0.0,0.0,0.0,-0.8027,-0.7695,-0.7695,0.0,0.0,0.0,0.0,0.0,0.0,0.0,0.0,0.0,0.0,0.0,0.0,0.0,0.0,0.0,0.0,0.0,-1.6315,-1.6558,-1.6636,-1.674,-1.674,-1.6324,-1.5482,-1.5376,-1.5376,-1.5446,-1.5269,-1.4772,-1.3954,-1.389,-1.331,-1.2445,-1.2445,-1.2378,0.0,-1.2305,-1.2305,-1.2305,-1.2305,-1.2138,-1.1906,-1.1577,-1.1283,-1.0995,-1.0734,-1.0613,-1.0593,-1.0593,-1.0593,-1.0593,-1.0593,-1.0593,-1.0593,-1.0593,-1.0593,-1.0593,-1.0593,-1.0593,-1.0593,-1.0593,-1.0573,-1.0479,-1.0174,-1.0074,-0.985,-0.9311,-0.9191,-0.8865,-0.7952,-0.7803,-0.7584,-0.6912,-0.6804,-0.6804,-0.6804,-0.675,-0.6723,-0.6804,-0.7396,-0.8076,-0.8752,-0.8182,-0.7803,-0.7803,-0.7182,-0.6804,-0.6804,-0.675,-0.6723,-0.6804,-0.7396,-0.7723,-0.7803,-0.848,-0.8804,-0.8804,-0.8804,-0.8804,-1.3886,-1.3945,-1.3832,-1.4333,-1.3606,-1.2361,-1.0807,0.0,0.0,-0.7909,-0.7669,-0.7695,-0.7695,-0.7856,-0.8246,0.0,-0.9523,0.0,0.0,0.0,0.0,0.0,0.0,0.0,0.0,0.0,0.0,0.0,0.0,0.0,-1.4764,-1.4835,-1.5119,-1.572,-1.5755,-1.5587,-1.5199,-1.4593,-1.4593,-1.5199,-1.4019,-1.3557,-1.3673,-1.3091,-1.2666,-1.2305,-1.2305,-1.2305,0.0,-1.2305,-1.2305,-1.2305,-1.2305,-1.2231,-1.2091,-1.1804,-1.1503,-1.1209,-1.0922,-1.074,-1.0593,-1.0593,-1.0593,-1.0593,-1.0593,-1.0593,-1.0593,-1.0593,-1.0593,-1.0593,-1.0593,-1.0593,-1.0593,-1.0593,-1.0593,-1.0559,-1.0439,-1.0241,-0.9843,-0.8997,-0.8705,-0.8278,-0.722,-0.7047,-0.6939,-0.6642,-0.6588,-0.6588,-0.6588,-0.6199,-0.6118,-0.6561,-0.6858,-0.7155,-0.7456,-0.7208,-0.7047,-0.7047,-0.675,-0.6588,-0.6588,-0.6172,-0.6145,-0.6588,-0.6443,-0.6821,-0.7696,-0.7563,-0.7696,-0.8129,-0.7696,-0.7477,-1.2582,-1.2707,-1.2603,-1.3173,-1.2464,-1.1212,0.0,0.0,-0.8622,-0.7355,-0.7231,-0.7383,-0.75,-0.7515,-0.7723,0.0,-0.8843,-0.9496,0.0,0.0,0.0,0.0,0.0,0.0,0.0,0.0,0.0,0.0,0.0,0.0,-1.3237,-1.328,-1.3738,-1.4736,-1.4772,-1.4629,-1.4343,-1.3629,-1.3629,-1.4343,-1.2945,-1.2666,-1.3273,-1.2592,-1.2305,-1.2305,-1.2305,-1.2305,0.0,-1.2305,-1.2305,-1.2305,-1.2305,-1.2305,-1.2265,-1.2013,-1.1683,-1.1349,-1.1096,-1.0834,-1.0593,-1.0593,-1.0593,-1.0593,-1.0593,-1.0593,-1.0593,-1.0593,-1.0593,-1.0593,-1.0593,-1.0593,-1.0593,-1.0593,-1.0396,-1.0206,-1.0206,-0.9819,-0.923,-0.8374,-0.8051,-0.757,-0.647,-0.6285,-0.6204,-0.6014,-0.5991,-0.5991,-0.5991,-0.5519,-0.541,-0.5932,-0.5991,-0.6154,-0.6561,-0.6394,-0.6285,-0.6285,-0.6095,-0.5991,-0.5991,-0.5492,-0.5437,-0.5959,-0.5651,-0.6005,-0.7042,-0.6745,-0.6858,-0.7369,-0.6831,-0.6588,-1.0956,-1.156,-1.2103,-1.2131,-1.156,-1.0713,0.0,-0.8731,-0.7999,-0.7255,-0.679,-0.6631,-0.7035,-0.7103,-0.7109,-0.7121,-0.8508,-0.9686,0.0,0.0,0.0,0.0,0.0,0.0,0.0,0.0,0.0,0.0,0.0,0.0,-1.2298,-1.2298,-1.2732,-1.3673,-1.3709,-1.3273,-1.2335,-1.2335,-1.2335,-1.2342,-1.2305,-1.2305,-1.2298,-1.2305,-1.2305,-1.2305,-1.2305,-1.2305,0.0,-1.2305,-1.2305,-1.2305,-1.2305,-1.2305,-1.2265,-1.2013,-1.1683,-1.1349,-1.1096,-1.0834,-1.0593,-1.0593,-1.0593,-1.0593,-1.0593,-1.0593,-1.0593,-1.0593,-1.0593,-1.0593,-1.0593,-1.0593,-1.0593,-1.0593,-0.9945,-0.9306,-0.9306,-0.8646,-0.7889,-0.7405,-0.7319,-0.6939,-0.5716,-0.5515,-0.53,-0.4625,-0.4515,-0.4515,-0.4515,-0.4519,-0.4519,-0.4515,-0.4515,-0.5089,-0.648,-0.5928,-0.5515,-0.5515,-0.4893,-0.4515,-0.4515,-0.4519,-0.4519,-0.4515,-0.5164,-0.5515,-0.5511,-0.6253,-0.6615,-0.6615,-0.6615,-0.6588,-0.9187,-0.9326,-0.9318,-0.9684,-0.9326,-0.8578,-0.7435,-0.7347,-0.7275,-0.6443,-0.6397,-0.6548,-0.6669,-0.67,-0.6911,-0.7599,-0.816,0.0,0.0,0.0,0.0,0.0,0.0,0.0,0.0,0.0,0.0,0.0,0.0,0.0,-1.2305,-1.2305,-1.2445,-1.2732,-1.2732,-1.2592,-1.2305,-1.2305,-1.2305,-1.2305,-1.2305,-1.2305,-1.2305,-1.2305,-1.2305,-1.2305,-1.2305,-1.2305,-1.2305,-1.2305,-1.2305,-1.2305,-1.2305,-1.2305,-1.2245,-1.175,-1.151,-1.1322,-1.0868,-1.0667,-1.0593,-1.0593,-1.0593,-1.0593,-1.0593,-1.0593,-1.0593,-1.0593,-1.0593,-1.046,-0.9856,-0.9722,-0.9556,-0.8967,-0.8608,-0.842,-0.842,-0.8188,-0.7747,-0.687,-0.6692,-0.6328,-0.5153,-0.4955,-0.4862,-0.4532,-0.4491,-0.4491,-0.4491,-0.4491,-0.4491,-0.4491,-0.4491,-0.468,-0.5117,-0.4952,-0.4814,-0.4814,-0.4625,-0.4491,-0.4491,-0.4491,-0.4491,-0.4491,-0.4708,-0.503,-0.5487,-0.5277,-0.5171,-0.5171,-0.5171,-0.5171,0.0,-0.7659,-0.7632,-0.7976,-0.7728,-0.7174,-0.6224,-0.6338,-0.6457,-0.5844,-0.5884,-0.6091,-0.6244,-0.6275,-0.6435,-0.6898,0.0,0.0,0.0,0.0,0.0,0.0,0.0,0.0,0.0,0.0,0.0,0.0,0.0,0.0,-1.2305,-1.2305,-1.2305,-1.2305,-1.2305,-1.2305,-1.2305,-1.2305,-1.2305,-1.2305,-1.2305,-1.2305,-1.2305,-1.2305,-1.2305,-1.2305,-1.2305,-1.2305,0.0,-1.2305,-1.2305,-1.2305,-1.2305,-1.2305,-1.2258,-1.1891,-1.1683,-1.1523,-1.1049,-1.0614,-1.0245,-1.0142,-0.9875,-0.9614,-0.9614,-0.9843,-1.011,-1.011,-0.9881,-0.9486,-0.8941,-0.8812,-0.8678,-0.8124,-0.7767,-0.7502,-0.7502,-0.7246,-0.6802,-0.6042,-0.5864,-0.5605,-0.4898,-0.468,-0.4621,-0.4583,-0.4528,-0.4491,-0.4491,-0.4491,-0.4491,-0.4491,-0.4491,-0.4491,-0.4491,-0.4491,-0.4491,-0.4491,-0.4491,-0.4491,-0.4491,-0.4491,-0.4491,-0.4491,-0.4491,-0.4708,-0.5109,-0.4708,-0.4491,-0.4491,-0.4491,-0.4491,0.0,-0.6445,-0.684,-0.682,-0.6647,-0.6313,-0.5734,-0.5621,0.0,-0.537,-0.53,-0.5399,-0.5803,-0.5888,-0.58,-0.5499,0.0,0.0,0.0,0.0,0.0,0.0,0.0,0.0,0.0,0.0,0.0,0.0,0.0,0.0,-1.2305,-1.2305,-1.2305,-1.2305,-1.2305,-1.2305,-1.2305,-1.2305,-1.2305,-1.2305,-1.2305,-1.2305,-1.2305,-1.2305,-1.2305,0.0,-1.2305,-1.2305,-1.2305,-1.2305,-1.2305,-1.2305,-1.2305,-1.2305,-1.2298,-1.2278,-1.2048,-1.1726,-1.1393,-1.0522,-0.9552,-0.9279,-0.8651,-0.7994,-0.7994,-0.8549,-0.9204,-0.9204,-0.8619,-0.7994,-0.7929,-0.7897,-0.7897,-0.7832,-0.7209,-0.6621,-0.6621,-0.5976,-0.5351,-0.5143,-0.5009,-0.4918,-0.4908,-0.4691,-0.4566,-0.467,-0.459,-0.4491,-0.4491,-0.4491,-0.4491,-0.4491,-0.4491,-0.4491,-0.4491,-0.4491,-0.4491,-0.4491,-0.4491,-0.4491,-0.4491,-0.4491,-0.4491,-0.4491,-0.4491,-0.4491,-0.4491,-0.4491,-0.4491,-0.4491,-0.4491,-0.4491,-0.4455,0.0,-0.5266,-0.5062,-0.5115,-0.5142,0.0,-0.4868,-0.4937,0.0,0.0,-0.5092,-0.564,-0.5739,-0.6022,0.0,0.0,0.0,0.0,0.0,0.0,0.0,0.0,0.0,0.0,0.0,0.0,0.0,0.0,-1.2305,-1.2305,-1.2305,-1.2305,-1.2305,-1.2305,-1.2305,-1.2305,-1.2305,-1.2305,-1.2305,-1.2305,-1.2305,-1.2305,-1.2305,-1.2305,-1.2305,-1.2305,-1.2305,-1.2305,-1.2305,-1.2305,-1.2305,-1.2305,-1.2305,-1.2278,-1.2051,-1.1388,-1.0473,-1.0205,-0.9363,-0.8392,-0.8339,-0.8156,-0.7994,-0.7994,-0.8156,-0.8323,-0.8323,-0.8156,-0.7832,-0.7177,-0.7013,-0.685,-0.6178,-0.5851,-0.5719,-0.5719,-0.5557,-0.5385,-0.5347,-0.5313,-0.522,-0.5069,-0.4901,-0.4782,-0.4704,-0.459,-0.4491,-0.4491,-0.4491,-0.4491,-0.4491,-0.4491,-0.4491,-0.4491,-0.4491,-0.4491,-0.4491,-0.4491,-0.4491,-0.4491,-0.4491,-0.4491,-0.4491,-0.4491,-0.4491,-0.4491,-0.4491,-0.4491,-0.4491,-0.4491,-0.4491,-0.3768,-0.4476,-0.5173,-0.5028,-0.5224,-0.5364,-0.5055,0.0,0.0,0.0,0.0,0.0,-0.5614,0.0,0.0,0.0,0.0,0.0,0.0,0.0,0.0,0.0,0.0,0.0,0.0,0.0,0.0,0.0,0.0,-1.2305,-1.2305,-1.2305,-1.2305,-1.2305,-1.2305,-1.2305,-1.2305,-1.2305,-1.2305,-1.2305,-1.2305,-1.2305,-1.2305,-1.2305,-1.2305,-1.2305,-1.2305,-1.2305,-1.2261,-1.1805,-1.162,-1.1583,-1.1099,-1.0913,-1.0895,-1.0753,-1.0283,-0.9686,-0.9328,-0.8402,-0.734,-0.6924,-0.6793,-0.6793,-0.6793,-0.6793,-0.6892,-0.7274,-0.7116,-0.6695,-0.6239,-0.6108,-0.5976,-0.5524,-0.5395,-0.5395,-0.5395,-0.5395,-0.5395,-0.5395,-0.5337,-0.525,-0.524,-0.506,-0.486,-0.4809,-0.4663,-0.4597,-0.4597,-0.4535,-0.4515,-0.4586,-0.4597,-0.4566,-0.4494,-0.4556,-0.4566,-0.4494,-0.4491,-0.4491,-0.4491,-0.4491,-0.4491,-0.4491,-0.4491,-0.4491,-0.4491,-0.4491,-0.4491,-0.4491,-0.4491,-0.4491,-0.3612,-0.4682,-0.5725,-0.5504,-0.5789,-0.6017,-0.5641,0.0,0.0,0.0,0.0,0.0,0.0,0.0,0.0,0.0,0.0,0.0,0.0,0.0,0.0,0.0,0.0,0.0,0.0,0.0,0.0,0.0,0.0,-1.2305,-1.2305,-1.2305,-1.2305,-1.2305,-1.2305,-1.2305,-1.2305,-1.2305,-1.2305,-1.2305,-1.2305,-1.2305,-1.2305,-1.2305,-1.2224,-1.207,0.0,0.0,-1.1774,-1.0901,-1.0565,-1.0484,-0.9631,-0.9296,-0.9296,-0.9296,-0.918,-0.8906,-0.8326,-0.7414,-0.6403,-0.5664,-0.5395,-0.5395,-0.5395,-0.5395,-0.5557,-0.6301,-0.5976,-0.5395,-0.5395,-0.5395,-0.5395,-0.5395,-0.5395,-0.5395,-0.5395,-0.5395,-0.5395,-0.5395,-0.5254,-0.5206,-0.5371,-0.5131,-0.4921,-0.4921,-0.4823,-0.4724,-0.4724,-0.4641,-0.461,-0.4711,-0.4724,-0.4674,-0.4573,-0.4679,-0.467,-0.4566,-0.4515,-0.4491,-0.4491,-0.4491,-0.4491,-0.4491,-0.4491,-0.4501,-0.4525,-0.4501,-0.4515,-0.4559,-0.4535,-0.4539,-0.4123,-0.5172,-0.5826,-0.4576,-0.5032,-0.5621,0.0,0.0,0.0,0.0,0.0,0.0,0.0,0.0,0.0,0.0,0.0,0.0,0.0,0.0,0.0,0.0,0.0,0.0,0.0,0.0,0.0,0.0,0.0,-1.2305,-1.2305,-1.2305,-1.2305,-1.2305,-1.2305,-1.2305,-1.2305,-1.2305,-1.2305,-1.2305,-1.2305,-1.2305,-1.2305,-1.2305,-1.1842,-1.1013,0.0,-1.0565,-0.975,-0.9599,-0.9518,-0.9523,-0.9372,-0.9296,-0.9296,-0.9296,-0.8574,-0.7459,-0.6275,-0.5853,-0.5733,-0.547,-0.5395,-0.5395,-0.5395,-0.5395,-0.5428,-0.5557,-0.5491,-0.5395,-0.5395,-0.5395,-0.5395,-0.5395,-0.5395,-0.5395,-0.5395,-0.5395,-0.5395,-0.5395,-0.5375,-0.5365,-0.5392,-0.5213,-0.5066,-0.5066,-0.4945,-0.4884,-0.4884,-0.4863,-0.4857,-0.488,-0.4884,-0.4874,-0.485,-0.487,-0.4874,-0.485,-0.4634,-0.4491,-0.4491,-0.4491,-0.4491,-0.4491,-0.4491,-0.4552,-0.4657,-0.4552,-0.4624,-0.4847,-0.4714,-0.4724,-0.3831,-0.4804,-0.5558,-0.4879,-0.5805,-0.6773,0.0,0.0,0.0,0.0,0.0,0.0,0.0,0.0,0.0,0.0,0.0,0.0,0.0,0.0,0.0,0.0,0.0,0.0,0.0,0.0,0.0,0.0,0.0,0.0,-1.2305,-1.2305,-1.2305,-1.2305,-1.2305,-1.2033,-1.1502,-1.1502,-1.1502,-1.1502,-1.1502,-1.1205,-1.0689,-1.0689,-1.0421,-1.0002,0.0,-0.9744,-0.9258,-0.8732,-0.8504,-0.8428,-0.7897,-0.7668,-0.7655,-0.7551,-0.7086,-0.6403,-0.5727,-0.5511,-0.5487,-0.5419,-0.5395,-0.5395,-0.5395,-0.5395,-0.5395,-0.5395,-0.5395,-0.5395,-0.5395,-0.5395,-0.5395,-0.5395,-0.5395,-0.5395,-0.5395,-0.5395,-0.5395,-0.5395,-0.5395,-0.5395,-0.5395,-0.5337,-0.5226,-0.511,-0.5046,-0.5002,-0.5002,-0.4935,-0.4918,-0.4992,-0.5002,-0.4972,-0.4894,-0.4958,-0.4968,-0.4894,-0.4785,-0.4707,-0.4707,-0.4707,-0.4707,-0.4707,-0.4707,-0.4745,-0.4813,-0.4745,-0.4782,-0.4887,-0.4847,-0.4853,-0.3672,-0.4489,-0.5313,-0.538,0.0,0.0,0.0,0.0,0.0,0.0,0.0,0.0,0.0,0.0,0.0,0.0,0.0,0.0,0.0,0.0,0.0,0.0,0.0,0.0,0.0,0.0,0.0,0.0,0.0,0.0,-1.2298,-1.2238,-1.2115,-1.1959,-1.1959,-1.1471,-1.0447,-1.0453,-1.0453,-1.0453,-1.0453,-1.004,-0.9296,-0.9296,-0.9183,-0.8955,-0.8955,-0.8808,-0.8542,-0.7783,-0.7442,-0.7365,-0.6606,-0.63,-0.6276,-0.6047,-0.5925,-0.5823,-0.561,-0.5518,-0.5443,-0.5405,-0.5395,-0.5395,-0.5395,-0.5395,-0.5395,-0.5395,-0.5395,-0.5395,-0.5395,-0.5395,-0.5395,-0.5395,-0.5395,-0.5395,-0.5395,-0.5395,-0.5395,-0.5395,-0.5395,-0.5395,-0.5395,-0.5395,-0.5354,-0.5203,-0.5182,-0.5182,-0.5182,-0.5091,-0.5064,-0.5172,-0.5182,-0.5138,-0.5033,-0.5121,-0.5043,-0.4715,-0.4862,-0.4924,-0.4891,-0.4887,-0.4887,-0.4887,-0.4887,-0.4904,-0.4938,-0.4904,-0.4955,-0.5023,-0.4955,-0.4958,-0.4183,-0.4803,-0.536,-0.5618,0.0,0.0,0.0,0.0,0.0,0.0,0.0,0.0,0.0,0.0,0.0,0.0,0.0,0.0,0.0,0.0,0.0,0.0,0.0,0.0,0.0,0.0,0.0,0.0,0.0,0.0,-1.2285,-1.2044,-1.1614,-1.0926,-1.0901,-1.0415,-0.941,-0.941,-0.941,-0.941,-0.941,-0.9372,-0.9296,-0.9296,-0.8808,-0.7897,-0.7897,-0.7365,-0.6528,-0.6451,-0.6412,-0.6412,-0.6338,-0.63,-0.6265,-0.5925,-0.5901,-0.5915,-0.5559,-0.5498,-0.5549,-0.544,-0.5395,-0.5395,-0.5395,-0.5395,-0.5395,-0.5395,-0.5395,-0.5395,-0.5395,-0.5395,-0.5395,-0.5395,-0.5395,-0.5395,-0.5395,-0.5395,-0.5395,-0.5395,-0.5395,-0.5395,-0.5395,-0.5395,-0.5392,-0.5382,-0.5378,-0.5378,-0.5378,-0.5371,-0.5365,-0.5378,-0.5378,-0.5375,-0.5365,-0.5371,-0.5005,-0.4125,-0.4707,-0.5026,-0.4894,-0.4887,-0.4887,-0.4887,-0.4887,-0.4955,-0.5083,-0.4951,-0.506,-0.5358,-0.5182,-0.5192,-0.348,-0.4283,-0.5097,-0.5587,0.0,0.0,0.0,0.0,0.0,0.0,0.0,0.0,0.0,0.0,0.0,0.0,0.0,0.0,0.0,0.0,0.0,0.0,0.0,0.0,0.0,0.0,0.0,0.0,0.0,0.0,-1.0159,-1.0037,-0.9848,-0.9581,-0.9661,-0.9227,-0.8198,-0.8288,-0.8046,-0.7442,-0.8084,-0.805,-0.7442,-0.7442,-0.7211,-0.6872,-0.6872,-0.6644,-0.63,-0.63,-0.63,-0.63,-0.63,-0.6242,-0.6091,-0.5878,-0.5783,-0.5718,-0.5487,-0.5433,-0.5474,-0.5416,-0.5395,-0.5395,-0.5395,-0.5395,-0.5395,-0.5395,-0.5395,-0.5395,-0.5395,-0.5395,-0.5395,-0.5395,-0.5395,-0.5395,-0.5395,-0.5395,-0.5395,-0.5395,-0.5395,-0.5395,-0.5395,-0.5395,-0.5395,-0.5395,-0.5395,-0.5395,-0.5395,-0.5395,-0.5395,-0.5395,-0.4888,-0.4519,-0.4519,-0.4048,-0.358,-0.3211,-0.3974,-0.4162,-0.3568,-0.3533,-0.3533,-0.3533,-0.3533,-0.3552,-0.3621,-0.3552,-0.3605,-0.3747,-0.4202,-0.4172,-0.3042,-0.3838,-0.4716,0.0,0.0,0.0,0.0,0.0,0.0,0.0,0.0,0.0,0.0,0.0,0.0,0.0,0.0,0.0,0.0,0.0,0.0,0.0,0.0,0.0,0.0,0.0,0.0,0.0,0.0,0.0,0.0,-0.8722,-0.8578,-0.8333,-0.8444,-0.802,-0.6968,-0.7096,-0.6825,-0.6153,-0.6821,-0.6882,-0.63,-0.63,-0.6272,-0.6186,-0.6186,-0.6197,-0.6153,-0.6153,-0.6184,-0.6183,-0.6173,-0.6081,-0.5969,-0.5806,-0.5674,-0.5569,-0.5446,-0.5395,-0.5395,-0.5395,-0.5395,-0.5395,-0.5395,-0.5395,-0.5395,-0.5395,-0.5395,-0.5395,-0.5395,-0.5395,-0.5395,-0.5395,-0.5395,-0.5395,-0.5395,-0.5395,-0.5329,-0.5024,-0.4957,-0.4855,-0.4586,-0.4553,-0.4553,-0.4553,-0.4553,-0.4553,-0.4553,-0.4553,-0.4553,-0.4553,-0.3982,-0.358,-0.358,-0.3045,-0.2577,-0.2277,-0.2811,-0.3011,-0.2711,-0.2711,-0.2711,-0.2711,-0.2711,-0.2711,-0.2711,-0.2711,-0.2711,-0.2711,-0.3311,-0.328,-0.306,-0.3639,0.0,0.0,0.0,0.0,0.0,0.0,0.0,0.0,0.0,0.0,0.0,0.0,0.0,0.0,0.0,0.0,0.0,0.0,0.0,0.0,0.0,0.0,0.0,0.0,0.0,0.0,0.0,0.0,0.0,-0.8504,-0.8044,-0.7305,-0.7279,-0.6821,-0.58,-0.58,-0.58,-0.58,-0.58,-0.5959,-0.6296,-0.6296,-0.6173,-0.599,-0.599,-0.5905,-0.58,-0.58,-0.5891,-0.5976,-0.5861,-0.5891,-0.5952,-0.5698,-0.5589,-0.5566,-0.5446,-0.5395,-0.5395,-0.5395,-0.5395,-0.5395,-0.5395,-0.5395,-0.5395,-0.5395,-0.5395,-0.5395,-0.5395,-0.5395,-0.5362,-0.5395,-0.5395,-0.5395,-0.5362,-0.5362,-0.509,-0.4184,-0.3982,-0.3713,-0.2845,-0.2711,-0.2711,-0.2711,-0.2711,-0.2711,-0.2711,-0.2711,-0.2711,-0.2711,-0.2678,-0.2678,-0.2678,-0.2678,-0.2277,-0.134,-0.1273,-0.1708,-0.2644,-0.2678,-0.2678,-0.2678,-0.2678,-0.2678,-0.2678,-0.2678,-0.2678,-0.2678,-0.2678,-0.2678,-0.2553,0.0,0.0,0.0,0.0,0.0,0.0,0.0,0.0,0.0,0.0,0.0,0.0,0.0,0.0,0.0,0.0,0.0,0.0,0.0,0.0,0.0,0.0,0.0,0.0,0.0,0.0,0.0,0.0,0.0,0.0,-0.6346,-0.6175,-0.5958,-0.6038,-0.5965,-0.5654,-0.5752,-0.58,-0.58,-0.58,-0.585,-0.5939,-0.5939,-0.5911,-0.5871,-0.5871,-0.5844,-0.58,-0.58,-0.5827,-0.5864,-0.582,-0.5769,-0.5708,-0.5623,-0.5556,-0.5457,-0.5412,-0.5395,-0.5395,-0.5395,-0.5395,-0.5395,-0.5395,-0.5395,-0.5395,-0.5395,-0.4921,-0.4417,-0.4417,-0.3949,-0.3647,-0.4284,-0.4417,-0.4251,-0.3647,-0.3513,-0.3413,-0.3145,-0.3078,-0.3011,-0.2744,-0.2711,-0.2711,-0.2711,-0.2711,-0.2711,-0.2711,-0.2711,-0.2711,-0.2711,-0.2108,-0.1708,-0.1708,-0.1141,-0.0672,-0.0404,-0.037,-0.0505,-0.0773,-0.0807,-0.0807,-0.0807,-0.0807,-0.0807,-0.0807,-0.0807,-0.0807,-0.0807,-0.1441,-0.1374,-0.2502,0.0,0.0,0.0,0.0,0.0,0.0,0.0,0.0,0.0,0.0,0.0,0.0,0.0,0.0,0.0,0.0,0.0,0.0,0.0,0.0,0.0,0.0,0.0,0.0,0.0,0.0,0.0,0.0,0.0,0.0,-0.5395,-0.5395,-0.5395,-0.5484,-0.5532,-0.5532,-0.5617,-0.5627,-0.5627,-0.5627,-0.5627,-0.563,-0.5749,-0.5772,-0.5715,-0.5654,-0.5627,-0.5627,-0.5627,-0.5661,-0.5711,-0.565,-0.561,-0.5583,-0.5556,-0.5474,-0.5395,-0.5395,-0.5395,-0.5395,-0.5395,-0.5395,-0.5326,-0.4957,-0.4855,-0.4788,-0.4417,-0.3915,-0.348,-0.348,-0.3078,-0.2845,-0.3347,-0.348,-0.3345,-0.2811,-0.2711,-0.2577,-0.2209,-0.2143,-0.2043,-0.1677,-0.1643,-0.1643,-0.1643,-0.1643,-0.1643,-0.1643,-0.1643,-0.1643,-0.1643,-0.1108,-0.0772,-0.0772,-0.0303,0.0,0.0,0.0,0.0,0.0,0.0,0.0,0.0,0.0,0.0,0.0,0.0,0.0,0.0,-0.0538,-0.0504,0.0,0.0,0.0,0.0,0.0,0.0,0.0,0.0,0.0,0.0,0.0,0.0,0.0,0.0,0.0,0.0,0.0,0.0,0.0,0.0,0.0,0.0,0.0,0.0,0.0,0.0,0.0,0.0,0.0,0.0,0.0,-0.5395,-0.5395,-0.5395,-0.5395,-0.5395,-0.5395,-0.5395,-0.5395,-0.5395,-0.5395,-0.5395,-0.5402,-0.564,-0.5691,-0.5562,-0.5453,-0.5395,-0.5395,-0.5395,-0.5477,-0.5555,-0.545,-0.5481,-0.5552,-0.5446,-0.5395,-0.5395,-0.5292,-0.5259,-0.5259,-0.5193,-0.516,-0.499,-0.4148,-0.3882,-0.3713,-0.2911,-0.2644,-0.2577,-0.2577,-0.2511,-0.2444,-0.2444,-0.2511,-0.2544,-0.2477,-0.2444,-0.221,-0.1341,-0.1173,-0.094,-0.0135,0.0,0.0,0.0,0.0,0.0,0.0,0.0,0.0,0.0,0.0,0.0,0.0,0.0,0.0,0.0,0.0,0.0,0.0,0.0,0.0,0.0,0.0,0.0,0.0,0.0,0.0,0.0,0.0,0.0,0.0,0.0,0.0,0.0,0.0,0.0,0.0,0.0,0.0,0.0,0.0,0.0,0.0,0.0,0.0,0.0,0.0,0.0,0.0,0.0,0.0,0.0,0.0,0.0,0.0,0.0,0.0,0.0,0.0,0.0,-0.5395,-0.5395,-0.5395,-0.5395,-0.5395,-0.5395,-0.5395,-0.5395,-0.5395,-0.5395,-0.5395,-0.5395,-0.5395,-0.546,-0.5474,-0.5443,-0.5409,-0.5395,-0.5395,-0.5395,-0.5416,-0.544,-0.5405,-0.5416,-0.544,-0.5405,-0.5395,-0.5292,-0.4553,-0.4317,-0.4184,-0.3513,-0.328,-0.3245,-0.3045,-0.2978,-0.2945,-0.2744,-0.2177,-0.1608,-0.1608,-0.1108,-0.0572,-0.0572,-0.1108,-0.1408,-0.074,-0.0572,-0.0505,-0.0303,-0.0269,-0.0236,-0.0034,0.0,0.0,0.0,0.0,0.0,0.0,0.0,0.0,0.0,0.0,0.0,0.0,0.0,0.0,0.0,0.0,0.0,0.0,0.0,0.0,0.0,0.0,0.0,0.0,0.0,0.0,0.0,0.0,0.0,0.0,0.0,0.0,0.0,0.0,0.0,0.0,0.0,0.0,0.0,0.0,0.0,0.0,0.0,0.0,0.0,0.0,0.0,0.0,0.0,0.0,0.0,0.0,0.0,0.0,0.0,0.0,0.0,0.0,-0.5395,-0.5395,-0.5395,-0.5395,-0.5395,-0.5395,-0.5395,-0.5395,-0.5395,-0.5395,-0.5395,-0.5395,-0.5395,-0.5395,-0.5395,-0.5395,-0.5395,-0.5395,-0.5395,-0.5395,-0.5395,-0.5395,-0.5359,-0.4891,-0.4722,-0.4686,-0.4251,-0.4118,-0.4048,-0.3547,-0.338,-0.3311,-0.2845,-0.2711,-0.2611,-0.2177,-0.2043,-0.1942,-0.1509,-0.1041,-0.0672,-0.0672,-0.0337,0.0,0.0,-0.0337,-0.0538,-0.0101,0.0,0.0,0.0,0.0,0.0,0.0,0.0,0.0,0.0,0.0,0.0,0.0,0.0,0.0,0.0,0.0,0.0,0.0,0.0,0.0,0.0,0.0,0.0,0.0,0.0,0.0,0.0,0.0,0.0,0.0,0.0,0.0,0.0,0.0,0.0,0.0,0.0,0.0,0.0,0.0,0.0,0.0,0.0,0.0,0.0,0.0,0.0,0.0,0.0,0.0,0.0,0.0,0.0,0.0,0.0,0.0,0.0,0.0,0.0,0.0,0.0,0.0,0.0,0.0,-0.5395,-0.5395,-0.5395,-0.5395,-0.5395,-0.5395,-0.5395,-0.5395,-0.5395,-0.5395,-0.5395,-0.5226,-0.509,-0.4921,-0.4921,-0.509,-0.5395,-0.5395,-0.5296,-0.516,-0.516,-0.5057,-0.4855,-0.4084,-0.3782,-0.368,-0.2978,-0.2711,-0.2678,-0.2511,-0.2444,-0.2444,-0.2277,-0.2243,-0.2076,-0.1307,-0.1073,-0.094,-0.0202,0.0,0.0,0.0,0.0,0.0,0.0,0.0,0.0,0.0,0.0,0.0,0.0,0.0,0.0,0.0,0.0,0.0,0.0,0.0,0.0,0.0,0.0,0.0,0.0,0.0,0.0,0.0,0.0,0.0,0.0,0.0,0.0,0.0,0.0,0.0,0.0,0.0,0.0,0.0,0.0,0.0,0.0,0.0,0.0,0.0,0.0,0.0,0.0,0.0,0.0,0.0,0.0,0.0,0.0,0.0,0.0,0.0,0.0,0.0,0.0,0.0,0.0,0.0,0.0,0.0,0.0,0.0,0.0,0.0,0.0,0.0,0.0,-0.5395,-0.5395,-0.5395,-0.5395,-0.5395,-0.5395,-0.5395,-0.5395,-0.5395,-0.5395,-0.5395,-0.5395,-0.4586,-0.3782,-0.3045,-0.3045,-0.3915,-0.5395,-0.5395,-0.4954,-0.4184,-0.4184,-0.3747,-0.3045,-0.2911,-0.2878,-0.2845,-0.2744,-0.2711,-0.2577,-0.1775,-0.1474,-0.1374,-0.0605,-0.037,-0.0337,-0.0202,-0.0168,-0.0135,-0.0034,0.0,0.0,0.0,0.0,0.0,0.0,0.0,0.0,0.0,0.0,0.0,0.0,0.0,0.0,0.0,0.0,0.0,0.0,0.0,0.0,0.0,0.0,0.0,0.0,0.0,0.0,0.0,0.0,0.0,0.0,0.0,0.0,0.0,0.0,0.0,0.0,0.0,0.0,0.0,0.0,0.0,0.0,0.0,0.0,0.0,0.0,0.0,0.0,0.0,0.0,0.0,0.0,0.0,0.0,0.0,0.0,0.0,0.0,0.0,0.0,0.0,0.0,0.0,0.0,0.0,0.0,0.0,0.0,0.0,0.0,0.0,0.0,-0.5395,-0.5395,-0.5395,-0.4891,-0.4619,-0.4619,-0.4148,-0.3882,-0.3882,-0.3882,-0.3882,-0.3882,-0.348,-0.3078,-0.2711,-0.2711,-0.3145,-0.3882,-0.3882,-0.3647,-0.328,-0.328,-0.3045,-0.2644,-0.211,-0.1909,-0.1842,-0.1375,-0.1176,-0.1141,-0.0706,-0.0572,-0.0504,-0.0135,0.0,0.0,0.0,0.0,0.0,0.0,0.0,0.0,0.0,0.0,0.0,0.0,0.0,0.0,0.0,0.0,0.0,0.0,0.0,0.0,0.0,0.0,0.0,0.0,0.0,0.0,0.0,0.0,0.0,0.0,0.0,0.0,0.0,0.0,0.0,0.0,0.0,0.0,0.0,0.0,0.0,0.0,0.0,0.0,0.0,0.0,0.0,0.0,0.0,0.0,0.0,0.0,0.0,0.0,0.0,0.0,0.0,0.0,0.0,0.0,0.0,0.0,0.0,0.0,0.0,0.0,0.0,0.0,0.0,0.0,0.0,0.0,0.0,0.0,0.0,0.0,0.0,0.0,-0.4724,-0.4703,-0.4701,-0.404,-0.3654,-0.368,-0.3045,-0.2711,-0.2711,-0.2711,-0.2577,-0.2344,-0.2344,-0.2243,-0.2011,-0.2011,-0.2011,-0.2044,-0.2511,-0.2577,-0.2344,-0.2344,-0.221,-0.1944,-0.1241,-0.0973,-0.0906,-0.0236,0.0,0.0,0.0,0.0,0.0,0.0,0.0,0.0,0.0,0.0,0.0,0.0,0.0,0.0,0.0,0.0,0.0,0.0,0.0,0.0,0.0,0.0,0.0,0.0,0.0,0.0,0.0,0.0,0.0,0.0,0.0,0.0,0.0,0.0202,0.0337,0.0337,0.0538,0.0605,0.0337,0.0337,0.0236,0.0,0.0,0.0,0.0,0.0,0.0,0.0,0.0,0.0,0.0,0.0,0.0,0.0,0.0,0.0,0.0,0.0,0.0,0.0,0.0,0.0,0.0,0.0,0.0,0.0,0.0,0.0,0.0,0.0,0.0,0.0,0.0,0.0,0.0,0.0,0.0,0.0,0.0,0.0,0.0,0.0,0.0,0.0,-0.2841,-0.2843,-0.2855,-0.2795,-0.2765,-0.2776,-0.2711,-0.2711,-0.2711,-0.2711,-0.2242,-0.1374,-0.1374,-0.094,-0.0135,-0.0135,-0.0135,-0.0236,-0.1944,-0.221,-0.1374,-0.1374,-0.0873,-0.0135,-0.0101,-0.0067,-0.0067,0.0,0.0,0.0,0.0,0.0,0.0,0.0,0.0,0.0,0.0,0.0,0.0,0.0,0.0,0.0,0.0,0.0,0.0,0.0,0.0,0.0,0.0,0.0,0.0,0.0,0.0,0.0,0.0,0.0,0.0,0.0,0.0,0.0,0.0,0.0706,0.124,0.124,0.2043,0.221,0.1307,0.124,0.0873,0.0067,0.0,0.0,0.0,0.0,0.0,0.0,0.0,0.0,0.0,0.0,0.0,0.0,0.0,0.0,0.0,0.0,0.0,0.0,0.0,0.0,0.0,0.0,0.0,0.0,0.0,0.0,0.0,0.0,0.0,0.0,0.0,0.0,0.0,0.0,0.0,0.0,0.0,0.0,0.0,0.0,0.0,0.0,0.0,-0.2687,-0.2713,-0.2123,-0.1789,-0.1808,-0.1262,-0.0957,-0.0974,-0.0974,-0.0806,-0.0471,-0.0471,-0.0303,0.0,0.0,0.0,-0.0034,-0.0672,-0.0773,-0.0471,-0.0471,-0.0269,0.0,0.0,0.0,0.0,0.0,0.0,0.0,0.0,0.0,0.0,0.0,0.0,0.0,0.0,0.0,0.0,0.0,0.0,0.0,0.0,0.0,0.0,0.0,0.0,0.0,0.0,0.0,0.0,0.0,0.0,0.0,0.0,0.0471,0.0638,0.0067,0.0974,0.1509,0.0906,0.1642,0.221,0.221,0.2509,0.2577,0.2242,0.221,0.2076,0.1743,0.1744,0.1744,0.1744,0.1744,0.1744,0.1744,0.1744,0.1176,0.0,0.0,0.0,0.0,0.0,0.0,0.0,0.0,0.0,0.0,0.0,0.0,0.0,0.0,0.0,0.0,0.0,0.0,0.0,0.0,0.0,0.0,0.0,0.0,0.0,0.0,0.0,0.0,0.0,0.0,0.0,0.0,0.0,0.0,0.0,0.0,-0.1786,-0.1212,-0.0854,-0.0862,-0.0318,0.0,0.0,0.0,0.0,0.0,0.0,0.0,0.0,0.0,0.0,0.0,0.0,0.0,0.0,0.0,0.0,0.0,0.0,0.0,0.0,0.0,0.0,0.0,0.0,0.0,0.0,0.0,0.0,0.0,0.0,0.0,0.0,0.0,0.0,0.0,0.0,0.0202,0.0505,0.084,0.0908,0.0908,0.0908,0.0672,0.0437,0.0437,0.0706,0.091,0.0953,0.1463,0.1631,0.1056,0.2006,0.2546,0.1902,0.2647,0.3235,0.3297,0.3515,0.3531,0.3225,0.3163,0.3011,0.2711,0.2711,0.2711,0.2711,0.2711,0.2711,0.2711,0.2711,0.2111,0.0908,0.0908,0.0908,0.0908,0.0908,0.0908,0.0,0.0,0.0,0.0,0.0,0.0,0.0,0.0,0.0,0.0,0.0,0.0,0.0,0.0,0.0,0.0,0.0,0.0,0.0,0.0,0.0,0.0,0.0,0.0,0.0,0.0,0.0,0.0,0.0,0.0,0.0,0.0,0.0,0.0,0.0,0.0,0.0,0.0,0.0,0.0,0.0,0.0,0.0,0.0,0.0,0.0,0.0,0.0,0.0,0.0,0.0,0.0,0.0,0.0,0.0,0.0,0.0,0.0,0.0,0.0,0.0,0.0034,0.0034,0.0034,0.0067,0.0067,0.0067,0.0067,0.0067,0.0067,0.0067,0.0706,0.1574,0.2477,0.2713,0.2714,0.2714,0.2013,0.1376,0.1341,0.2079,0.274,0.2884,0.2933,0.2934,0.29,0.2934,0.2969,0.2934,0.3702,0.4337,0.4516,0.5179,0.5243,0.4327,0.4118,0.3682,0.2845,0.2778,0.2778,0.2778,0.2778,0.2778,0.2778,0.2778,0.2778,0.2778,0.2711,0.2711,0.2711,0.2711,0.2711,0.0,0.0,0.0,0.0,0.0,0.0,0.0,0.0,0.0,0.0,0.0,0.0,0.0,0.0,0.0,0.0,0.0,0.0,0.0,0.0,0.0,0.0,0.0,0.0,0.0,0.0,0.0,0.0,0.0,0.0,0.0,0.0,0.0,0.0,0.0,0.0,0.0,0.0,0.0,0.0,0.0,0.0,0.0,0.0,0.0,0.0,0.0,0.0,0.0,0.0,0.0,0.0,0.0,0.0,0.0,0.0,0.0,0.0,0.0,0.0,0.0101,0.0739,0.094,0.1074,0.1743,0.1944,0.1944,0.1944,0.1944,0.1944,0.1944,0.2144,0.2376,0.2644,0.2788,0.2828,0.2828,0.3254,0.3365,0.2496,0.2663,0.2974,0.2903,0.3542,0.3837,0.3162,0.4163,0.4769,0.4122,0.4805,0.5396,0.5431,0.562,0.5592,0.5246,0.5167,0.4996,0.4658,0.4655,0.4655,0.4655,0.4655,0.4655,0.4655,0.4655,0.4655,0.4655,0.3345,0.2711,0.2711,0.2711,0.2711,0.0,0.0,0.0,0.0,0.0,0.0,0.0,0.0,0.0,0.0,0.0,0.0,0.0,0.0,0.0,0.0,0.0,0.0,0.0,0.0,0.0,0.0,0.0,0.0,0.0,0.0,0.0,0.0,0.0,0.0,0.0,0.0,0.0,0.0,0.0,0.0,0.0,0.0,0.0,0.0,0.0,0.0,0.0,0.0,0.0,0.0,0.0,0.0,0.0,0.0,0.0,0.0,0.0,0.0,0.0034,0.0404,0.0538,0.0605,0.0974,0.1141,0.1208,0.1708,0.1876,0.1976,0.2544,0.2711,0.2711,0.2711,0.2711,0.2778,0.3145,0.3245,0.3345,0.3747,0.3898,0.3956,0.4003,0.4556,0.4739,0.3656,0.3871,0.4203,0.4183,0.4706,0.4936,0.4386,0.5197,0.5712,0.5194,0.5563,0.5922,0.5986,0.5935,0.5837,0.5691,0.5623,0.5559,0.5405,0.5395,0.5395,0.5395,0.5395,0.5395,0.5395,0.5395,0.5395,0.5395,0.435,0.3816,0.3816,0.3816,0.3816,0.0,0.0,0.0,0.0,0.0,0.0,0.0,0.0,0.0,0.0,0.0,0.0,0.0,0.0,0.0,0.0,0.0,0.0,0.0,0.0,0.0,0.0,0.0,0.0,0.0,0.0,0.0,0.0,0.0,0.0,0.0,0.0,0.0,0.0,0.0,0.0,0.0,0.0,0.0,0.0,0.0,0.0,0.0,0.0,0.0,0.0,0.0,0.0067,0.0135,0.0135,0.0101,0.0,0.0101,0.0135,0.0236,0.1141,0.1441,0.1574,0.241,0.2711,0.2711,0.2811,0.2845,0.2878,0.2978,0.3011,0.3011,0.3011,0.3011,0.3178,0.3949,0.4151,0.4356,0.5213,0.5433,0.5487,0.5606,0.5752,0.5633,0.486,0.5337,0.5888,0.5973,0.6006,0.6016,0.6016,0.6016,0.6016,0.6016,0.6016,0.6108,0.6286,0.6139,0.5993,0.584,0.5694,0.5583,0.5429,0.5402,0.5395,0.5395,0.5395,0.5395,0.5395,0.5395,0.5395,0.5395,0.5395,0.5395,0.5395,0.5395,0.5402,0.0,0.0,0.0,0.0,0.0,0.0,0.0,0.0,0.0,0.0,0.0,0.0,0.0,0.0,0.0,0.0,0.0,0.0,0.0,0.0,0.0,0.0,0.0,0.0,0.0,0.0,0.0,0.0,0.0,0.0,0.0,0.0,0.0,0.0,0.0,0.0,0.0,0.0,0.0,0.0,0.0,0.0,0.0,0.0,0.0,0.0,0.0,0.0404,0.104,0.104,0.0638,0.0067,0.0772,0.104,0.1173,0.2076,0.2444,0.2444,0.2644,0.2711,0.2811,0.3513,0.3747,0.3882,0.4655,0.4888,0.4888,0.4888,0.4888,0.4924,0.509,0.5123,0.5189,0.5481,0.5633,0.5755,0.5911,0.6064,0.6169,0.5975,0.6093,0.6139,0.601,0.6132,0.6255,0.6255,0.6255,0.6255,0.6255,0.6255,0.6265,0.6296,0.6272,0.6152,0.5963,0.5847,0.5698,0.5555,0.5463,0.5395,0.5395,0.5395,0.5395,0.5395,0.5395,0.5395,0.5395,0.5395,0.5395,0.5395,0.5395,0.5463,0.0,0.0,0.0,0.0,0.0,0.0,0.0,0.0,0.0,0.0,0.0,0.0,0.0,0.0,0.0,0.0,0.0,0.0,0.0,0.0,0.0,0.0,0.0,0.0,0.0,0.0,0.0,0.0,0.0,0.0,0.0,0.0,0.0,0.0,0.0,0.0,0.0,0.0364,0.0536,0.0545,0.0917,0.1108,0.1114,0.1211,0.1239,0.1258,0.1326,0.1609,0.2009,0.2009,0.1743,0.1375,0.1843,0.2009,0.2108,0.3011,0.3347,0.3413,0.3882,0.4048,0.4115,0.4553,0.4686,0.4788,0.5259,0.5395,0.5395,0.5395,0.5395,0.5395,0.5395,0.5395,0.5433,0.5552,0.5644,0.5755,0.5946,0.6091,0.6169,0.6286,0.63,0.6276,0.6159,0.6248,0.63,0.63,0.63,0.63,0.63,0.63,0.63,0.63,0.63,0.6238,0.6003,0.5922,0.585,0.5705,0.559,0.5542,0.5614,0.5545,0.5542,0.5614,0.5545,0.5511,0.5511,0.5433,0.5395,0.5395,0.5395,0.5477,0.0,0.0,0.0,0.0,0.0,0.0332,0.0,0.0,0.0,0.1066,0.0,0.0,0.0,0.0,0.0,0.0,0.0,0.0,0.0,0.0,0.0,0.0,0.0,0.0,0.0342,0.0269,0.022,0.0224,0.022,0.0274,0.042,0.042,0.042,0.042,0.042,0.042,0.042,0.1006,0.1312,0.1312,0.1925,0.2206,0.2209,0.2372,0.2478,0.2491,0.2625,0.2764,0.2945,0.2945,0.3045,0.3211,0.3011,0.2945,0.3045,0.3949,0.4284,0.4384,0.5126,0.5395,0.5395,0.5395,0.5395,0.5395,0.5395,0.5395,0.5395,0.5395,0.5395,0.5395,0.5395,0.5395,0.544,0.5589,0.563,0.5711,0.601,0.6074,0.6112,0.6276,0.63,0.63,0.63,0.63,0.63,0.63,0.63,0.63,0.63,0.63,0.63,0.63,0.63,0.6248,0.6084,0.601,0.5939,0.585,0.5708,0.5681,0.5796,0.5691,0.5684,0.58,0.5688,0.563,0.563,0.5539,0.5467,0.544,0.544,0.5535,0.0,0.0,0.0,0.0,0.1602,0.0,0.0,0.0,0.1441,0.1529,0.0,0.0,0.0,0.0,0.0,0.0,0.0,0.0,0.0,0.0,0.0,0.0,0.0,0.0,0.0,0.1209,0.0987,0.0971,0.0975,0.1267,0.1917,0.1952,0.1952,0.1952,0.1952,0.1952,0.1952,0.2037,0.2063,0.2063,0.2147,0.2207,0.2191,0.2235,0.2339,0.2508,0.252,0.3044,0.3849,0.3849,0.435,0.5024,0.4184,0.3849,0.3982,0.4891,0.5226,0.5259,0.5362,0.5395,0.5395,0.5395,0.5395,0.5395,0.5395,0.5395,0.5395,0.5395,0.5395,0.5395,0.5395,0.5395,0.5467,0.5711,0.5776,0.5861,0.6207,0.6272,0.6279,0.6296,0.63,0.63,0.63,0.63,0.63,0.63,0.63,0.63,0.63,0.63,0.63,0.63,0.63,0.6293,0.6276,0.6108,0.5986,0.5969,0.5861,0.5783,0.58,0.5786,0.5786,0.58,0.5786,0.5776,0.5776,0.5759,0.5688,0.5562,0.5562,0.5711,0.0,0.0,0.0,0.0,0.0,0.0,0.1372,0.0,0.1722,0.0,0.0,0.0,0.0,0.0,0.0,0.0,0.0,0.0,0.0,0.0,0.0,0.0,0.0,0.0,0.0,0.0,0.0,0.0,0.1334,0.1477,0.2049,0.2088,0.2107,0.2202,0.2202,0.2202,0.2202,0.2619,0.2871,0.2899,0.3345,0.3539,0.3544,0.3608,0.3727,0.3908,0.3961,0.4305,0.4821,0.4821,0.5057,0.5359,0.4957,0.4821,0.4855,0.5259,0.5395,0.5395,0.5395,0.5395,0.5395,0.5395,0.5395,0.5395,0.5395,0.5395,0.5395,0.5395,0.5395,0.5395,0.5395,0.5463,0.5579,0.5752,0.5871,0.5993,0.6252,0.63,0.63,0.63,0.63,0.63,0.63,0.63,0.63,0.63,0.63,0.63,0.63,0.63,0.63,0.63,0.63,0.63,0.63,0.6238,0.6162,0.6162,0.6105,0.6027,0.5939,0.602,0.6105,0.6105,0.5979,0.5932,0.5932,0.5844,0.5817,0.5844,0.5752,0.5827,0.2796,0.0,0.0,0.0,0.0,0.0,0.0,0.0,0.0,0.0,0.0,0.0,0.0,0.0,0.0,0.0,0.0,0.0,0.0,0.0,0.0,0.0,0.0,0.0,0.0,0.0,0.0,0.0,0.0,0.1835,0.2519,0.2537,0.2642,0.2811,0.2843,0.2843,0.2843,0.3372,0.3649,0.3707,0.4236,0.4491,0.4494,0.4607,0.4711,0.4863,0.4978,0.5159,0.5334,0.5378,0.5395,0.5395,0.5395,0.5395,0.5395,0.5395,0.5395,0.5395,0.5395,0.5395,0.5395,0.5395,0.5395,0.5395,0.5395,0.5395,0.5395,0.5395,0.5395,0.5405,0.5446,0.5542,0.5637,0.582,0.5912,0.6071,0.6265,0.63,0.63,0.63,0.63,0.63,0.63,0.63,0.63,0.63,0.63,0.63,0.63,0.63,0.63,0.63,0.63,0.63,0.63,0.63,0.63,0.63,0.63,0.6248,0.6098,0.6238,0.63,0.63,0.6149,0.6095,0.6091,0.5983,0.5986,0.6091,0.5935,0.5945,0.0,0.0,0.0,0.3685,0.0,0.0,0.0,0.0,0.3212,0.0,0.0,0.0,0.0,0.0,0.0,0.0,0.0,0.0,0.0,0.0,0.0,0.0,0.0,0.0,0.0,0.0,0.0,0.0,0.2279,0.2685,0.388,0.3926,0.4081,0.4422,0.4436,0.4436,0.4436,0.446,0.446,0.446,0.4491,0.4491,0.4491,0.4494,0.4583,0.4707,0.486,0.4975,0.5117,0.533,0.5395,0.5395,0.5395,0.5395,0.5395,0.5395,0.5395,0.5395,0.5395,0.5395,0.5395,0.5395,0.5395,0.5395,0.5395,0.5395,0.5395,0.5395,0.5395,0.5429,0.5545,0.5586,0.5664,0.5915,0.599,0.6071,0.6265,0.63,0.63,0.63,0.63,0.63,0.63,0.63,0.63,0.63,0.63,0.63,0.63,0.63,0.63,0.63,0.63,0.63,0.63,0.63,0.63,0.63,0.63,0.6296,0.6293,0.6296,0.63,0.63,0.6293,0.6293,0.6293,0.6286,0.6286,0.6289,0.6095,0.6105,0.0,0.0,0.4395,0.3968,0.0,0.0,0.0,0.0,0.0,0.0,0.0,0.0,0.0,0.0,0.0,0.0,0.0,0.0,0.0,0.0,0.0,0.0,0.0,0.0,0.0,0.0,0.0,0.0,0.2707,0.0,0.3697,0.3914,0.4085,0.4287,0.444,0.4491,0.4491,0.4491,0.4491,0.4491,0.4491,0.4491,0.4491,0.4491,0.4576,0.4701,0.4853,0.4968,0.511,0.533,0.5395,0.5395,0.5395,0.5395,0.5395,0.5395,0.5395,0.5395,0.5395,0.5395,0.5395,0.5395,0.5395,0.5395,0.5395,0.5395,0.5416,0.5518,0.5545,0.5545,0.5691,0.5803,0.5868,0.5969,0.6108,0.6235,0.6289,0.63,0.63,0.63,0.6834,0.7099,0.6416,0.6872,0.7061,0.6412,0.63,0.63,0.63,0.63,0.63,0.63,0.63,0.63,0.63,0.63,0.63,0.63,0.63,0.6606,0.7249,0.6644,0.6606,0.7288,0.7292,0.7292,0.7288,0.7974,0.8275,0.8275,0.8203,0.7495,0.4464,0.4491,0.0,0.4094,0.3877,0.0,0.3263,0.0,0.0,0.0,0.0,0.0,0.0,0.0,0.0,0.0,0.0,0.0,0.0,0.0,0.0,0.0,0.0,0.0,0.0,0.0,0.255,0.2808,0.2778,0.0,0.0,0.3778,0.4008,0.4187,0.4389,0.4491,0.4491,0.4491,0.4491,0.4491,0.4491,0.4491,0.4491,0.4491,0.4545,0.4648,0.4772,0.4891,0.5036,0.5216,0.5344,0.5395,0.5395,0.5395,0.5395,0.5395,0.5395,0.5395,0.5395,0.5395,0.5395,0.5395,0.5395,0.5395,0.5395,0.5433,0.5498,0.5562,0.5627,0.5698,0.5844,0.5919,0.6115,0.6543,0.6752,0.6945,0.7288,0.7365,0.7365,0.7365,0.7897,0.8122,0.748,0.7897,0.7859,0.649,0.63,0.63,0.63,0.63,0.63,0.63,0.63,0.63,0.63,0.6641,0.6834,0.6834,0.7176,0.7668,0.8313,0.7706,0.7668,0.8313,0.8351,0.8351,0.8351,0.8993,0.9296,0.9296,0.9296,0.8618]}]]